<?xml version='1.0' encoding='UTF-8'?><gpx version="1.1" creator="JPX - https://github.com/jenetics/jpx" xmlns="http://www.topografix.com/GPX/1/1"><trk><trkseg><trkpt lat="43.1663506" lon="12.2978534"><ele>277.0</ele><time>2026-04-17T11:32:43.846Z</time></trkpt><trkpt lat="43.1664727" lon="12.2977711"><ele>277.0</ele><time>2026-04-17T11:33:46.881Z</time></trkpt><trkpt lat="43.1665837" lon="12.2976674"><ele>277.0</ele><time>2026-04-17T11:33:47.885Z</time></trkpt><trkpt lat="43.1666766" lon="12.2975694"><ele>277.0</ele><time>2026-04-17T11:33:48.92Z</time></trkpt><trkpt lat="43.1667691" lon="12.2974771"><ele>276.3333333333333</ele><time>2026-04-17T11:33:49.853Z</time></trkpt><trkpt lat="43.1668663" lon="12.2973985"><ele>275.66666666666663</ele><time>2026-04-17T11:33:50.882Z</time></trkpt><trkpt lat="43.1669498" lon="12.2973346"><ele>275.0</ele><time>2026-04-17T11:33:51.906Z</time></trkpt><trkpt lat="43.1670218" lon="12.2972755"><ele>274.3333333333333</ele><time>2026-04-17T11:33:52.909Z</time></trkpt><trkpt lat="43.1670831" lon="12.2972216"><ele>273.6666666666667</ele><time>2026-04-17T11:33:53.908Z</time></trkpt><trkpt lat="43.1671399" lon="12.2971766"><ele>273.0</ele><time>2026-04-17T11:33:54.914Z</time></trkpt><trkpt lat="43.1672212" lon="12.2970877"><ele>273.0</ele><time>2026-04-17T11:33:56.901Z</time></trkpt><trkpt lat="43.1672262" lon="12.2969442"><ele>273.0</ele><time>2026-04-17T11:33:58.91Z</time></trkpt><trkpt lat="43.1671911" lon="12.2968468"><ele>273.0</ele><time>2026-04-17T11:33:59.893Z</time></trkpt><trkpt lat="43.1671618" lon="12.2967285"><ele>273.0</ele><time>2026-04-17T11:34:00.908Z</time></trkpt><trkpt lat="43.1671348" lon="12.2966174"><ele>273.0</ele><time>2026-04-17T11:34:01.876Z</time></trkpt><trkpt lat="43.1671093" lon="12.2965095"><ele>273.0</ele><time>2026-04-17T11:34:02.846Z</time></trkpt><trkpt lat="43.1670834" lon="12.2963989"><ele>271.6666666666667</ele><time>2026-04-17T11:34:03.868Z</time></trkpt><trkpt lat="43.167067" lon="12.2962877"><ele>270.3333333333333</ele><time>2026-04-17T11:34:04.881Z</time></trkpt><trkpt lat="43.1670578" lon="12.2961744"><ele>269.0</ele><time>2026-04-17T11:34:05.868Z</time></trkpt><trkpt lat="43.1670535" lon="12.2960587"><ele>267.66666666666663</ele><time>2026-04-17T11:34:06.863Z</time></trkpt><trkpt lat="43.1670444" lon="12.2959434"><ele>266.3333333333333</ele><time>2026-04-17T11:34:07.875Z</time></trkpt><trkpt lat="43.1670364" lon="12.2958288"><ele>265.0</ele><time>2026-04-17T11:34:08.853Z</time></trkpt><trkpt lat="43.1670258" lon="12.2957081"><ele>265.0</ele><time>2026-04-17T11:34:09.904Z</time></trkpt><trkpt lat="43.1670103" lon="12.2955998"><ele>265.0</ele><time>2026-04-17T11:34:10.895Z</time></trkpt><trkpt lat="43.1669858" lon="12.2954953"><ele>265.0</ele><time>2026-04-17T11:34:11.888Z</time></trkpt><trkpt lat="43.1669584" lon="12.2954009"><ele>265.0</ele><time>2026-04-17T11:34:12.885Z</time></trkpt><trkpt lat="43.1669094" lon="12.2953068"><ele>265.0</ele><time>2026-04-17T11:34:13.91Z</time></trkpt><trkpt lat="43.1667888" lon="12.2952444"><ele>265.0</ele><time>2026-04-17T11:34:15.902Z</time></trkpt><trkpt lat="43.1666971" lon="12.2952179"><ele>263.0</ele><time>2026-04-17T11:34:16.882Z</time></trkpt><trkpt lat="43.1666273" lon="12.2951818"><ele>261.0</ele><time>2026-04-17T11:34:17.893Z</time></trkpt><trkpt lat="43.1665466" lon="12.2949177"><ele>259.0</ele><time>2026-04-17T11:34:19.898Z</time></trkpt><trkpt lat="43.1665124" lon="12.2947404"><ele>257.0</ele><time>2026-04-17T11:34:20.914Z</time></trkpt><trkpt lat="43.1664842" lon="12.2945482"><ele>256.6</ele><time>2026-04-17T11:34:21.863Z</time></trkpt><trkpt lat="43.166454" lon="12.2943676"><ele>256.2</ele><time>2026-04-17T11:34:22.858Z</time></trkpt><trkpt lat="43.1664299" lon="12.2942089"><ele>255.8</ele><time>2026-04-17T11:34:23.933Z</time></trkpt><trkpt lat="43.1664022" lon="12.2940746"><ele>255.4</ele><time>2026-04-17T11:34:24.919Z</time></trkpt><trkpt lat="43.1663785" lon="12.2939611"><ele>255.0</ele><time>2026-04-17T11:34:25.87Z</time></trkpt><trkpt lat="43.1663629" lon="12.2938771"><ele>254.66666666666666</ele><time>2026-04-17T11:34:26.912Z</time></trkpt><trkpt lat="43.1663196" lon="12.2937852"><ele>254.33333333333331</ele><time>2026-04-17T11:34:29.92Z</time></trkpt><trkpt lat="43.1662125" lon="12.2937994"><ele>254.0</ele><time>2026-04-17T11:34:31.915Z</time></trkpt><trkpt lat="43.1661304" lon="12.2938179"><ele>253.66666666666666</ele><time>2026-04-17T11:34:32.894Z</time></trkpt><trkpt lat="43.1660361" lon="12.2938445"><ele>253.33333333333331</ele><time>2026-04-17T11:34:33.928Z</time></trkpt><trkpt lat="43.1659574" lon="12.2938707"><ele>253.0</ele><time>2026-04-17T11:34:34.916Z</time></trkpt><trkpt lat="43.1658811" lon="12.2938997"><ele>253.16666666666666</ele><time>2026-04-17T11:34:35.903Z</time></trkpt><trkpt lat="43.1658163" lon="12.2939262"><ele>253.33333333333331</ele><time>2026-04-17T11:34:36.91Z</time></trkpt><trkpt lat="43.1657448" lon="12.2939454"><ele>253.5</ele><time>2026-04-17T11:34:38.906Z</time></trkpt><trkpt lat="43.1656918" lon="12.2940069"><ele>253.66666666666669</ele><time>2026-04-17T11:34:41.878Z</time></trkpt><trkpt lat="43.1656559" lon="12.2941055"><ele>253.83333333333334</ele><time>2026-04-17T11:34:42.864Z</time></trkpt><trkpt lat="43.1656096" lon="12.2942441"><ele>254.0</ele><time>2026-04-17T11:34:43.898Z</time></trkpt><trkpt lat="43.1655773" lon="12.2943996"><ele>254.0</ele><time>2026-04-17T11:34:44.9Z</time></trkpt><trkpt lat="43.165538" lon="12.2945456"><ele>254.0</ele><time>2026-04-17T11:34:45.912Z</time></trkpt><trkpt lat="43.1654988" lon="12.2947199"><ele>254.0</ele><time>2026-04-17T11:34:46.92Z</time></trkpt><trkpt lat="43.1654415" lon="12.2948947"><ele>254.0</ele><time>2026-04-17T11:34:47.915Z</time></trkpt><trkpt lat="43.1653796" lon="12.295068"><ele>254.25</ele><time>2026-04-17T11:34:48.916Z</time></trkpt><trkpt lat="43.1653045" lon="12.2952352"><ele>254.5</ele><time>2026-04-17T11:34:49.921Z</time></trkpt><trkpt lat="43.165213" lon="12.2954045"><ele>254.75</ele><time>2026-04-17T11:34:50.91Z</time></trkpt><trkpt lat="43.1651265" lon="12.2955723"><ele>255.0</ele><time>2026-04-17T11:34:51.914Z</time></trkpt><trkpt lat="43.1650367" lon="12.2957218"><ele>255.33333333333331</ele><time>2026-04-17T11:34:52.906Z</time></trkpt><trkpt lat="43.1649389" lon="12.2958958"><ele>255.66666666666666</ele><time>2026-04-17T11:34:53.91Z</time></trkpt><trkpt lat="43.1648339" lon="12.2960872"><ele>256.0</ele><time>2026-04-17T11:34:54.916Z</time></trkpt><trkpt lat="43.1647257" lon="12.2962898"><ele>257.3333333333333</ele><time>2026-04-17T11:34:55.916Z</time></trkpt><trkpt lat="43.1646257" lon="12.2965054"><ele>258.6666666666667</ele><time>2026-04-17T11:34:56.908Z</time></trkpt><trkpt lat="43.1645251" lon="12.2967004"><ele>260.0</ele><time>2026-04-17T11:34:57.913Z</time></trkpt><trkpt lat="43.1644188" lon="12.2969021"><ele>260.0</ele><time>2026-04-17T11:34:58.875Z</time></trkpt><trkpt lat="43.164307" lon="12.2971029"><ele>260.0</ele><time>2026-04-17T11:34:59.914Z</time></trkpt><trkpt lat="43.1641768" lon="12.2973061"><ele>260.0</ele><time>2026-04-17T11:35:00.904Z</time></trkpt><trkpt lat="43.1640384" lon="12.2974946"><ele>260.0</ele><time>2026-04-17T11:35:01.908Z</time></trkpt><trkpt lat="43.1639003" lon="12.2976838"><ele>260.0</ele><time>2026-04-17T11:35:02.917Z</time></trkpt><trkpt lat="43.1637608" lon="12.2978775"><ele>260.0</ele><time>2026-04-17T11:35:03.913Z</time></trkpt><trkpt lat="43.1636226" lon="12.2980742"><ele>260.33333333333337</ele><time>2026-04-17T11:35:04.886Z</time></trkpt><trkpt lat="43.1634849" lon="12.2982743"><ele>260.6666666666667</ele><time>2026-04-17T11:35:05.866Z</time></trkpt><trkpt lat="43.1633411" lon="12.2984737"><ele>261.0</ele><time>2026-04-17T11:35:06.848Z</time></trkpt><trkpt lat="43.1631923" lon="12.2986602"><ele>261.0</ele><time>2026-04-17T11:35:07.903Z</time></trkpt><trkpt lat="43.1630325" lon="12.2988399"><ele>261.0</ele><time>2026-04-17T11:35:08.904Z</time></trkpt><trkpt lat="43.1628643" lon="12.299013"><ele>261.0</ele><time>2026-04-17T11:35:09.899Z</time></trkpt><trkpt lat="43.1627138" lon="12.2992012"><ele>261.0</ele><time>2026-04-17T11:35:10.896Z</time></trkpt><trkpt lat="43.1625595" lon="12.2993921"><ele>261.0</ele><time>2026-04-17T11:35:11.917Z</time></trkpt><trkpt lat="43.1624341" lon="12.2995824"><ele>261.0</ele><time>2026-04-17T11:35:12.922Z</time></trkpt><trkpt lat="43.1623287" lon="12.2997655"><ele>261.0</ele><time>2026-04-17T11:35:13.917Z</time></trkpt><trkpt lat="43.1622309" lon="12.2999416"><ele>261.0</ele><time>2026-04-17T11:35:14.918Z</time></trkpt><trkpt lat="43.1621428" lon="12.3000997"><ele>261.0</ele><time>2026-04-17T11:35:15.926Z</time></trkpt><trkpt lat="43.1620604" lon="12.3002355"><ele>261.0</ele><time>2026-04-17T11:35:16.917Z</time></trkpt><trkpt lat="43.1619936" lon="12.3003655"><ele>261.0</ele><time>2026-04-17T11:35:17.922Z</time></trkpt><trkpt lat="43.1619341" lon="12.3004672"><ele>261.0</ele><time>2026-04-17T11:35:18.921Z</time></trkpt><trkpt lat="43.1618789" lon="12.3005471"><ele>261.0</ele><time>2026-04-17T11:35:19.882Z</time></trkpt><trkpt lat="43.1618336" lon="12.3006095"><ele>261.0</ele><time>2026-04-17T11:35:20.918Z</time></trkpt><trkpt lat="43.161771" lon="12.3006312"><ele>261.0</ele><time>2026-04-17T11:35:22.921Z</time></trkpt><trkpt lat="43.1616906" lon="12.3007615"><ele>261.0</ele><time>2026-04-17T11:35:25.932Z</time></trkpt><trkpt lat="43.1616654" lon="12.3008884"><ele>262.3333333333333</ele><time>2026-04-17T11:35:26.924Z</time></trkpt><trkpt lat="43.1616463" lon="12.3010606"><ele>263.66666666666663</ele><time>2026-04-17T11:35:27.916Z</time></trkpt><trkpt lat="43.1616318" lon="12.3012908"><ele>265.0</ele><time>2026-04-17T11:35:28.911Z</time></trkpt><trkpt lat="43.1616073" lon="12.3015258"><ele>266.3333333333333</ele><time>2026-04-17T11:35:29.909Z</time></trkpt><trkpt lat="43.1615914" lon="12.3017535"><ele>267.6666666666667</ele><time>2026-04-17T11:35:30.882Z</time></trkpt><trkpt lat="43.1615749" lon="12.3019951"><ele>269.0</ele><time>2026-04-17T11:35:31.912Z</time></trkpt><trkpt lat="43.1615551" lon="12.3022352"><ele>270.33333333333337</ele><time>2026-04-17T11:35:32.91Z</time></trkpt><trkpt lat="43.1615431" lon="12.3024737"><ele>271.6666666666667</ele><time>2026-04-17T11:35:33.927Z</time></trkpt><trkpt lat="43.1615442" lon="12.3027098"><ele>273.0</ele><time>2026-04-17T11:35:34.905Z</time></trkpt><trkpt lat="43.1615666" lon="12.3029578"><ele>272.6666666666667</ele><time>2026-04-17T11:35:35.92Z</time></trkpt><trkpt lat="43.1615957" lon="12.3032047"><ele>272.33333333333337</ele><time>2026-04-17T11:35:36.917Z</time></trkpt><trkpt lat="43.1616229" lon="12.3034482"><ele>272.0</ele><time>2026-04-17T11:35:37.925Z</time></trkpt><trkpt lat="43.1616603" lon="12.3036896"><ele>270.6666666666667</ele><time>2026-04-17T11:35:38.937Z</time></trkpt><trkpt lat="43.1616944" lon="12.3039388"><ele>269.3333333333333</ele><time>2026-04-17T11:35:39.886Z</time></trkpt><trkpt lat="43.1617304" lon="12.3041896"><ele>268.0</ele><time>2026-04-17T11:35:40.929Z</time></trkpt><trkpt lat="43.1617636" lon="12.3044333"><ele>268.0</ele><time>2026-04-17T11:35:41.914Z</time></trkpt><trkpt lat="43.1617964" lon="12.3046855"><ele>268.0</ele><time>2026-04-17T11:35:42.913Z</time></trkpt><trkpt lat="43.1618347" lon="12.3049478"><ele>268.0</ele><time>2026-04-17T11:35:43.9Z</time></trkpt><trkpt lat="43.1618689" lon="12.3052192"><ele>265.66666666666663</ele><time>2026-04-17T11:35:44.906Z</time></trkpt><trkpt lat="43.1618972" lon="12.3054854"><ele>263.3333333333333</ele><time>2026-04-17T11:35:45.92Z</time></trkpt><trkpt lat="43.1619298" lon="12.305753"><ele>261.0</ele><time>2026-04-17T11:35:46.925Z</time></trkpt><trkpt lat="43.1619641" lon="12.3060105"><ele>259.6666666666667</ele><time>2026-04-17T11:35:47.92Z</time></trkpt><trkpt lat="43.1620055" lon="12.3062683"><ele>258.33333333333337</ele><time>2026-04-17T11:35:48.914Z</time></trkpt><trkpt lat="43.1620446" lon="12.3065229"><ele>257.0</ele><time>2026-04-17T11:35:49.93Z</time></trkpt><trkpt lat="43.162084" lon="12.3067699"><ele>257.0</ele><time>2026-04-17T11:35:50.896Z</time></trkpt><trkpt lat="43.1621237" lon="12.3070065"><ele>257.0</ele><time>2026-04-17T11:35:51.913Z</time></trkpt><trkpt lat="43.1621598" lon="12.3072475"><ele>257.0</ele><time>2026-04-17T11:35:52.912Z</time></trkpt><trkpt lat="43.1622004" lon="12.3074962"><ele>256.6666666666667</ele><time>2026-04-17T11:35:53.906Z</time></trkpt><trkpt lat="43.1622191" lon="12.3077352"><ele>256.3333333333333</ele><time>2026-04-17T11:35:54.873Z</time></trkpt><trkpt lat="43.1622265" lon="12.3079708"><ele>256.0</ele><time>2026-04-17T11:35:55.919Z</time></trkpt><trkpt lat="43.1622121" lon="12.3082125"><ele>257.0</ele><time>2026-04-17T11:35:56.908Z</time></trkpt><trkpt lat="43.1621661" lon="12.3084657"><ele>258.0</ele><time>2026-04-17T11:35:57.915Z</time></trkpt><trkpt lat="43.1621177" lon="12.3087111"><ele>259.0</ele><time>2026-04-17T11:35:58.934Z</time></trkpt><trkpt lat="43.1620761" lon="12.3089539"><ele>259.0</ele><time>2026-04-17T11:35:59.904Z</time></trkpt><trkpt lat="43.162041" lon="12.3091778"><ele>259.0</ele><time>2026-04-17T11:36:00.91Z</time></trkpt><trkpt lat="43.1619993" lon="12.3093906"><ele>259.0</ele><time>2026-04-17T11:36:01.9Z</time></trkpt><trkpt lat="43.1619359" lon="12.309587"><ele>259.0</ele><time>2026-04-17T11:36:02.925Z</time></trkpt><trkpt lat="43.1618565" lon="12.3097526"><ele>259.0</ele><time>2026-04-17T11:36:03.904Z</time></trkpt><trkpt lat="43.1617581" lon="12.3099062"><ele>259.0</ele><time>2026-04-17T11:36:04.899Z</time></trkpt><trkpt lat="43.1616456" lon="12.3100005"><ele>259.0</ele><time>2026-04-17T11:36:05.918Z</time></trkpt><trkpt lat="43.16152" lon="12.3100813"><ele>259.0</ele><time>2026-04-17T11:36:06.864Z</time></trkpt><trkpt lat="43.1613991" lon="12.3101145"><ele>259.0</ele><time>2026-04-17T11:36:07.89Z</time></trkpt><trkpt lat="43.1613073" lon="12.3101279"><ele>259.0</ele><time>2026-04-17T11:36:08.914Z</time></trkpt><trkpt lat="43.1612229" lon="12.3101353"><ele>259.0</ele><time>2026-04-17T11:36:09.913Z</time></trkpt><trkpt lat="43.1611534" lon="12.3101426"><ele>259.0</ele><time>2026-04-17T11:36:10.918Z</time></trkpt><trkpt lat="43.161046" lon="12.3101928"><ele>259.0</ele><time>2026-04-17T11:36:12.922Z</time></trkpt><trkpt lat="43.1610224" lon="12.3102793"><ele>259.0</ele><time>2026-04-17T11:36:13.924Z</time></trkpt><trkpt lat="43.1610109" lon="12.3104176"><ele>259.0</ele><time>2026-04-17T11:36:14.908Z</time></trkpt><trkpt lat="43.16102" lon="12.3105803"><ele>259.0</ele><time>2026-04-17T11:36:15.906Z</time></trkpt><trkpt lat="43.1610262" lon="12.3107593"><ele>259.0</ele><time>2026-04-17T11:36:16.901Z</time></trkpt><trkpt lat="43.1610315" lon="12.3109622"><ele>259.0</ele><time>2026-04-17T11:36:17.932Z</time></trkpt><trkpt lat="43.1610521" lon="12.3111768"><ele>259.0</ele><time>2026-04-17T11:36:18.93Z</time></trkpt><trkpt lat="43.1610963" lon="12.311397"><ele>259.0</ele><time>2026-04-17T11:36:19.918Z</time></trkpt><trkpt lat="43.1611519" lon="12.3116171"><ele>258.66666666666663</ele><time>2026-04-17T11:36:20.905Z</time></trkpt><trkpt lat="43.1612083" lon="12.3118559"><ele>258.3333333333333</ele><time>2026-04-17T11:36:21.915Z</time></trkpt><trkpt lat="43.1612639" lon="12.3121037"><ele>258.0</ele><time>2026-04-17T11:36:22.897Z</time></trkpt><trkpt lat="43.1613126" lon="12.3123639"><ele>258.0</ele><time>2026-04-17T11:36:23.924Z</time></trkpt><trkpt lat="43.1613666" lon="12.3126263"><ele>258.0</ele><time>2026-04-17T11:36:24.896Z</time></trkpt><trkpt lat="43.1614182" lon="12.3128847"><ele>258.0</ele><time>2026-04-17T11:36:25.891Z</time></trkpt><trkpt lat="43.1614683" lon="12.3131342"><ele>257.6666666666667</ele><time>2026-04-17T11:36:26.926Z</time></trkpt><trkpt lat="43.1615112" lon="12.3133826"><ele>257.33333333333337</ele><time>2026-04-17T11:36:27.908Z</time></trkpt><trkpt lat="43.1615418" lon="12.3136231"><ele>257.0</ele><time>2026-04-17T11:36:28.909Z</time></trkpt><trkpt lat="43.1615605" lon="12.3138577"><ele>257.6666666666667</ele><time>2026-04-17T11:36:29.921Z</time></trkpt><trkpt lat="43.1615504" lon="12.3141031"><ele>258.3333333333333</ele><time>2026-04-17T11:36:30.909Z</time></trkpt><trkpt lat="43.16152" lon="12.3143392"><ele>259.0</ele><time>2026-04-17T11:36:31.919Z</time></trkpt><trkpt lat="43.1614726" lon="12.3145785"><ele>260.3333333333333</ele><time>2026-04-17T11:36:32.924Z</time></trkpt><trkpt lat="43.1614258" lon="12.3148128"><ele>261.6666666666667</ele><time>2026-04-17T11:36:33.916Z</time></trkpt><trkpt lat="43.1613765" lon="12.3150465"><ele>263.0</ele><time>2026-04-17T11:36:34.913Z</time></trkpt><trkpt lat="43.1613375" lon="12.3152791"><ele>263.0</ele><time>2026-04-17T11:36:35.905Z</time></trkpt><trkpt lat="43.1613036" lon="12.3155237"><ele>263.0</ele><time>2026-04-17T11:36:36.911Z</time></trkpt><trkpt lat="43.1612798" lon="12.3157654"><ele>263.0</ele><time>2026-04-17T11:36:37.884Z</time></trkpt><trkpt lat="43.1612608" lon="12.315992"><ele>262.6666666666667</ele><time>2026-04-17T11:36:38.929Z</time></trkpt><trkpt lat="43.1612366" lon="12.3162167"><ele>262.3333333333333</ele><time>2026-04-17T11:36:39.919Z</time></trkpt><trkpt lat="43.1612166" lon="12.3164203"><ele>262.0</ele><time>2026-04-17T11:36:40.918Z</time></trkpt><trkpt lat="43.1611656" lon="12.3165955"><ele>262.0</ele><time>2026-04-17T11:36:41.914Z</time></trkpt><trkpt lat="43.1610859" lon="12.3167605"><ele>262.0</ele><time>2026-04-17T11:36:42.9Z</time></trkpt><trkpt lat="43.1609843" lon="12.3169385"><ele>262.0</ele><time>2026-04-17T11:36:43.886Z</time></trkpt><trkpt lat="43.1608799" lon="12.3171057"><ele>262.0</ele><time>2026-04-17T11:36:44.911Z</time></trkpt><trkpt lat="43.1607807" lon="12.3172832"><ele>262.0</ele><time>2026-04-17T11:36:45.934Z</time></trkpt><trkpt lat="43.1606802" lon="12.3174533"><ele>262.0</ele><time>2026-04-17T11:36:46.939Z</time></trkpt><trkpt lat="43.1605929" lon="12.317625"><ele>261.75</ele><time>2026-04-17T11:36:47.919Z</time></trkpt><trkpt lat="43.1605244" lon="12.3177863"><ele>261.5</ele><time>2026-04-17T11:36:48.937Z</time></trkpt><trkpt lat="43.1604756" lon="12.3179452"><ele>261.25</ele><time>2026-04-17T11:36:49.913Z</time></trkpt><trkpt lat="43.1604278" lon="12.318094"><ele>261.0</ele><time>2026-04-17T11:36:50.863Z</time></trkpt><trkpt lat="43.1603726" lon="12.3182255"><ele>261.8</ele><time>2026-04-17T11:36:51.902Z</time></trkpt><trkpt lat="43.1603155" lon="12.3183499"><ele>262.6</ele><time>2026-04-17T11:36:52.901Z</time></trkpt><trkpt lat="43.1602514" lon="12.3184614"><ele>263.4</ele><time>2026-04-17T11:36:53.904Z</time></trkpt><trkpt lat="43.1601786" lon="12.3185676"><ele>264.2</ele><time>2026-04-17T11:36:54.912Z</time></trkpt><trkpt lat="43.1600858" lon="12.3186725"><ele>265.0</ele><time>2026-04-17T11:36:55.921Z</time></trkpt><trkpt lat="43.1599824" lon="12.3187667"><ele>265.0</ele><time>2026-04-17T11:36:56.93Z</time></trkpt><trkpt lat="43.1598832" lon="12.3188529"><ele>265.0</ele><time>2026-04-17T11:36:57.92Z</time></trkpt><trkpt lat="43.1597841" lon="12.318946"><ele>265.0</ele><time>2026-04-17T11:36:58.871Z</time></trkpt><trkpt lat="43.1596924" lon="12.3190292"><ele>265.0</ele><time>2026-04-17T11:36:59.907Z</time></trkpt><trkpt lat="43.1596038" lon="12.319134"><ele>267.0</ele><time>2026-04-17T11:37:00.924Z</time></trkpt><trkpt lat="43.1595282" lon="12.3192684"><ele>269.0</ele><time>2026-04-17T11:37:01.922Z</time></trkpt><trkpt lat="43.159455" lon="12.3194042"><ele>271.0</ele><time>2026-04-17T11:37:02.918Z</time></trkpt><trkpt lat="43.1593901" lon="12.319539"><ele>273.0</ele><time>2026-04-17T11:37:03.924Z</time></trkpt><trkpt lat="43.1593323" lon="12.3196932"><ele>272.0</ele><time>2026-04-17T11:37:04.928Z</time></trkpt><trkpt lat="43.1592853" lon="12.3198482"><ele>271.0</ele><time>2026-04-17T11:37:05.883Z</time></trkpt><trkpt lat="43.1592578" lon="12.3200118"><ele>270.0</ele><time>2026-04-17T11:37:06.849Z</time></trkpt><trkpt lat="43.159248" lon="12.3201949"><ele>269.0</ele><time>2026-04-17T11:37:07.915Z</time></trkpt><trkpt lat="43.1592581" lon="12.3203795"><ele>269.0</ele><time>2026-04-17T11:37:08.905Z</time></trkpt><trkpt lat="43.1592901" lon="12.3205606"><ele>269.0</ele><time>2026-04-17T11:37:09.898Z</time></trkpt><trkpt lat="43.1593202" lon="12.3207393"><ele>269.0</ele><time>2026-04-17T11:37:10.915Z</time></trkpt><trkpt lat="43.1593512" lon="12.3209399"><ele>269.0</ele><time>2026-04-17T11:37:11.879Z</time></trkpt><trkpt lat="43.1593764" lon="12.3211359"><ele>269.75</ele><time>2026-04-17T11:37:12.915Z</time></trkpt><trkpt lat="43.1594012" lon="12.3213345"><ele>270.5</ele><time>2026-04-17T11:37:13.912Z</time></trkpt><trkpt lat="43.1594191" lon="12.3215229"><ele>271.25</ele><time>2026-04-17T11:37:14.927Z</time></trkpt><trkpt lat="43.1594375" lon="12.3217137"><ele>272.0</ele><time>2026-04-17T11:37:15.905Z</time></trkpt><trkpt lat="43.1594531" lon="12.3219038"><ele>274.5</ele><time>2026-04-17T11:37:16.901Z</time></trkpt><trkpt lat="43.1594598" lon="12.3220976"><ele>277.0</ele><time>2026-04-17T11:37:17.887Z</time></trkpt><trkpt lat="43.1594674" lon="12.3222838"><ele>279.5</ele><time>2026-04-17T11:37:18.866Z</time></trkpt><trkpt lat="43.1594782" lon="12.3224708"><ele>282.0</ele><time>2026-04-17T11:37:19.903Z</time></trkpt><trkpt lat="43.159491" lon="12.3226629"><ele>282.0</ele><time>2026-04-17T11:37:20.91Z</time></trkpt><trkpt lat="43.1595031" lon="12.322855"><ele>282.0</ele><time>2026-04-17T11:37:21.897Z</time></trkpt><trkpt lat="43.1595102" lon="12.3230426"><ele>282.0</ele><time>2026-04-17T11:37:22.907Z</time></trkpt><trkpt lat="43.159515" lon="12.3232265"><ele>282.0</ele><time>2026-04-17T11:37:23.899Z</time></trkpt><trkpt lat="43.1595199" lon="12.3234133"><ele>282.0</ele><time>2026-04-17T11:37:24.911Z</time></trkpt><trkpt lat="43.1595043" lon="12.3235998"><ele>282.0</ele><time>2026-04-17T11:37:25.901Z</time></trkpt><trkpt lat="43.1594965" lon="12.3237785"><ele>282.0</ele><time>2026-04-17T11:37:26.912Z</time></trkpt><trkpt lat="43.1594991" lon="12.3239435"><ele>282.0</ele><time>2026-04-17T11:37:27.908Z</time></trkpt><trkpt lat="43.1594996" lon="12.3241117"><ele>280.4</ele><time>2026-04-17T11:37:28.912Z</time></trkpt><trkpt lat="43.1594886" lon="12.3242758"><ele>278.79999999999995</ele><time>2026-04-17T11:37:29.906Z</time></trkpt><trkpt lat="43.1594768" lon="12.3244296"><ele>277.2</ele><time>2026-04-17T11:37:30.896Z</time></trkpt><trkpt lat="43.1594722" lon="12.3245802"><ele>275.59999999999997</ele><time>2026-04-17T11:37:31.899Z</time></trkpt><trkpt lat="43.1594686" lon="12.3247103"><ele>274.0</ele><time>2026-04-17T11:37:32.903Z</time></trkpt><trkpt lat="43.1594507" lon="12.3248269"><ele>274.0</ele><time>2026-04-17T11:37:33.924Z</time></trkpt><trkpt lat="43.1594189" lon="12.3249114"><ele>274.0</ele><time>2026-04-17T11:37:34.885Z</time></trkpt><trkpt lat="43.1593444" lon="12.3249448"><ele>274.0</ele><time>2026-04-17T11:37:35.912Z</time></trkpt><trkpt lat="43.1592564" lon="12.3249115"><ele>274.0</ele><time>2026-04-17T11:37:36.922Z</time></trkpt><trkpt lat="43.1591722" lon="12.3248111"><ele>274.0</ele><time>2026-04-17T11:37:37.904Z</time></trkpt><trkpt lat="43.1591025" lon="12.3246798"><ele>276.0</ele><time>2026-04-17T11:37:38.905Z</time></trkpt><trkpt lat="43.1590277" lon="12.3245484"><ele>278.0</ele><time>2026-04-17T11:37:39.915Z</time></trkpt><trkpt lat="43.1589454" lon="12.3244097"><ele>280.0</ele><time>2026-04-17T11:37:40.916Z</time></trkpt><trkpt lat="43.1588628" lon="12.3242662"><ele>282.0</ele><time>2026-04-17T11:37:41.915Z</time></trkpt><trkpt lat="43.1587888" lon="12.3241298"><ele>282.0</ele><time>2026-04-17T11:37:42.918Z</time></trkpt><trkpt lat="43.1587537" lon="12.3239849"><ele>282.0</ele><time>2026-04-17T11:37:43.898Z</time></trkpt><trkpt lat="43.158761" lon="12.3238448"><ele>282.0</ele><time>2026-04-17T11:37:44.903Z</time></trkpt><trkpt lat="43.1588058" lon="12.3237082"><ele>282.0</ele><time>2026-04-17T11:37:45.902Z</time></trkpt><trkpt lat="43.1588774" lon="12.3235972"><ele>282.0</ele><time>2026-04-17T11:37:46.911Z</time></trkpt><trkpt lat="43.1589586" lon="12.3234791"><ele>282.0</ele><time>2026-04-17T11:37:47.886Z</time></trkpt><trkpt lat="43.1590332" lon="12.3233368"><ele>282.0</ele><time>2026-04-17T11:37:48.901Z</time></trkpt><trkpt lat="43.1590984" lon="12.3231801"><ele>282.0</ele><time>2026-04-17T11:37:49.915Z</time></trkpt><trkpt lat="43.1591222" lon="12.3230218"><ele>282.0</ele><time>2026-04-17T11:37:50.894Z</time></trkpt><trkpt lat="43.1591315" lon="12.3228378"><ele>284.6666666666667</ele><time>2026-04-17T11:37:51.902Z</time></trkpt><trkpt lat="43.1590983" lon="12.3226369"><ele>287.33333333333337</ele><time>2026-04-17T11:37:52.895Z</time></trkpt><trkpt lat="43.1590682" lon="12.3224237"><ele>290.0</ele><time>2026-04-17T11:37:53.905Z</time></trkpt><trkpt lat="43.1590301" lon="12.322205"><ele>297.75</ele><time>2026-04-17T11:37:54.893Z</time></trkpt><trkpt lat="43.1589995" lon="12.3220125"><ele>305.5</ele><time>2026-04-17T11:37:55.893Z</time></trkpt><trkpt lat="43.1589556" lon="12.3218173"><ele>313.25</ele><time>2026-04-17T11:37:56.904Z</time></trkpt><trkpt lat="43.1588819" lon="12.3216324"><ele>321.0</ele><time>2026-04-17T11:37:57.912Z</time></trkpt><trkpt lat="43.1587786" lon="12.3214555"><ele>317.25</ele><time>2026-04-17T11:37:58.921Z</time></trkpt><trkpt lat="43.1586645" lon="12.3212855"><ele>313.5</ele><time>2026-04-17T11:37:59.92Z</time></trkpt><trkpt lat="43.1585698" lon="12.3211463"><ele>309.75</ele><time>2026-04-17T11:38:00.9Z</time></trkpt><trkpt lat="43.1584813" lon="12.3210492"><ele>306.0</ele><time>2026-04-17T11:38:01.913Z</time></trkpt><trkpt lat="43.1583717" lon="12.3209961"><ele>306.0</ele><time>2026-04-17T11:38:02.907Z</time></trkpt><trkpt lat="43.1582431" lon="12.3209841"><ele>306.0</ele><time>2026-04-17T11:38:03.897Z</time></trkpt><trkpt lat="43.1581107" lon="12.3209888"><ele>306.0</ele><time>2026-04-17T11:38:04.905Z</time></trkpt><trkpt lat="43.1579814" lon="12.3209833"><ele>306.0</ele><time>2026-04-17T11:38:05.901Z</time></trkpt><trkpt lat="43.1578604" lon="12.3209647"><ele>309.6</ele><time>2026-04-17T11:38:06.893Z</time></trkpt><trkpt lat="43.1577334" lon="12.3209469"><ele>313.20000000000005</ele><time>2026-04-17T11:38:07.915Z</time></trkpt><trkpt lat="43.1576216" lon="12.3209149"><ele>316.79999999999995</ele><time>2026-04-17T11:38:08.915Z</time></trkpt><trkpt lat="43.1575587" lon="12.3208465"><ele>320.4</ele><time>2026-04-17T11:38:09.894Z</time></trkpt><trkpt lat="43.1575385" lon="12.320762"><ele>324.0</ele><time>2026-04-17T11:38:10.904Z</time></trkpt><trkpt lat="43.1575633" lon="12.3206492"><ele>324.4</ele><time>2026-04-17T11:38:11.898Z</time></trkpt><trkpt lat="43.1576037" lon="12.3204997"><ele>324.79999999999995</ele><time>2026-04-17T11:38:12.918Z</time></trkpt><trkpt lat="43.1576585" lon="12.3203695"><ele>325.20000000000005</ele><time>2026-04-17T11:38:13.899Z</time></trkpt><trkpt lat="43.1577203" lon="12.3202567"><ele>325.6</ele><time>2026-04-17T11:38:14.911Z</time></trkpt><trkpt lat="43.1577481" lon="12.3201542"><ele>326.0</ele><time>2026-04-17T11:38:15.908Z</time></trkpt><trkpt lat="43.1577414" lon="12.3200442"><ele>326.0</ele><time>2026-04-17T11:38:16.898Z</time></trkpt><trkpt lat="43.1577123" lon="12.3199546"><ele>326.0</ele><time>2026-04-17T11:38:17.896Z</time></trkpt><trkpt lat="43.1576561" lon="12.3198261"><ele>326.0</ele><time>2026-04-17T11:38:19.906Z</time></trkpt><trkpt lat="43.1575546" lon="12.3198288"><ele>326.0</ele><time>2026-04-17T11:38:21.863Z</time></trkpt><trkpt lat="43.1575084" lon="12.319891"><ele>326.0</ele><time>2026-04-17T11:38:22.908Z</time></trkpt><trkpt lat="43.1574519" lon="12.3199929"><ele>326.0</ele><time>2026-04-17T11:38:23.903Z</time></trkpt><trkpt lat="43.1573878" lon="12.3201033"><ele>331.20000000000005</ele><time>2026-04-17T11:38:24.917Z</time></trkpt><trkpt lat="43.1573175" lon="12.3202246"><ele>336.40000000000003</ele><time>2026-04-17T11:38:25.911Z</time></trkpt><trkpt lat="43.1572493" lon="12.3203209"><ele>341.6</ele><time>2026-04-17T11:38:26.912Z</time></trkpt><trkpt lat="43.1571966" lon="12.3203745"><ele>346.8</ele><time>2026-04-17T11:38:27.901Z</time></trkpt><trkpt lat="43.1570999" lon="12.3203381"><ele>352.0</ele><time>2026-04-17T11:38:29.916Z</time></trkpt><trkpt lat="43.1570576" lon="12.3202019"><ele>352.0</ele><time>2026-04-17T11:38:31.92Z</time></trkpt><trkpt lat="43.157037" lon="12.3200983"><ele>352.0</ele><time>2026-04-17T11:38:32.914Z</time></trkpt><trkpt lat="43.1570194" lon="12.3199748"><ele>352.0</ele><time>2026-04-17T11:38:33.899Z</time></trkpt><trkpt lat="43.157" lon="12.3198377"><ele>352.0</ele><time>2026-04-17T11:38:34.914Z</time></trkpt><trkpt lat="43.1569774" lon="12.319682"><ele>352.0</ele><time>2026-04-17T11:38:35.901Z</time></trkpt><trkpt lat="43.1569605" lon="12.3195023"><ele>353.0</ele><time>2026-04-17T11:38:36.919Z</time></trkpt><trkpt lat="43.1569438" lon="12.3193222"><ele>354.0</ele><time>2026-04-17T11:38:37.904Z</time></trkpt><trkpt lat="43.1569225" lon="12.3191357"><ele>355.0</ele><time>2026-04-17T11:38:38.921Z</time></trkpt><trkpt lat="43.1569018" lon="12.3189705"><ele>356.0</ele><time>2026-04-17T11:38:39.905Z</time></trkpt><trkpt lat="43.1568771" lon="12.3188138"><ele>356.0</ele><time>2026-04-17T11:38:40.914Z</time></trkpt><trkpt lat="43.1568686" lon="12.3186653"><ele>356.0</ele><time>2026-04-17T11:38:41.901Z</time></trkpt><trkpt lat="43.1568515" lon="12.3185154"><ele>356.0</ele><time>2026-04-17T11:38:42.903Z</time></trkpt><trkpt lat="43.1568112" lon="12.3183828"><ele>356.0</ele><time>2026-04-17T11:38:43.894Z</time></trkpt><trkpt lat="43.1567485" lon="12.3182558"><ele>356.0</ele><time>2026-04-17T11:38:44.922Z</time></trkpt><trkpt lat="43.1566789" lon="12.3181357"><ele>354.8</ele><time>2026-04-17T11:38:45.908Z</time></trkpt><trkpt lat="43.1566108" lon="12.318028"><ele>353.6</ele><time>2026-04-17T11:38:46.882Z</time></trkpt><trkpt lat="43.1565346" lon="12.3179249"><ele>352.4</ele><time>2026-04-17T11:38:47.912Z</time></trkpt><trkpt lat="43.1564587" lon="12.3178252"><ele>351.2</ele><time>2026-04-17T11:38:48.922Z</time></trkpt><trkpt lat="43.156382" lon="12.317712"><ele>350.0</ele><time>2026-04-17T11:38:49.915Z</time></trkpt><trkpt lat="43.1563191" lon="12.3176006"><ele>353.5</ele><time>2026-04-17T11:38:50.907Z</time></trkpt><trkpt lat="43.1562617" lon="12.3174749"><ele>357.0</ele><time>2026-04-17T11:38:51.906Z</time></trkpt><trkpt lat="43.1561896" lon="12.317351"><ele>360.5</ele><time>2026-04-17T11:38:52.917Z</time></trkpt><trkpt lat="43.1561147" lon="12.3172178"><ele>364.0</ele><time>2026-04-17T11:38:53.914Z</time></trkpt><trkpt lat="43.1560337" lon="12.3170967"><ele>364.0</ele><time>2026-04-17T11:38:54.915Z</time></trkpt><trkpt lat="43.1559441" lon="12.3169847"><ele>364.0</ele><time>2026-04-17T11:38:55.91Z</time></trkpt><trkpt lat="43.1558691" lon="12.316878"><ele>364.0</ele><time>2026-04-17T11:38:56.921Z</time></trkpt><trkpt lat="43.1557994" lon="12.3167885"><ele>364.0</ele><time>2026-04-17T11:38:57.901Z</time></trkpt><trkpt lat="43.1557296" lon="12.3167113"><ele>364.0</ele><time>2026-04-17T11:38:58.918Z</time></trkpt><trkpt lat="43.1556557" lon="12.316646"><ele>365.4</ele><time>2026-04-17T11:38:59.906Z</time></trkpt><trkpt lat="43.1555663" lon="12.3166316"><ele>366.79999999999995</ele><time>2026-04-17T11:39:00.932Z</time></trkpt><trkpt lat="43.155477" lon="12.3166228"><ele>368.20000000000005</ele><time>2026-04-17T11:39:01.926Z</time></trkpt><trkpt lat="43.1553802" lon="12.3166339"><ele>369.6</ele><time>2026-04-17T11:39:02.908Z</time></trkpt><trkpt lat="43.1552789" lon="12.3166518"><ele>371.0</ele><time>2026-04-17T11:39:03.935Z</time></trkpt><trkpt lat="43.1551784" lon="12.3166717"><ele>371.0</ele><time>2026-04-17T11:39:04.91Z</time></trkpt><trkpt lat="43.155074" lon="12.3166947"><ele>371.0</ele><time>2026-04-17T11:39:05.92Z</time></trkpt><trkpt lat="43.1549753" lon="12.3167263"><ele>371.0</ele><time>2026-04-17T11:39:06.889Z</time></trkpt><trkpt lat="43.1548773" lon="12.316767"><ele>371.0</ele><time>2026-04-17T11:39:07.925Z</time></trkpt><trkpt lat="43.1547914" lon="12.3168162"><ele>371.0</ele><time>2026-04-17T11:39:08.921Z</time></trkpt><trkpt lat="43.1547103" lon="12.3168619"><ele>373.1666666666667</ele><time>2026-04-17T11:39:09.921Z</time></trkpt><trkpt lat="43.1546383" lon="12.316907"><ele>375.33333333333337</ele><time>2026-04-17T11:39:10.925Z</time></trkpt><trkpt lat="43.1545819" lon="12.3169563"><ele>377.5</ele><time>2026-04-17T11:39:11.922Z</time></trkpt><trkpt lat="43.154479" lon="12.3170264"><ele>379.6666666666667</ele><time>2026-04-17T11:39:13.881Z</time></trkpt><trkpt lat="43.1543954" lon="12.3170046"><ele>381.8333333333333</ele><time>2026-04-17T11:39:16.915Z</time></trkpt><trkpt lat="43.1543727" lon="12.3168734"><ele>384.0</ele><time>2026-04-17T11:39:18.924Z</time></trkpt><trkpt lat="43.1543669" lon="12.3167687"><ele>384.0</ele><time>2026-04-17T11:39:19.899Z</time></trkpt><trkpt lat="43.1543589" lon="12.3165965"><ele>384.0</ele><time>2026-04-17T11:39:21.918Z</time></trkpt><trkpt lat="43.1543561" lon="12.3164999"><ele>384.0</ele><time>2026-04-17T11:39:22.931Z</time></trkpt><trkpt lat="43.1543439" lon="12.3164108"><ele>384.0</ele><time>2026-04-17T11:39:23.918Z</time></trkpt><trkpt lat="43.1542924" lon="12.316257"><ele>384.0</ele><time>2026-04-17T11:39:25.913Z</time></trkpt><trkpt lat="43.1542606" lon="12.3161707"><ele>382.2</ele><time>2026-04-17T11:39:26.944Z</time></trkpt><trkpt lat="43.1542239" lon="12.3160785"><ele>380.4</ele><time>2026-04-17T11:39:27.926Z</time></trkpt><trkpt lat="43.1541731" lon="12.315984"><ele>378.6</ele><time>2026-04-17T11:39:28.905Z</time></trkpt><trkpt lat="43.1540975" lon="12.3158904"><ele>376.8</ele><time>2026-04-17T11:39:29.913Z</time></trkpt><trkpt lat="43.154016" lon="12.3158114"><ele>375.0</ele><time>2026-04-17T11:39:30.905Z</time></trkpt><trkpt lat="43.1539249" lon="12.3157233"><ele>376.6666666666667</ele><time>2026-04-17T11:39:31.914Z</time></trkpt><trkpt lat="43.1538431" lon="12.3156532"><ele>378.33333333333337</ele><time>2026-04-17T11:39:32.916Z</time></trkpt><trkpt lat="43.1537676" lon="12.3155904"><ele>380.0</ele><time>2026-04-17T11:39:33.906Z</time></trkpt><trkpt lat="43.1536928" lon="12.3155454"><ele>381.6666666666667</ele><time>2026-04-17T11:39:34.922Z</time></trkpt><trkpt lat="43.1536106" lon="12.3155057"><ele>383.33333333333337</ele><time>2026-04-17T11:39:35.911Z</time></trkpt><trkpt lat="43.1535255" lon="12.3154826"><ele>385.0</ele><time>2026-04-17T11:39:36.906Z</time></trkpt><trkpt lat="43.1534406" lon="12.3154569"><ele>385.00000000000006</ele><time>2026-04-17T11:39:37.867Z</time></trkpt><trkpt lat="43.1533627" lon="12.3154463"><ele>385.0</ele><time>2026-04-17T11:39:38.908Z</time></trkpt><trkpt lat="43.1532747" lon="12.315438"><ele>385.0</ele><time>2026-04-17T11:39:39.906Z</time></trkpt><trkpt lat="43.1531853" lon="12.3154288"><ele>385.0</ele><time>2026-04-17T11:39:40.927Z</time></trkpt><trkpt lat="43.1531092" lon="12.3153934"><ele>385.00000000000006</ele><time>2026-04-17T11:39:41.917Z</time></trkpt><trkpt lat="43.1530452" lon="12.315312"><ele>385.0</ele><time>2026-04-17T11:39:42.924Z</time></trkpt><trkpt lat="43.1529968" lon="12.3152112"><ele>388.00000000000006</ele><time>2026-04-17T11:39:43.892Z</time></trkpt><trkpt lat="43.1529562" lon="12.3151133"><ele>391.0</ele><time>2026-04-17T11:39:44.904Z</time></trkpt><trkpt lat="43.1529093" lon="12.3150288"><ele>394.0</ele><time>2026-04-17T11:39:45.908Z</time></trkpt><trkpt lat="43.1528604" lon="12.3149319"><ele>397.0</ele><time>2026-04-17T11:39:46.913Z</time></trkpt><trkpt lat="43.152812" lon="12.3148484"><ele>400.00000000000006</ele><time>2026-04-17T11:39:47.883Z</time></trkpt><trkpt lat="43.1527617" lon="12.3147747"><ele>403.0</ele><time>2026-04-17T11:39:48.91Z</time></trkpt><trkpt lat="43.1527176" lon="12.3147015"><ele>403.00000000000006</ele><time>2026-04-17T11:39:49.913Z</time></trkpt><trkpt lat="43.1526674" lon="12.314632"><ele>403.0</ele><time>2026-04-17T11:39:50.901Z</time></trkpt><trkpt lat="43.1526122" lon="12.3145559"><ele>403.0</ele><time>2026-04-17T11:39:51.921Z</time></trkpt><trkpt lat="43.1525329" lon="12.314494"><ele>403.0</ele><time>2026-04-17T11:39:52.911Z</time></trkpt><trkpt lat="43.1524534" lon="12.3144362"><ele>403.00000000000006</ele><time>2026-04-17T11:39:53.897Z</time></trkpt><trkpt lat="43.1523815" lon="12.3143757"><ele>403.0</ele><time>2026-04-17T11:39:54.924Z</time></trkpt><trkpt lat="43.1523112" lon="12.314309"><ele>403.79999999999995</ele><time>2026-04-17T11:39:55.879Z</time></trkpt><trkpt lat="43.1522472" lon="12.3142275"><ele>404.6</ele><time>2026-04-17T11:39:56.92Z</time></trkpt><trkpt lat="43.1521855" lon="12.3141397"><ele>405.4</ele><time>2026-04-17T11:39:57.906Z</time></trkpt><trkpt lat="43.1521198" lon="12.3140487"><ele>406.20000000000005</ele><time>2026-04-17T11:39:58.892Z</time></trkpt><trkpt lat="43.1520586" lon="12.3139655"><ele>407.0</ele><time>2026-04-17T11:39:59.895Z</time></trkpt><trkpt lat="43.1519811" lon="12.3138833"><ele>407.0</ele><time>2026-04-17T11:40:00.85Z</time></trkpt><trkpt lat="43.1519009" lon="12.3138059"><ele>407.0</ele><time>2026-04-17T11:40:01.841Z</time></trkpt><trkpt lat="43.15182" lon="12.3137368"><ele>407.0</ele><time>2026-04-17T11:40:02.848Z</time></trkpt><trkpt lat="43.1517432" lon="12.3136638"><ele>407.0</ele><time>2026-04-17T11:40:03.868Z</time></trkpt><trkpt lat="43.1516545" lon="12.3135755"><ele>407.0</ele><time>2026-04-17T11:40:04.897Z</time></trkpt><trkpt lat="43.1515749" lon="12.313504"><ele>408.99999999999994</ele><time>2026-04-17T11:40:05.844Z</time></trkpt><trkpt lat="43.1515017" lon="12.3134295"><ele>411.0</ele><time>2026-04-17T11:40:06.857Z</time></trkpt><trkpt lat="43.1514361" lon="12.3133625"><ele>413.0</ele><time>2026-04-17T11:40:07.897Z</time></trkpt><trkpt lat="43.1513842" lon="12.3133022"><ele>415.0</ele><time>2026-04-17T11:40:08.877Z</time></trkpt><trkpt lat="43.1512918" lon="12.3131768"><ele>416.99999999999994</ele><time>2026-04-17T11:40:10.905Z</time></trkpt><trkpt lat="43.1512291" lon="12.3131142"><ele>419.0</ele><time>2026-04-17T11:40:11.925Z</time></trkpt><trkpt lat="43.1511637" lon="12.313036"><ele>418.99999999999994</ele><time>2026-04-17T11:40:12.922Z</time></trkpt><trkpt lat="43.1510954" lon="12.3129654"><ele>419.0</ele><time>2026-04-17T11:40:13.904Z</time></trkpt><trkpt lat="43.1510312" lon="12.3128758"><ele>419.0</ele><time>2026-04-17T11:40:14.898Z</time></trkpt><trkpt lat="43.1509665" lon="12.3127886"><ele>419.0</ele><time>2026-04-17T11:40:15.901Z</time></trkpt><trkpt lat="43.1509047" lon="12.3127047"><ele>418.99999999999994</ele><time>2026-04-17T11:40:16.908Z</time></trkpt><trkpt lat="43.1508449" lon="12.3126223"><ele>419.0</ele><time>2026-04-17T11:40:17.9Z</time></trkpt><trkpt lat="43.1507793" lon="12.312533"><ele>422.6</ele><time>2026-04-17T11:40:18.911Z</time></trkpt><trkpt lat="43.1507075" lon="12.312432"><ele>426.2</ele><time>2026-04-17T11:40:19.916Z</time></trkpt><trkpt lat="43.1506383" lon="12.3123264"><ele>429.80000000000007</ele><time>2026-04-17T11:40:20.906Z</time></trkpt><trkpt lat="43.1505786" lon="12.3122382"><ele>433.40000000000003</ele><time>2026-04-17T11:40:21.932Z</time></trkpt><trkpt lat="43.1505238" lon="12.3121367"><ele>437.0</ele><time>2026-04-17T11:40:22.916Z</time></trkpt><trkpt lat="43.1504712" lon="12.3120677"><ele>436.99999999999994</ele><time>2026-04-17T11:40:23.918Z</time></trkpt><trkpt lat="43.1504254" lon="12.3119943"><ele>437.0</ele><time>2026-04-17T11:40:24.849Z</time></trkpt><trkpt lat="43.1503801" lon="12.3119172"><ele>437.0</ele><time>2026-04-17T11:40:25.916Z</time></trkpt><trkpt lat="43.1503364" lon="12.3118432"><ele>437.0</ele><time>2026-04-17T11:40:26.891Z</time></trkpt><trkpt lat="43.1503061" lon="12.3117608"><ele>436.99999999999994</ele><time>2026-04-17T11:40:27.896Z</time></trkpt><trkpt lat="43.1502923" lon="12.3116742"><ele>437.0</ele><time>2026-04-17T11:40:28.897Z</time></trkpt><trkpt lat="43.1502459" lon="12.3115226"><ele>437.0</ele><time>2026-04-17T11:40:30.883Z</time></trkpt><trkpt lat="43.1501614" lon="12.3114178"><ele>437.00000000000006</ele><time>2026-04-17T11:40:32.932Z</time></trkpt><trkpt lat="43.1500602" lon="12.3113681"><ele>437.00000000000006</ele><time>2026-04-17T11:40:34.902Z</time></trkpt><trkpt lat="43.149965" lon="12.3113447"><ele>437.0</ele><time>2026-04-17T11:40:36.906Z</time></trkpt><trkpt lat="43.1498554" lon="12.3113644"><ele>437.0</ele><time>2026-04-17T11:40:38.916Z</time></trkpt><trkpt lat="43.1497885" lon="12.3113683"><ele>436.49999999999994</ele><time>2026-04-17T11:40:39.897Z</time></trkpt><trkpt lat="43.1497218" lon="12.3113814"><ele>436.0</ele><time>2026-04-17T11:40:40.899Z</time></trkpt><trkpt lat="43.1496513" lon="12.3113965"><ele>435.5</ele><time>2026-04-17T11:40:41.891Z</time></trkpt><trkpt lat="43.1495792" lon="12.3114128"><ele>435.0</ele><time>2026-04-17T11:40:42.913Z</time></trkpt><trkpt lat="43.1495015" lon="12.3114218"><ele>434.49999999999994</ele><time>2026-04-17T11:40:43.931Z</time></trkpt><trkpt lat="43.1494167" lon="12.3114417"><ele>434.0</ele><time>2026-04-17T11:40:44.92Z</time></trkpt><trkpt lat="43.1493359" lon="12.3114706"><ele>435.66666666666663</ele><time>2026-04-17T11:40:45.933Z</time></trkpt><trkpt lat="43.1492598" lon="12.3114944"><ele>437.3333333333333</ele><time>2026-04-17T11:40:46.89Z</time></trkpt><trkpt lat="43.149189" lon="12.3115115"><ele>439.0</ele><time>2026-04-17T11:40:47.866Z</time></trkpt><trkpt lat="43.1491133" lon="12.3115222"><ele>440.66666666666663</ele><time>2026-04-17T11:40:48.905Z</time></trkpt><trkpt lat="43.1490307" lon="12.3115425"><ele>442.3333333333333</ele><time>2026-04-17T11:40:49.911Z</time></trkpt><trkpt lat="43.1489626" lon="12.3115781"><ele>444.0</ele><time>2026-04-17T11:40:50.894Z</time></trkpt><trkpt lat="43.1488917" lon="12.311614"><ele>444.0</ele><time>2026-04-17T11:40:51.898Z</time></trkpt><trkpt lat="43.1488159" lon="12.3116456"><ele>444.0</ele><time>2026-04-17T11:40:52.931Z</time></trkpt><trkpt lat="43.1487281" lon="12.3116842"><ele>444.0</ele><time>2026-04-17T11:40:53.92Z</time></trkpt><trkpt lat="43.1486378" lon="12.3117172"><ele>444.0</ele><time>2026-04-17T11:40:54.909Z</time></trkpt><trkpt lat="43.1485608" lon="12.3117513"><ele>444.0</ele><time>2026-04-17T11:40:55.912Z</time></trkpt><trkpt lat="43.1484527" lon="12.3118135"><ele>444.0</ele><time>2026-04-17T11:40:57.865Z</time></trkpt><trkpt lat="43.1484205" lon="12.31192"><ele>444.0</ele><time>2026-04-17T11:40:59.909Z</time></trkpt><trkpt lat="43.1484929" lon="12.3120203"><ele>444.0</ele><time>2026-04-17T11:41:02.859Z</time></trkpt><trkpt lat="43.1485803" lon="12.3120872"><ele>444.0</ele><time>2026-04-17T11:41:04.911Z</time></trkpt><trkpt lat="43.1485865" lon="12.3122058"><ele>444.0</ele><time>2026-04-17T11:41:07.864Z</time></trkpt><trkpt lat="43.148532" lon="12.312287"><ele>446.79999999999995</ele><time>2026-04-17T11:41:09.916Z</time></trkpt><trkpt lat="43.1484882" lon="12.3124109"><ele>449.59999999999997</ele><time>2026-04-17T11:41:11.943Z</time></trkpt><trkpt lat="43.1484517" lon="12.3125531"><ele>452.4</ele><time>2026-04-17T11:41:13.906Z</time></trkpt><trkpt lat="43.1484109" lon="12.3126967"><ele>455.2</ele><time>2026-04-17T11:41:15.932Z</time></trkpt><trkpt lat="43.148344" lon="12.3128174"><ele>458.0</ele><time>2026-04-17T11:41:17.906Z</time></trkpt><trkpt lat="43.1482542" lon="12.3129091"><ele>456.79999999999995</ele><time>2026-04-17T11:41:19.909Z</time></trkpt><trkpt lat="43.1481925" lon="12.3130053"><ele>455.59999999999997</ele><time>2026-04-17T11:41:21.919Z</time></trkpt><trkpt lat="43.1481432" lon="12.313077"><ele>454.40000000000003</ele><time>2026-04-17T11:41:23.859Z</time></trkpt><trkpt lat="43.1480952" lon="12.3131493"><ele>453.20000000000005</ele><time>2026-04-17T11:41:25.907Z</time></trkpt><trkpt lat="43.1480732" lon="12.3132815"><ele>452.0</ele><time>2026-04-17T11:41:27.928Z</time></trkpt><trkpt lat="43.1480848" lon="12.313445"><ele>451.99999999999994</ele><time>2026-04-17T11:41:29.906Z</time></trkpt><trkpt lat="43.1480988" lon="12.3135468"><ele>452.0</ele><time>2026-04-17T11:41:30.915Z</time></trkpt><trkpt lat="43.14811" lon="12.3136505"><ele>452.0</ele><time>2026-04-17T11:41:31.916Z</time></trkpt><trkpt lat="43.148129" lon="12.3137511"><ele>452.0</ele><time>2026-04-17T11:41:32.884Z</time></trkpt><trkpt lat="43.1481436" lon="12.3138577"><ele>451.99999999999994</ele><time>2026-04-17T11:41:33.906Z</time></trkpt><trkpt lat="43.1481559" lon="12.3139747"><ele>452.0</ele><time>2026-04-17T11:41:34.876Z</time></trkpt><trkpt lat="43.1481715" lon="12.3140967"><ele>453.40000000000003</ele><time>2026-04-17T11:41:35.929Z</time></trkpt><trkpt lat="43.1481837" lon="12.3142225"><ele>454.80000000000007</ele><time>2026-04-17T11:41:36.9Z</time></trkpt><trkpt lat="43.1481901" lon="12.3143549"><ele>456.2</ele><time>2026-04-17T11:41:37.899Z</time></trkpt><trkpt lat="43.1481907" lon="12.3144907"><ele>457.6</ele><time>2026-04-17T11:41:38.907Z</time></trkpt><trkpt lat="43.1481732" lon="12.3146185"><ele>459.0</ele><time>2026-04-17T11:41:39.932Z</time></trkpt><trkpt lat="43.148152" lon="12.3147185"><ele>460.8333333333333</ele><time>2026-04-17T11:41:40.905Z</time></trkpt><trkpt lat="43.1481362" lon="12.3148146"><ele>462.66666666666663</ele><time>2026-04-17T11:41:41.91Z</time></trkpt><trkpt lat="43.1480679" lon="12.3148788"><ele>464.5</ele><time>2026-04-17T11:41:43.915Z</time></trkpt><trkpt lat="43.1479677" lon="12.3149109"><ele>466.3333333333333</ele><time>2026-04-17T11:41:45.887Z</time></trkpt><trkpt lat="43.1478824" lon="12.3149095"><ele>468.16666666666663</ele><time>2026-04-17T11:41:47.915Z</time></trkpt><trkpt lat="43.1477935" lon="12.314888"><ele>470.0</ele><time>2026-04-17T11:41:50.908Z</time></trkpt><trkpt lat="43.1477166" lon="12.3149175"><ele>470.0</ele><time>2026-04-17T11:41:53.92Z</time></trkpt><trkpt lat="43.1476483" lon="12.3149661"><ele>470.0</ele><time>2026-04-17T11:41:55.88Z</time></trkpt><trkpt lat="43.1475849" lon="12.3150046"><ele>470.0</ele><time>2026-04-17T11:41:56.893Z</time></trkpt><trkpt lat="43.1475139" lon="12.3150801"><ele>470.0</ele><time>2026-04-17T11:41:58.916Z</time></trkpt><trkpt lat="43.1474391" lon="12.3151733"><ele>470.0</ele><time>2026-04-17T11:42:00.919Z</time></trkpt><trkpt lat="43.1473417" lon="12.3152708"><ele>470.6</ele><time>2026-04-17T11:42:02.916Z</time></trkpt><trkpt lat="43.14728" lon="12.3153063"><ele>471.2</ele><time>2026-04-17T11:42:03.913Z</time></trkpt><trkpt lat="43.1471679" lon="12.3153916"><ele>471.79999999999995</ele><time>2026-04-17T11:42:05.918Z</time></trkpt><trkpt lat="43.1471019" lon="12.3154502"><ele>472.4</ele><time>2026-04-17T11:42:06.877Z</time></trkpt><trkpt lat="43.1470285" lon="12.3155064"><ele>473.0</ele><time>2026-04-17T11:42:07.896Z</time></trkpt><trkpt lat="43.1469229" lon="12.3155912"><ele>475.16666666666663</ele><time>2026-04-17T11:42:09.923Z</time></trkpt><trkpt lat="43.1468239" lon="12.315675"><ele>477.3333333333333</ele><time>2026-04-17T11:42:11.918Z</time></trkpt><trkpt lat="43.1467608" lon="12.3157341"><ele>479.5</ele><time>2026-04-17T11:42:12.914Z</time></trkpt><trkpt lat="43.1467018" lon="12.3157952"><ele>481.66666666666663</ele><time>2026-04-17T11:42:13.926Z</time></trkpt><trkpt lat="43.1466362" lon="12.3158539"><ele>483.8333333333333</ele><time>2026-04-17T11:42:14.912Z</time></trkpt><trkpt lat="43.1465699" lon="12.3158975"><ele>486.0</ele><time>2026-04-17T11:42:15.909Z</time></trkpt><trkpt lat="43.1464926" lon="12.3159417"><ele>486.1666666666667</ele><time>2026-04-17T11:42:16.92Z</time></trkpt><trkpt lat="43.1464122" lon="12.3159858"><ele>486.33333333333337</ele><time>2026-04-17T11:42:17.932Z</time></trkpt><trkpt lat="43.1463342" lon="12.3160313"><ele>486.5</ele><time>2026-04-17T11:42:18.927Z</time></trkpt><trkpt lat="43.1462632" lon="12.3160724"><ele>486.6666666666667</ele><time>2026-04-17T11:42:19.923Z</time></trkpt><trkpt lat="43.1461992" lon="12.316114"><ele>486.83333333333337</ele><time>2026-04-17T11:42:20.922Z</time></trkpt><trkpt lat="43.1461384" lon="12.3161537"><ele>487.0</ele><time>2026-04-17T11:42:21.922Z</time></trkpt><trkpt lat="43.1460749" lon="12.3161938"><ele>487.0</ele><time>2026-04-17T11:42:22.92Z</time></trkpt><trkpt lat="43.146018" lon="12.3162337"><ele>487.00000000000006</ele><time>2026-04-17T11:42:23.908Z</time></trkpt><trkpt lat="43.1459205" lon="12.316313"><ele>487.00000000000006</ele><time>2026-04-17T11:42:25.921Z</time></trkpt><trkpt lat="43.1458224" lon="12.3164465"><ele>487.0</ele><time>2026-04-17T11:42:27.873Z</time></trkpt><trkpt lat="43.1457787" lon="12.3165193"><ele>487.0</ele><time>2026-04-17T11:42:28.93Z</time></trkpt><trkpt lat="43.1457288" lon="12.3165797"><ele>487.33333333333337</ele><time>2026-04-17T11:42:29.915Z</time></trkpt><trkpt lat="43.1456348" lon="12.3166762"><ele>487.6666666666667</ele><time>2026-04-17T11:42:31.934Z</time></trkpt><trkpt lat="43.1455799" lon="12.3167263"><ele>488.0</ele><time>2026-04-17T11:42:32.92Z</time></trkpt><trkpt lat="43.1455056" lon="12.3167603"><ele>488.33333333333337</ele><time>2026-04-17T11:42:33.923Z</time></trkpt><trkpt lat="43.1454164" lon="12.3167863"><ele>488.6666666666667</ele><time>2026-04-17T11:42:34.921Z</time></trkpt><trkpt lat="43.1453277" lon="12.3168186"><ele>489.0</ele><time>2026-04-17T11:42:35.923Z</time></trkpt><trkpt lat="43.1452409" lon="12.3168469"><ele>489.0</ele><time>2026-04-17T11:42:36.914Z</time></trkpt><trkpt lat="43.1451669" lon="12.3168576"><ele>489.0</ele><time>2026-04-17T11:42:37.942Z</time></trkpt><trkpt lat="43.1450964" lon="12.3168633"><ele>489.0</ele><time>2026-04-17T11:42:38.91Z</time></trkpt><trkpt lat="43.1450294" lon="12.3168748"><ele>489.0</ele><time>2026-04-17T11:42:39.913Z</time></trkpt><trkpt lat="43.1449677" lon="12.3168946"><ele>489.0</ele><time>2026-04-17T11:42:40.929Z</time></trkpt><trkpt lat="43.1448543" lon="12.3169289"><ele>489.0</ele><time>2026-04-17T11:42:42.924Z</time></trkpt><trkpt lat="43.1447819" lon="12.3170153"><ele>488.79999999999995</ele><time>2026-04-17T11:42:44.911Z</time></trkpt><trkpt lat="43.1447053" lon="12.317092"><ele>488.59999999999997</ele><time>2026-04-17T11:42:46.857Z</time></trkpt><trkpt lat="43.1446063" lon="12.3171158"><ele>488.4</ele><time>2026-04-17T11:42:48.89Z</time></trkpt><trkpt lat="43.1444903" lon="12.317153"><ele>488.2</ele><time>2026-04-17T11:42:50.913Z</time></trkpt><trkpt lat="43.144425" lon="12.3171991"><ele>488.0</ele><time>2026-04-17T11:42:51.932Z</time></trkpt><trkpt lat="43.1443558" lon="12.3172425"><ele>487.99999999999994</ele><time>2026-04-17T11:42:52.915Z</time></trkpt><trkpt lat="43.1442835" lon="12.3172658"><ele>488.0</ele><time>2026-04-17T11:42:53.906Z</time></trkpt><trkpt lat="43.1442072" lon="12.3172775"><ele>488.0</ele><time>2026-04-17T11:42:54.921Z</time></trkpt><trkpt lat="43.1441132" lon="12.3172954"><ele>488.0</ele><time>2026-04-17T11:42:55.918Z</time></trkpt><trkpt lat="43.1440187" lon="12.3172989"><ele>487.99999999999994</ele><time>2026-04-17T11:42:56.889Z</time></trkpt><trkpt lat="43.1439307" lon="12.3172963"><ele>488.0</ele><time>2026-04-17T11:42:57.921Z</time></trkpt><trkpt lat="43.1438655" lon="12.3173037"><ele>489.59999999999997</ele><time>2026-04-17T11:42:58.907Z</time></trkpt><trkpt lat="43.1437899" lon="12.3172987"><ele>491.19999999999993</ele><time>2026-04-17T11:43:00.905Z</time></trkpt><trkpt lat="43.143711" lon="12.3172906"><ele>492.8</ele><time>2026-04-17T11:43:02.916Z</time></trkpt><trkpt lat="43.1436073" lon="12.317335"><ele>494.4</ele><time>2026-04-17T11:43:04.913Z</time></trkpt><trkpt lat="43.1435004" lon="12.3173909"><ele>496.0</ele><time>2026-04-17T11:43:06.854Z</time></trkpt><trkpt lat="43.1434008" lon="12.317454"><ele>496.0</ele><time>2026-04-17T11:43:08.889Z</time></trkpt><trkpt lat="43.1433484" lon="12.3175054"><ele>496.0</ele><time>2026-04-17T11:43:09.9Z</time></trkpt><trkpt lat="43.143276" lon="12.3176046"><ele>496.0</ele><time>2026-04-17T11:43:10.894Z</time></trkpt><trkpt lat="43.1432064" lon="12.3177179"><ele>496.0</ele><time>2026-04-17T11:43:11.866Z</time></trkpt><trkpt lat="43.1431416" lon="12.3178284"><ele>496.0</ele><time>2026-04-17T11:43:12.899Z</time></trkpt><trkpt lat="43.1430852" lon="12.3179291"><ele>498.1666666666667</ele><time>2026-04-17T11:43:13.886Z</time></trkpt><trkpt lat="43.1430429" lon="12.3180547"><ele>500.33333333333337</ele><time>2026-04-17T11:43:14.883Z</time></trkpt><trkpt lat="43.1430166" lon="12.3181493"><ele>502.5</ele><time>2026-04-17T11:43:15.906Z</time></trkpt><trkpt lat="43.1429873" lon="12.3182524"><ele>504.66666666666663</ele><time>2026-04-17T11:43:16.895Z</time></trkpt><trkpt lat="43.1429651" lon="12.31836"><ele>506.8333333333333</ele><time>2026-04-17T11:43:17.9Z</time></trkpt><trkpt lat="43.1429591" lon="12.3184835"><ele>509.0</ele><time>2026-04-17T11:43:18.898Z</time></trkpt><trkpt lat="43.1429694" lon="12.3186051"><ele>509.0</ele><time>2026-04-17T11:43:19.898Z</time></trkpt><trkpt lat="43.1429836" lon="12.3187362"><ele>509.0</ele><time>2026-04-17T11:43:20.92Z</time></trkpt><trkpt lat="43.1430018" lon="12.3188746"><ele>509.0</ele><time>2026-04-17T11:43:21.912Z</time></trkpt><trkpt lat="43.1430203" lon="12.3190146"><ele>509.0</ele><time>2026-04-17T11:43:22.895Z</time></trkpt><trkpt lat="43.1430285" lon="12.319157"><ele>509.0</ele><time>2026-04-17T11:43:23.91Z</time></trkpt><trkpt lat="43.1430385" lon="12.3192951"><ele>509.4</ele><time>2026-04-17T11:43:24.919Z</time></trkpt><trkpt lat="43.1430412" lon="12.3194343"><ele>509.79999999999995</ele><time>2026-04-17T11:43:25.912Z</time></trkpt><trkpt lat="43.1430433" lon="12.3195603"><ele>510.20000000000005</ele><time>2026-04-17T11:43:26.906Z</time></trkpt><trkpt lat="43.1430444" lon="12.3196945"><ele>510.6</ele><time>2026-04-17T11:43:27.856Z</time></trkpt><trkpt lat="43.143039" lon="12.3198283"><ele>511.0</ele><time>2026-04-17T11:43:28.917Z</time></trkpt><trkpt lat="43.1430211" lon="12.319972"><ele>511.6</ele><time>2026-04-17T11:43:29.896Z</time></trkpt><trkpt lat="43.1430044" lon="12.3201237"><ele>512.2</ele><time>2026-04-17T11:43:30.919Z</time></trkpt><trkpt lat="43.142992" lon="12.320257"><ele>512.8</ele><time>2026-04-17T11:43:31.902Z</time></trkpt><trkpt lat="43.1429858" lon="12.3203857"><ele>513.4</ele><time>2026-04-17T11:43:32.917Z</time></trkpt><trkpt lat="43.142986" lon="12.3204997"><ele>514.0</ele><time>2026-04-17T11:43:33.924Z</time></trkpt><trkpt lat="43.1430035" lon="12.3206038"><ele>514.2</ele><time>2026-04-17T11:43:34.875Z</time></trkpt><trkpt lat="43.1430403" lon="12.3207269"><ele>514.4</ele><time>2026-04-17T11:43:35.919Z</time></trkpt><trkpt lat="43.1430799" lon="12.3208616"><ele>514.6</ele><time>2026-04-17T11:43:36.914Z</time></trkpt><trkpt lat="43.1431181" lon="12.3209924"><ele>514.8</ele><time>2026-04-17T11:43:37.913Z</time></trkpt><trkpt lat="43.1431548" lon="12.3211294"><ele>515.0</ele><time>2026-04-17T11:43:38.919Z</time></trkpt><trkpt lat="43.143202" lon="12.3212706"><ele>510.2</ele><time>2026-04-17T11:43:39.901Z</time></trkpt><trkpt lat="43.1432383" lon="12.3213964"><ele>505.4</ele><time>2026-04-17T11:43:40.934Z</time></trkpt><trkpt lat="43.1432664" lon="12.3215171"><ele>500.6</ele><time>2026-04-17T11:43:41.908Z</time></trkpt><trkpt lat="43.1432954" lon="12.321635"><ele>495.8</ele><time>2026-04-17T11:43:42.923Z</time></trkpt><trkpt lat="43.1433195" lon="12.3217504"><ele>491.0</ele><time>2026-04-17T11:43:43.905Z</time></trkpt><trkpt lat="43.1433494" lon="12.3218668"><ele>491.0</ele><time>2026-04-17T11:43:44.885Z</time></trkpt><trkpt lat="43.1433804" lon="12.321984"><ele>491.0</ele><time>2026-04-17T11:43:45.903Z</time></trkpt><trkpt lat="43.1434134" lon="12.322109"><ele>491.0</ele><time>2026-04-17T11:43:46.893Z</time></trkpt><trkpt lat="43.1434456" lon="12.3222353"><ele>491.0</ele><time>2026-04-17T11:43:47.908Z</time></trkpt><trkpt lat="43.1434731" lon="12.322377"><ele>491.0</ele><time>2026-04-17T11:43:48.873Z</time></trkpt><trkpt lat="43.1434927" lon="12.3225167"><ele>491.6</ele><time>2026-04-17T11:43:49.898Z</time></trkpt><trkpt lat="43.143512" lon="12.322658"><ele>492.20000000000005</ele><time>2026-04-17T11:43:50.906Z</time></trkpt><trkpt lat="43.1435283" lon="12.3228006"><ele>492.79999999999995</ele><time>2026-04-17T11:43:51.918Z</time></trkpt><trkpt lat="43.1435421" lon="12.322937"><ele>493.4</ele><time>2026-04-17T11:43:52.926Z</time></trkpt><trkpt lat="43.1435547" lon="12.3230741"><ele>494.0</ele><time>2026-04-17T11:43:53.9Z</time></trkpt><trkpt lat="43.1435824" lon="12.3232058"><ele>494.0</ele><time>2026-04-17T11:43:54.92Z</time></trkpt><trkpt lat="43.1436136" lon="12.3233382"><ele>494.0</ele><time>2026-04-17T11:43:55.91Z</time></trkpt><trkpt lat="43.143655" lon="12.3234704"><ele>494.0</ele><time>2026-04-17T11:43:56.913Z</time></trkpt><trkpt lat="43.1436923" lon="12.323593"><ele>494.0</ele><time>2026-04-17T11:43:57.911Z</time></trkpt><trkpt lat="43.1437338" lon="12.3237128"><ele>494.0</ele><time>2026-04-17T11:43:58.905Z</time></trkpt><trkpt lat="43.1437728" lon="12.3238304"><ele>494.16666666666663</ele><time>2026-04-17T11:43:59.926Z</time></trkpt><trkpt lat="43.1438046" lon="12.3239298"><ele>494.3333333333333</ele><time>2026-04-17T11:44:00.914Z</time></trkpt><trkpt lat="43.1438235" lon="12.324018"><ele>494.5</ele><time>2026-04-17T11:44:01.939Z</time></trkpt><trkpt lat="43.1438329" lon="12.3241413"><ele>494.66666666666663</ele><time>2026-04-17T11:44:03.918Z</time></trkpt><trkpt lat="43.1437719" lon="12.324254"><ele>494.8333333333333</ele><time>2026-04-17T11:44:06.894Z</time></trkpt><trkpt lat="43.1437031" lon="12.3243527"><ele>495.0</ele><time>2026-04-17T11:44:08.925Z</time></trkpt><trkpt lat="43.143617" lon="12.3244688"><ele>495.0</ele><time>2026-04-17T11:44:10.912Z</time></trkpt><trkpt lat="43.1435729" lon="12.3245431"><ele>495.0</ele><time>2026-04-17T11:44:11.907Z</time></trkpt><trkpt lat="43.1435025" lon="12.3246857"><ele>495.0</ele><time>2026-04-17T11:44:13.918Z</time></trkpt><trkpt lat="43.1434397" lon="12.324829"><ele>495.0</ele><time>2026-04-17T11:44:15.927Z</time></trkpt><trkpt lat="43.1434084" lon="12.3249215"><ele>495.0</ele><time>2026-04-17T11:44:16.915Z</time></trkpt><trkpt lat="43.1433162" lon="12.3250622"><ele>494.3333333333333</ele><time>2026-04-17T11:44:18.926Z</time></trkpt><trkpt lat="43.143261" lon="12.3251173"><ele>493.66666666666663</ele><time>2026-04-17T11:44:19.933Z</time></trkpt><trkpt lat="43.1431989" lon="12.3251643"><ele>493.0</ele><time>2026-04-17T11:44:20.889Z</time></trkpt><trkpt lat="43.1431292" lon="12.3252023"><ele>492.3333333333333</ele><time>2026-04-17T11:44:21.91Z</time></trkpt><trkpt lat="43.1430548" lon="12.3252372"><ele>491.66666666666663</ele><time>2026-04-17T11:44:22.852Z</time></trkpt><trkpt lat="43.1429904" lon="12.3252583"><ele>491.0</ele><time>2026-04-17T11:44:23.916Z</time></trkpt><trkpt lat="43.1428787" lon="12.3252682"><ele>493.4</ele><time>2026-04-17T11:44:25.916Z</time></trkpt><trkpt lat="43.1427813" lon="12.3252641"><ele>495.8</ele><time>2026-04-17T11:44:27.917Z</time></trkpt><trkpt lat="43.1426905" lon="12.3252747"><ele>498.19999999999993</ele><time>2026-04-17T11:44:29.925Z</time></trkpt><trkpt lat="43.1425948" lon="12.3252806"><ele>500.59999999999997</ele><time>2026-04-17T11:44:31.923Z</time></trkpt><trkpt lat="43.1424891" lon="12.3252672"><ele>503.0</ele><time>2026-04-17T11:44:33.923Z</time></trkpt><trkpt lat="43.142381" lon="12.3252485"><ele>504.0</ele><time>2026-04-17T11:44:35.921Z</time></trkpt><trkpt lat="43.1422613" lon="12.3252336"><ele>504.99999999999994</ele><time>2026-04-17T11:44:37.914Z</time></trkpt><trkpt lat="43.1421411" lon="12.3252256"><ele>505.99999999999994</ele><time>2026-04-17T11:44:39.901Z</time></trkpt><trkpt lat="43.1420175" lon="12.3251921"><ele>507.0</ele><time>2026-04-17T11:44:41.913Z</time></trkpt><trkpt lat="43.1419504" lon="12.3251564"><ele>508.0</ele><time>2026-04-17T11:44:42.914Z</time></trkpt><trkpt lat="43.1418956" lon="12.3251042"><ele>508.00000000000006</ele><time>2026-04-17T11:44:43.898Z</time></trkpt><trkpt lat="43.1418428" lon="12.3249878"><ele>508.0</ele><time>2026-04-17T11:44:45.912Z</time></trkpt><trkpt lat="43.1417925" lon="12.3249146"><ele>508.0</ele><time>2026-04-17T11:44:47.869Z</time></trkpt><trkpt lat="43.1417295" lon="12.3248773"><ele>508.0</ele><time>2026-04-17T11:44:48.911Z</time></trkpt><trkpt lat="43.1416392" lon="12.3248049"><ele>508.00000000000006</ele><time>2026-04-17T11:44:50.915Z</time></trkpt><trkpt lat="43.1415572" lon="12.3247575"><ele>508.0</ele><time>2026-04-17T11:44:52.935Z</time></trkpt><trkpt lat="43.1415087" lon="12.3246868"><ele>513.6</ele><time>2026-04-17T11:44:54.897Z</time></trkpt><trkpt lat="43.141423" lon="12.3245868"><ele>519.1999999999999</ele><time>2026-04-17T11:44:56.889Z</time></trkpt><trkpt lat="43.1413565" lon="12.3244561"><ele>524.8</ele><time>2026-04-17T11:44:58.924Z</time></trkpt><trkpt lat="43.1413171" lon="12.3243178"><ele>530.4</ele><time>2026-04-17T11:45:00.912Z</time></trkpt><trkpt lat="43.1412599" lon="12.3242251"><ele>536.0</ele><time>2026-04-17T11:45:02.899Z</time></trkpt><trkpt lat="43.1411833" lon="12.3242219"><ele>536.0</ele><time>2026-04-17T11:45:04.919Z</time></trkpt><trkpt lat="43.1411319" lon="12.3243001"><ele>536.0</ele><time>2026-04-17T11:45:07.905Z</time></trkpt><trkpt lat="43.1410737" lon="12.324399"><ele>536.0</ele><time>2026-04-17T11:45:10.908Z</time></trkpt><trkpt lat="43.1410202" lon="12.3244883"><ele>536.0</ele><time>2026-04-17T11:45:12.901Z</time></trkpt><trkpt lat="43.1409381" lon="12.3245821"><ele>536.0</ele><time>2026-04-17T11:45:14.905Z</time></trkpt><trkpt lat="43.1408895" lon="12.3246425"><ele>536.0</ele><time>2026-04-17T11:45:15.911Z</time></trkpt><trkpt lat="43.1407807" lon="12.3247542"><ele>534.5714285714286</ele><time>2026-04-17T11:45:17.912Z</time></trkpt><trkpt lat="43.140721" lon="12.3248116"><ele>533.1428571428571</ele><time>2026-04-17T11:45:18.919Z</time></trkpt><trkpt lat="43.1406649" lon="12.3248756"><ele>531.7142857142857</ele><time>2026-04-17T11:45:19.904Z</time></trkpt><trkpt lat="43.1406131" lon="12.324944"><ele>530.2857142857142</ele><time>2026-04-17T11:45:20.898Z</time></trkpt><trkpt lat="43.1405643" lon="12.3250025"><ele>528.8571428571428</ele><time>2026-04-17T11:45:21.913Z</time></trkpt><trkpt lat="43.1405107" lon="12.3250767"><ele>527.4285714285714</ele><time>2026-04-17T11:45:22.906Z</time></trkpt><trkpt lat="43.1404587" lon="12.3251429"><ele>526.0</ele><time>2026-04-17T11:45:23.91Z</time></trkpt><trkpt lat="43.1404086" lon="12.3252085"><ele>530.5</ele><time>2026-04-17T11:45:24.918Z</time></trkpt><trkpt lat="43.1403571" lon="12.3252657"><ele>535.0</ele><time>2026-04-17T11:45:25.898Z</time></trkpt><trkpt lat="43.1402947" lon="12.3253175"><ele>539.5</ele><time>2026-04-17T11:45:26.904Z</time></trkpt><trkpt lat="43.1402167" lon="12.3253671"><ele>544.0</ele><time>2026-04-17T11:45:27.911Z</time></trkpt><trkpt lat="43.1401418" lon="12.3254135"><ele>548.5</ele><time>2026-04-17T11:45:28.91Z</time></trkpt><trkpt lat="43.140052" lon="12.3254534"><ele>553.0</ele><time>2026-04-17T11:45:29.9Z</time></trkpt><trkpt lat="43.1399598" lon="12.3254892"><ele>551.5</ele><time>2026-04-17T11:45:30.917Z</time></trkpt><trkpt lat="43.139883" lon="12.325519"><ele>550.0</ele><time>2026-04-17T11:45:31.901Z</time></trkpt><trkpt lat="43.1398198" lon="12.3255369"><ele>548.5</ele><time>2026-04-17T11:45:32.905Z</time></trkpt><trkpt lat="43.1397355" lon="12.3255538"><ele>547.0</ele><time>2026-04-17T11:45:34.904Z</time></trkpt><trkpt lat="43.1396731" lon="12.3255834"><ele>545.5</ele><time>2026-04-17T11:45:36.851Z</time></trkpt><trkpt lat="43.1395601" lon="12.3256143"><ele>544.0</ele><time>2026-04-17T11:45:38.905Z</time></trkpt><trkpt lat="43.1394723" lon="12.325649"><ele>544.0</ele><time>2026-04-17T11:45:40.904Z</time></trkpt><trkpt lat="43.1393944" lon="12.3257112"><ele>544.0</ele><time>2026-04-17T11:45:43.912Z</time></trkpt><trkpt lat="43.1393247" lon="12.325727"><ele>544.0</ele><time>2026-04-17T11:45:45.916Z</time></trkpt><trkpt lat="43.1392328" lon="12.3257645"><ele>544.0</ele><time>2026-04-17T11:45:47.904Z</time></trkpt><trkpt lat="43.1391661" lon="12.3257946"><ele>544.0</ele><time>2026-04-17T11:45:48.901Z</time></trkpt><trkpt lat="43.1390522" lon="12.3258378"><ele>544.0</ele><time>2026-04-17T11:45:50.899Z</time></trkpt><trkpt lat="43.1389417" lon="12.325885"><ele>548.0</ele><time>2026-04-17T11:45:52.907Z</time></trkpt><trkpt lat="43.1388829" lon="12.3259164"><ele>552.0</ele><time>2026-04-17T11:45:53.908Z</time></trkpt><trkpt lat="43.1387919" lon="12.3259977"><ele>556.0</ele><time>2026-04-17T11:45:55.863Z</time></trkpt><trkpt lat="43.1387173" lon="12.3261001"><ele>560.0</ele><time>2026-04-17T11:45:57.898Z</time></trkpt><trkpt lat="43.1386715" lon="12.3261634"><ele>564.0</ele><time>2026-04-17T11:45:58.892Z</time></trkpt><trkpt lat="43.1385652" lon="12.3262458"><ele>564.0</ele><time>2026-04-17T11:46:00.914Z</time></trkpt><trkpt lat="43.1384956" lon="12.3262824"><ele>564.0</ele><time>2026-04-17T11:46:01.896Z</time></trkpt><trkpt lat="43.1384299" lon="12.326323"><ele>564.0</ele><time>2026-04-17T11:46:02.898Z</time></trkpt><trkpt lat="43.1383553" lon="12.3263459"><ele>564.0</ele><time>2026-04-17T11:46:03.892Z</time></trkpt><trkpt lat="43.1382721" lon="12.3263711"><ele>564.0</ele><time>2026-04-17T11:46:05.905Z</time></trkpt><trkpt lat="43.1381729" lon="12.3263761"><ele>564.0</ele><time>2026-04-17T11:46:07.902Z</time></trkpt><trkpt lat="43.1381037" lon="12.3263644"><ele>563.5</ele><time>2026-04-17T11:46:08.887Z</time></trkpt><trkpt lat="43.1379846" lon="12.3263555"><ele>563.0</ele><time>2026-04-17T11:46:10.886Z</time></trkpt><trkpt lat="43.1379113" lon="12.3263756"><ele>562.5</ele><time>2026-04-17T11:46:11.904Z</time></trkpt><trkpt lat="43.137829" lon="12.3263933"><ele>562.0</ele><time>2026-04-17T11:46:12.909Z</time></trkpt><trkpt lat="43.1377512" lon="12.326437"><ele>561.5</ele><time>2026-04-17T11:46:13.883Z</time></trkpt><trkpt lat="43.1376765" lon="12.3264968"><ele>561.0</ele><time>2026-04-17T11:46:14.918Z</time></trkpt><trkpt lat="43.1376114" lon="12.3265529"><ele>561.0</ele><time>2026-04-17T11:46:15.913Z</time></trkpt><trkpt lat="43.1375524" lon="12.3266008"><ele>561.0</ele><time>2026-04-17T11:46:16.89Z</time></trkpt><trkpt lat="43.1374995" lon="12.3266579"><ele>561.0</ele><time>2026-04-17T11:46:17.905Z</time></trkpt><trkpt lat="43.1374508" lon="12.3267398"><ele>561.0</ele><time>2026-04-17T11:46:18.9Z</time></trkpt><trkpt lat="43.137416" lon="12.3268214"><ele>561.0</ele><time>2026-04-17T11:46:19.896Z</time></trkpt><trkpt lat="43.1373569" lon="12.3269648"><ele>561.0</ele><time>2026-04-17T11:46:21.898Z</time></trkpt><trkpt lat="43.1373149" lon="12.3270947"><ele>562.6</ele><time>2026-04-17T11:46:23.918Z</time></trkpt><trkpt lat="43.1373009" lon="12.3272419"><ele>564.2</ele><time>2026-04-17T11:46:25.905Z</time></trkpt><trkpt lat="43.1373037" lon="12.3273984"><ele>565.8</ele><time>2026-04-17T11:46:27.926Z</time></trkpt><trkpt lat="43.1372815" lon="12.3275688"><ele>567.4</ele><time>2026-04-17T11:46:29.932Z</time></trkpt><trkpt lat="43.1372456" lon="12.327652"><ele>569.0</ele><time>2026-04-17T11:46:30.92Z</time></trkpt><trkpt lat="43.137201" lon="12.3277524"><ele>569.0</ele><time>2026-04-17T11:46:31.916Z</time></trkpt><trkpt lat="43.1371556" lon="12.3278267"><ele>569.0</ele><time>2026-04-17T11:46:32.905Z</time></trkpt><trkpt lat="43.1370846" lon="12.3279433"><ele>569.0</ele><time>2026-04-17T11:46:34.919Z</time></trkpt><trkpt lat="43.1370333" lon="12.3280373"><ele>569.0</ele><time>2026-04-17T11:46:36.943Z</time></trkpt><trkpt lat="43.1370187" lon="12.327921"><ele>569.0</ele><time>2026-04-17T11:46:41.927Z</time></trkpt><trkpt lat="43.1369825" lon="12.3277736"><ele>569.0</ele><time>2026-04-17T11:46:43.947Z</time></trkpt><trkpt lat="43.1369273" lon="12.327689"><ele>569.0</ele><time>2026-04-17T11:46:44.924Z</time></trkpt><trkpt lat="43.1368464" lon="12.3276095"><ele>569.0</ele><time>2026-04-17T11:46:45.921Z</time></trkpt><trkpt lat="43.1367719" lon="12.3275472"><ele>569.0</ele><time>2026-04-17T11:46:46.917Z</time></trkpt><trkpt lat="43.1366978" lon="12.3274628"><ele>569.0</ele><time>2026-04-17T11:46:47.924Z</time></trkpt><trkpt lat="43.1366175" lon="12.3273659"><ele>569.0</ele><time>2026-04-17T11:46:48.911Z</time></trkpt><trkpt lat="43.1365469" lon="12.3272532"><ele>569.0</ele><time>2026-04-17T11:46:49.88Z</time></trkpt><trkpt lat="43.1364813" lon="12.3271248"><ele>569.0</ele><time>2026-04-17T11:46:50.912Z</time></trkpt><trkpt lat="43.1364171" lon="12.3270109"><ele>569.0</ele><time>2026-04-17T11:46:51.872Z</time></trkpt><trkpt lat="43.1363617" lon="12.3269056"><ele>569.0</ele><time>2026-04-17T11:46:52.913Z</time></trkpt><trkpt lat="43.1363071" lon="12.3268068"><ele>569.0</ele><time>2026-04-17T11:46:53.862Z</time></trkpt><trkpt lat="43.1362629" lon="12.3267163"><ele>569.0</ele><time>2026-04-17T11:46:54.901Z</time></trkpt><trkpt lat="43.1362192" lon="12.3266276"><ele>569.0</ele><time>2026-04-17T11:46:55.905Z</time></trkpt><trkpt lat="43.1361815" lon="12.326522"><ele>569.0</ele><time>2026-04-17T11:46:56.903Z</time></trkpt><trkpt lat="43.1361536" lon="12.326407"><ele>569.0</ele><time>2026-04-17T11:46:57.91Z</time></trkpt><trkpt lat="43.1361292" lon="12.3262954"><ele>569.0</ele><time>2026-04-17T11:46:58.865Z</time></trkpt><trkpt lat="43.1361049" lon="12.3261721"><ele>571.0</ele><time>2026-04-17T11:46:59.913Z</time></trkpt><trkpt lat="43.1360704" lon="12.3260437"><ele>573.0</ele><time>2026-04-17T11:47:00.849Z</time></trkpt><trkpt lat="43.1360326" lon="12.325922"><ele>575.0</ele><time>2026-04-17T11:47:01.86Z</time></trkpt><trkpt lat="43.1360062" lon="12.3258238"><ele>577.0</ele><time>2026-04-17T11:47:02.86Z</time></trkpt><trkpt lat="43.1359948" lon="12.3257078"><ele>579.0</ele><time>2026-04-17T11:47:03.868Z</time></trkpt><trkpt lat="43.1359884" lon="12.3255879"><ele>581.0</ele><time>2026-04-17T11:47:04.868Z</time></trkpt><trkpt lat="43.1359848" lon="12.3254602"><ele>582.4</ele><time>2026-04-17T11:47:05.872Z</time></trkpt><trkpt lat="43.1359778" lon="12.3253389"><ele>583.8</ele><time>2026-04-17T11:47:06.868Z</time></trkpt><trkpt lat="43.1359717" lon="12.325223"><ele>585.1999999999999</ele><time>2026-04-17T11:47:07.856Z</time></trkpt><trkpt lat="43.1359661" lon="12.325094"><ele>586.6</ele><time>2026-04-17T11:47:08.864Z</time></trkpt><trkpt lat="43.1359545" lon="12.3249491"><ele>588.0</ele><time>2026-04-17T11:47:09.864Z</time></trkpt><trkpt lat="43.1359451" lon="12.3248126"><ele>587.8</ele><time>2026-04-17T11:47:10.872Z</time></trkpt><trkpt lat="43.1359195" lon="12.3246814"><ele>587.5999999999999</ele><time>2026-04-17T11:47:11.866Z</time></trkpt><trkpt lat="43.1358887" lon="12.3245508"><ele>587.4000000000001</ele><time>2026-04-17T11:47:12.871Z</time></trkpt><trkpt lat="43.1358439" lon="12.3244254"><ele>587.2</ele><time>2026-04-17T11:47:13.883Z</time></trkpt><trkpt lat="43.1357803" lon="12.3243073"><ele>587.0</ele><time>2026-04-17T11:47:14.872Z</time></trkpt><trkpt lat="43.1357016" lon="12.3242078"><ele>587.0</ele><time>2026-04-17T11:47:15.886Z</time></trkpt><trkpt lat="43.1356153" lon="12.3240929"><ele>587.0</ele><time>2026-04-17T11:47:16.873Z</time></trkpt><trkpt lat="43.135539" lon="12.3239801"><ele>587.0</ele><time>2026-04-17T11:47:17.868Z</time></trkpt><trkpt lat="43.1354609" lon="12.323864"><ele>587.0</ele><time>2026-04-17T11:47:18.886Z</time></trkpt><trkpt lat="43.1353878" lon="12.3237493"><ele>588.75</ele><time>2026-04-17T11:47:19.863Z</time></trkpt><trkpt lat="43.1353221" lon="12.3236523"><ele>590.5</ele><time>2026-04-17T11:47:20.88Z</time></trkpt><trkpt lat="43.1352418" lon="12.3235662"><ele>592.25</ele><time>2026-04-17T11:47:21.863Z</time></trkpt><trkpt lat="43.1351573" lon="12.3235003"><ele>594.0</ele><time>2026-04-17T11:47:22.87Z</time></trkpt><trkpt lat="43.1349559" lon="12.3233427"><ele>595.0</ele><time>2026-04-17T11:47:24.906Z</time></trkpt><trkpt lat="43.1348464" lon="12.3232588"><ele>596.0</ele><time>2026-04-17T11:47:25.902Z</time></trkpt><trkpt lat="43.1347338" lon="12.3231718"><ele>597.0</ele><time>2026-04-17T11:47:26.886Z</time></trkpt><trkpt lat="43.1346191" lon="12.3230925"><ele>598.0</ele><time>2026-04-17T11:47:27.865Z</time></trkpt><trkpt lat="43.1345121" lon="12.3230181"><ele>598.0</ele><time>2026-04-17T11:47:28.891Z</time></trkpt><trkpt lat="43.1344028" lon="12.3229603"><ele>598.0</ele><time>2026-04-17T11:47:29.902Z</time></trkpt><trkpt lat="43.1342976" lon="12.3229112"><ele>598.0</ele><time>2026-04-17T11:47:30.893Z</time></trkpt><trkpt lat="43.1341941" lon="12.322875"><ele>598.0</ele><time>2026-04-17T11:47:31.893Z</time></trkpt><trkpt lat="43.1340756" lon="12.322833"><ele>601.8</ele><time>2026-04-17T11:47:32.892Z</time></trkpt><trkpt lat="43.133971" lon="12.322781"><ele>605.5999999999999</ele><time>2026-04-17T11:47:33.897Z</time></trkpt><trkpt lat="43.1338852" lon="12.3226984"><ele>609.4000000000001</ele><time>2026-04-17T11:47:34.912Z</time></trkpt><trkpt lat="43.1338114" lon="12.3226105"><ele>613.2</ele><time>2026-04-17T11:47:35.894Z</time></trkpt><trkpt lat="43.1337464" lon="12.3224956"><ele>617.0</ele><time>2026-04-17T11:47:36.887Z</time></trkpt><trkpt lat="43.133686" lon="12.3223673"><ele>617.0</ele><time>2026-04-17T11:47:37.9Z</time></trkpt><trkpt lat="43.133636" lon="12.3222397"><ele>617.0</ele><time>2026-04-17T11:47:38.874Z</time></trkpt><trkpt lat="43.1335843" lon="12.3221102"><ele>617.0</ele><time>2026-04-17T11:47:39.889Z</time></trkpt><trkpt lat="43.1335382" lon="12.3219784"><ele>617.0</ele><time>2026-04-17T11:47:40.881Z</time></trkpt><trkpt lat="43.1334883" lon="12.3218536"><ele>617.0</ele><time>2026-04-17T11:47:41.932Z</time></trkpt><trkpt lat="43.1334332" lon="12.3217387"><ele>617.2</ele><time>2026-04-17T11:47:42.928Z</time></trkpt><trkpt lat="43.1333662" lon="12.3216335"><ele>617.4000000000001</ele><time>2026-04-17T11:47:43.885Z</time></trkpt><trkpt lat="43.1332966" lon="12.3215464"><ele>617.5999999999999</ele><time>2026-04-17T11:47:44.915Z</time></trkpt><trkpt lat="43.1332397" lon="12.3214416"><ele>617.8</ele><time>2026-04-17T11:47:45.9Z</time></trkpt><trkpt lat="43.1331871" lon="12.3213584"><ele>618.0</ele><time>2026-04-17T11:47:46.913Z</time></trkpt><trkpt lat="43.1331419" lon="12.321263"><ele>622.0</ele><time>2026-04-17T11:47:47.904Z</time></trkpt><trkpt lat="43.1331017" lon="12.3211423"><ele>626.0</ele><time>2026-04-17T11:47:48.895Z</time></trkpt><trkpt lat="43.1330702" lon="12.3210186"><ele>630.0</ele><time>2026-04-17T11:47:49.883Z</time></trkpt><trkpt lat="43.1330607" lon="12.320888"><ele>634.0</ele><time>2026-04-17T11:47:50.858Z</time></trkpt><trkpt lat="43.1330694" lon="12.3207727"><ele>638.0</ele><time>2026-04-17T11:47:51.902Z</time></trkpt><trkpt lat="43.1330905" lon="12.3206639"><ele>637.8333333333333</ele><time>2026-04-17T11:47:52.914Z</time></trkpt><trkpt lat="43.1331291" lon="12.320547"><ele>637.6666666666666</ele><time>2026-04-17T11:47:53.899Z</time></trkpt><trkpt lat="43.1331763" lon="12.3204504"><ele>637.5</ele><time>2026-04-17T11:47:54.899Z</time></trkpt><trkpt lat="43.1332331" lon="12.3203543"><ele>637.3333333333334</ele><time>2026-04-17T11:47:55.873Z</time></trkpt><trkpt lat="43.1332859" lon="12.3202714"><ele>637.1666666666667</ele><time>2026-04-17T11:47:56.913Z</time></trkpt><trkpt lat="43.1333584" lon="12.320182"><ele>637.0</ele><time>2026-04-17T11:47:57.92Z</time></trkpt><trkpt lat="43.1334192" lon="12.3201034"><ele>634.8000000000001</ele><time>2026-04-17T11:47:58.914Z</time></trkpt><trkpt lat="43.1334558" lon="12.3200297"><ele>632.6</ele><time>2026-04-17T11:47:59.876Z</time></trkpt><trkpt lat="43.1334839" lon="12.3199024"><ele>630.4000000000001</ele><time>2026-04-17T11:48:01.894Z</time></trkpt><trkpt lat="43.1335107" lon="12.3197126"><ele>628.2</ele><time>2026-04-17T11:48:03.918Z</time></trkpt><trkpt lat="43.1334952" lon="12.3196042"><ele>626.0</ele><time>2026-04-17T11:48:04.913Z</time></trkpt><trkpt lat="43.1334685" lon="12.3195128"><ele>625.0</ele><time>2026-04-17T11:48:05.894Z</time></trkpt><trkpt lat="43.1334284" lon="12.3194096"><ele>624.0</ele><time>2026-04-17T11:48:06.865Z</time></trkpt><trkpt lat="43.1333895" lon="12.3193041"><ele>623.0</ele><time>2026-04-17T11:48:07.879Z</time></trkpt><trkpt lat="43.1333425" lon="12.3192013"><ele>622.0</ele><time>2026-04-17T11:48:08.903Z</time></trkpt><trkpt lat="43.1332983" lon="12.3190959"><ele>621.0</ele><time>2026-04-17T11:48:09.885Z</time></trkpt><trkpt lat="43.1332592" lon="12.3189889"><ele>620.0</ele><time>2026-04-17T11:48:10.917Z</time></trkpt><trkpt lat="43.133227" lon="12.3188989"><ele>619.8571428571429</ele><time>2026-04-17T11:48:11.912Z</time></trkpt><trkpt lat="43.1331922" lon="12.3188041"><ele>619.7142857142857</ele><time>2026-04-17T11:48:12.894Z</time></trkpt><trkpt lat="43.1331577" lon="12.3187012"><ele>619.5714285714286</ele><time>2026-04-17T11:48:13.857Z</time></trkpt><trkpt lat="43.1331246" lon="12.3186095"><ele>619.4285714285714</ele><time>2026-04-17T11:48:14.921Z</time></trkpt><trkpt lat="43.1330923" lon="12.3185154"><ele>619.2857142857143</ele><time>2026-04-17T11:48:15.911Z</time></trkpt><trkpt lat="43.1330705" lon="12.3184295"><ele>619.1428571428571</ele><time>2026-04-17T11:48:16.889Z</time></trkpt><trkpt lat="43.133051" lon="12.318346"><ele>619.0</ele><time>2026-04-17T11:48:17.922Z</time></trkpt><trkpt lat="43.1330299" lon="12.3182603"><ele>619.0</ele><time>2026-04-17T11:48:18.866Z</time></trkpt><trkpt lat="43.13302" lon="12.3181613"><ele>619.0</ele><time>2026-04-17T11:48:19.895Z</time></trkpt><trkpt lat="43.1330247" lon="12.3180454"><ele>619.0</ele><time>2026-04-17T11:48:20.9Z</time></trkpt><trkpt lat="43.1330277" lon="12.3179328"><ele>619.0</ele><time>2026-04-17T11:48:21.896Z</time></trkpt><trkpt lat="43.1330328" lon="12.3178139"><ele>619.0</ele><time>2026-04-17T11:48:22.902Z</time></trkpt><trkpt lat="43.1330449" lon="12.3177072"><ele>619.0</ele><time>2026-04-17T11:48:23.916Z</time></trkpt><trkpt lat="43.1330387" lon="12.3176099"><ele>616.8333333333334</ele><time>2026-04-17T11:48:24.899Z</time></trkpt><trkpt lat="43.1330244" lon="12.3175142"><ele>614.6666666666667</ele><time>2026-04-17T11:48:25.867Z</time></trkpt><trkpt lat="43.1329732" lon="12.317449"><ele>612.5</ele><time>2026-04-17T11:48:26.902Z</time></trkpt><trkpt lat="43.1328969" lon="12.3173795"><ele>610.3333333333334</ele><time>2026-04-17T11:48:27.919Z</time></trkpt><trkpt lat="43.1328078" lon="12.3173211"><ele>608.1666666666666</ele><time>2026-04-17T11:48:28.913Z</time></trkpt><trkpt lat="43.1327073" lon="12.3172601"><ele>606.0</ele><time>2026-04-17T11:48:29.89Z</time></trkpt><trkpt lat="43.1326059" lon="12.3171801"><ele>606.0</ele><time>2026-04-17T11:48:30.926Z</time></trkpt><trkpt lat="43.1325006" lon="12.3171031"><ele>606.0</ele><time>2026-04-17T11:48:31.925Z</time></trkpt><trkpt lat="43.1323964" lon="12.3170262"><ele>606.0</ele><time>2026-04-17T11:48:32.906Z</time></trkpt><trkpt lat="43.1322922" lon="12.3169548"><ele>606.0</ele><time>2026-04-17T11:48:33.849Z</time></trkpt><trkpt lat="43.1321907" lon="12.3168786"><ele>603.4</ele><time>2026-04-17T11:48:34.921Z</time></trkpt><trkpt lat="43.1321024" lon="12.3168092"><ele>600.8</ele><time>2026-04-17T11:48:35.92Z</time></trkpt><trkpt lat="43.1320222" lon="12.3167338"><ele>598.1999999999999</ele><time>2026-04-17T11:48:36.903Z</time></trkpt><trkpt lat="43.1319529" lon="12.3166534"><ele>595.6</ele><time>2026-04-17T11:48:37.893Z</time></trkpt><trkpt lat="43.1318967" lon="12.3165675"><ele>593.0</ele><time>2026-04-17T11:48:38.864Z</time></trkpt><trkpt lat="43.1318499" lon="12.3164745"><ele>594.6</ele><time>2026-04-17T11:48:39.874Z</time></trkpt><trkpt lat="43.1318052" lon="12.3163663"><ele>596.1999999999999</ele><time>2026-04-17T11:48:40.914Z</time></trkpt><trkpt lat="43.1317547" lon="12.3162606"><ele>597.8</ele><time>2026-04-17T11:48:41.924Z</time></trkpt><trkpt lat="43.131698" lon="12.3161535"><ele>599.4</ele><time>2026-04-17T11:48:42.887Z</time></trkpt><trkpt lat="43.1316343" lon="12.3160537"><ele>601.0</ele><time>2026-04-17T11:48:43.874Z</time></trkpt><trkpt lat="43.1315793" lon="12.3159534"><ele>599.8333333333334</ele><time>2026-04-17T11:48:44.914Z</time></trkpt><trkpt lat="43.1315178" lon="12.3158661"><ele>598.6666666666667</ele><time>2026-04-17T11:48:45.911Z</time></trkpt><trkpt lat="43.131458" lon="12.3157913"><ele>597.5</ele><time>2026-04-17T11:48:46.905Z</time></trkpt><trkpt lat="43.1313975" lon="12.3157357"><ele>596.3333333333334</ele><time>2026-04-17T11:48:47.888Z</time></trkpt><trkpt lat="43.1313184" lon="12.3157181"><ele>595.1666666666666</ele><time>2026-04-17T11:48:48.913Z</time></trkpt><trkpt lat="43.131246" lon="12.3157212"><ele>594.0</ele><time>2026-04-17T11:48:49.885Z</time></trkpt><trkpt lat="43.131178" lon="12.3157437"><ele>594.0</ele><time>2026-04-17T11:48:50.914Z</time></trkpt><trkpt lat="43.1311143" lon="12.3157732"><ele>594.0</ele><time>2026-04-17T11:48:51.897Z</time></trkpt><trkpt lat="43.131046" lon="12.315798"><ele>594.0</ele><time>2026-04-17T11:48:52.907Z</time></trkpt><trkpt lat="43.1309739" lon="12.3158154"><ele>594.0</ele><time>2026-04-17T11:48:53.882Z</time></trkpt><trkpt lat="43.1308876" lon="12.3158165"><ele>594.0</ele><time>2026-04-17T11:48:54.91Z</time></trkpt><trkpt lat="43.1307997" lon="12.3158162"><ele>594.0</ele><time>2026-04-17T11:48:55.925Z</time></trkpt><trkpt lat="43.1307186" lon="12.3157977"><ele>593.0</ele><time>2026-04-17T11:48:56.862Z</time></trkpt><trkpt lat="43.1306454" lon="12.3157753"><ele>592.0</ele><time>2026-04-17T11:48:57.901Z</time></trkpt><trkpt lat="43.1305725" lon="12.315766"><ele>591.0</ele><time>2026-04-17T11:48:58.911Z</time></trkpt><trkpt lat="43.1305022" lon="12.3157554"><ele>590.0</ele><time>2026-04-17T11:48:59.906Z</time></trkpt><trkpt lat="43.1304209" lon="12.3157439"><ele>589.0</ele><time>2026-04-17T11:49:00.905Z</time></trkpt><trkpt lat="43.1303399" lon="12.3157474"><ele>588.0</ele><time>2026-04-17T11:49:01.914Z</time></trkpt><trkpt lat="43.1302576" lon="12.3157356"><ele>588.0</ele><time>2026-04-17T11:49:02.889Z</time></trkpt><trkpt lat="43.1301838" lon="12.3157309"><ele>588.0</ele><time>2026-04-17T11:49:03.904Z</time></trkpt><trkpt lat="43.1301101" lon="12.3157333"><ele>588.0</ele><time>2026-04-17T11:49:04.913Z</time></trkpt><trkpt lat="43.1300399" lon="12.3157392"><ele>588.0</ele><time>2026-04-17T11:49:05.894Z</time></trkpt><trkpt lat="43.1299591" lon="12.3157599"><ele>588.0</ele><time>2026-04-17T11:49:06.887Z</time></trkpt><trkpt lat="43.1298812" lon="12.3157718"><ele>588.0</ele><time>2026-04-17T11:49:07.915Z</time></trkpt><trkpt lat="43.1298104" lon="12.3157837"><ele>587.1428571428571</ele><time>2026-04-17T11:49:08.894Z</time></trkpt><trkpt lat="43.1297407" lon="12.3157872"><ele>586.2857142857142</ele><time>2026-04-17T11:49:09.898Z</time></trkpt><trkpt lat="43.1296735" lon="12.3157675"><ele>585.4285714285714</ele><time>2026-04-17T11:49:10.921Z</time></trkpt><trkpt lat="43.129605" lon="12.3157135"><ele>584.5714285714286</ele><time>2026-04-17T11:49:11.898Z</time></trkpt><trkpt lat="43.1295472" lon="12.3156646"><ele>583.7142857142857</ele><time>2026-04-17T11:49:12.905Z</time></trkpt><trkpt lat="43.1294874" lon="12.3156347"><ele>582.8571428571429</ele><time>2026-04-17T11:49:13.894Z</time></trkpt><trkpt lat="43.1294185" lon="12.3156277"><ele>582.0</ele><time>2026-04-17T11:49:14.926Z</time></trkpt><trkpt lat="43.1293393" lon="12.3156354"><ele>582.0</ele><time>2026-04-17T11:49:15.917Z</time></trkpt><trkpt lat="43.1292704" lon="12.3156533"><ele>582.0</ele><time>2026-04-17T11:49:16.877Z</time></trkpt><trkpt lat="43.1291919" lon="12.3156852"><ele>582.0</ele><time>2026-04-17T11:49:17.937Z</time></trkpt><trkpt lat="43.1291114" lon="12.315719"><ele>582.0</ele><time>2026-04-17T11:49:18.9Z</time></trkpt><trkpt lat="43.1290313" lon="12.3157583"><ele>582.0</ele><time>2026-04-17T11:49:19.904Z</time></trkpt><trkpt lat="43.1289448" lon="12.3158044"><ele>582.0</ele><time>2026-04-17T11:49:20.915Z</time></trkpt><trkpt lat="43.1288514" lon="12.3158602"><ele>580.5</ele><time>2026-04-17T11:49:21.894Z</time></trkpt><trkpt lat="43.1287632" lon="12.3159026"><ele>579.0</ele><time>2026-04-17T11:49:22.893Z</time></trkpt><trkpt lat="43.1286735" lon="12.3159247"><ele>577.5</ele><time>2026-04-17T11:49:23.903Z</time></trkpt><trkpt lat="43.1286037" lon="12.3159393"><ele>576.0</ele><time>2026-04-17T11:49:24.897Z</time></trkpt><trkpt lat="43.1285415" lon="12.315954"><ele>574.5</ele><time>2026-04-17T11:49:25.917Z</time></trkpt><trkpt lat="43.1284378" lon="12.3159767"><ele>573.0</ele><time>2026-04-17T11:49:27.909Z</time></trkpt><trkpt lat="43.1283746" lon="12.3160009"><ele>573.0</ele><time>2026-04-17T11:49:29.893Z</time></trkpt><trkpt lat="43.1283033" lon="12.3160349"><ele>573.0</ele><time>2026-04-17T11:50:02.895Z</time></trkpt><trkpt lat="43.1282017" lon="12.3161277"><ele>573.0</ele><time>2026-04-17T11:50:04.89Z</time></trkpt><trkpt lat="43.1281087" lon="12.3162224"><ele>573.0</ele><time>2026-04-17T11:50:06.866Z</time></trkpt><trkpt lat="43.1280422" lon="12.3163021"><ele>573.0</ele><time>2026-04-17T11:50:08.913Z</time></trkpt><trkpt lat="43.1279779" lon="12.3163471"><ele>573.0</ele><time>2026-04-17T11:50:10.908Z</time></trkpt><trkpt lat="43.1279023" lon="12.3164269"><ele>573.0</ele><time>2026-04-17T11:50:12.93Z</time></trkpt><trkpt lat="43.1278411" lon="12.3165283"><ele>573.0</ele><time>2026-04-17T11:50:14.897Z</time></trkpt><trkpt lat="43.1277787" lon="12.3166123"><ele>573.0</ele><time>2026-04-17T11:50:16.893Z</time></trkpt><trkpt lat="43.1277324" lon="12.3166983"><ele>573.0</ele><time>2026-04-17T11:50:18.909Z</time></trkpt><trkpt lat="43.1277083" lon="12.3167786"><ele>573.0</ele><time>2026-04-17T11:50:21.911Z</time></trkpt><trkpt lat="43.1276463" lon="12.3168323"><ele>573.0</ele><time>2026-04-17T11:50:23.897Z</time></trkpt><trkpt lat="43.1275363" lon="12.3169393"><ele>573.0</ele><time>2026-04-17T11:50:25.91Z</time></trkpt><trkpt lat="43.1274867" lon="12.3170226"><ele>573.0</ele><time>2026-04-17T11:50:26.89Z</time></trkpt><trkpt lat="43.1274335" lon="12.3171076"><ele>573.0</ele><time>2026-04-17T11:50:27.906Z</time></trkpt><trkpt lat="43.1273874" lon="12.3172014"><ele>573.0</ele><time>2026-04-17T11:50:28.902Z</time></trkpt><trkpt lat="43.1273515" lon="12.3173064"><ele>573.1666666666666</ele><time>2026-04-17T11:50:29.891Z</time></trkpt><trkpt lat="43.1273135" lon="12.3173828"><ele>573.3333333333334</ele><time>2026-04-17T11:50:30.913Z</time></trkpt><trkpt lat="43.1272457" lon="12.317518"><ele>573.5</ele><time>2026-04-17T11:50:32.894Z</time></trkpt><trkpt lat="43.1271835" lon="12.3176258"><ele>573.6666666666667</ele><time>2026-04-17T11:50:34.882Z</time></trkpt><trkpt lat="43.1271484" lon="12.3176979"><ele>573.8333333333334</ele><time>2026-04-17T11:50:35.891Z</time></trkpt><trkpt lat="43.1271105" lon="12.3177716"><ele>574.0</ele><time>2026-04-17T11:50:36.887Z</time></trkpt><trkpt lat="43.1270495" lon="12.3178905"><ele>574.0</ele><time>2026-04-17T11:50:38.901Z</time></trkpt><trkpt lat="43.1269971" lon="12.3179454"><ele>574.0</ele><time>2026-04-17T11:50:39.907Z</time></trkpt><trkpt lat="43.1269217" lon="12.3180551"><ele>574.0</ele><time>2026-04-17T11:50:41.896Z</time></trkpt><trkpt lat="43.1268815" lon="12.3181283"><ele>574.0</ele><time>2026-04-17T11:50:42.903Z</time></trkpt><trkpt lat="43.1268284" lon="12.3182186"><ele>574.0</ele><time>2026-04-17T11:50:44.881Z</time></trkpt><trkpt lat="43.1268213" lon="12.3183172"><ele>574.0</ele><time>2026-04-17T11:50:46.884Z</time></trkpt><trkpt lat="43.1268199" lon="12.3184041"><ele>573.5</ele><time>2026-04-17T11:50:47.903Z</time></trkpt><trkpt lat="43.1268042" lon="12.3184911"><ele>573.0</ele><time>2026-04-17T11:50:48.856Z</time></trkpt><trkpt lat="43.1267707" lon="12.3185642"><ele>572.5</ele><time>2026-04-17T11:50:49.897Z</time></trkpt><trkpt lat="43.126728" lon="12.3186455"><ele>572.0</ele><time>2026-04-17T11:50:50.905Z</time></trkpt><trkpt lat="43.1266218" lon="12.3187499"><ele>571.5</ele><time>2026-04-17T11:50:52.887Z</time></trkpt><trkpt lat="43.1265638" lon="12.3187901"><ele>571.0</ele><time>2026-04-17T11:50:53.888Z</time></trkpt><trkpt lat="43.1264553" lon="12.3188915"><ele>567.3333333333334</ele><time>2026-04-17T11:50:55.891Z</time></trkpt><trkpt lat="43.1263984" lon="12.3189431"><ele>563.6666666666667</ele><time>2026-04-17T11:50:56.889Z</time></trkpt><trkpt lat="43.126348" lon="12.3190074"><ele>560.0</ele><time>2026-04-17T11:50:57.891Z</time></trkpt><trkpt lat="43.1262923" lon="12.3190988"><ele>556.3333333333334</ele><time>2026-04-17T11:50:58.905Z</time></trkpt><trkpt lat="43.1262352" lon="12.3191957"><ele>552.6666666666666</ele><time>2026-04-17T11:50:59.907Z</time></trkpt><trkpt lat="43.126185" lon="12.3192977"><ele>549.0</ele><time>2026-04-17T11:51:00.927Z</time></trkpt><trkpt lat="43.1261317" lon="12.3193846"><ele>549.0</ele><time>2026-04-17T11:51:01.895Z</time></trkpt><trkpt lat="43.1260794" lon="12.319463"><ele>549.0</ele><time>2026-04-17T11:51:02.893Z</time></trkpt><trkpt lat="43.1260162" lon="12.3195422"><ele>549.0</ele><time>2026-04-17T11:51:03.896Z</time></trkpt><trkpt lat="43.1259486" lon="12.3196229"><ele>549.0</ele><time>2026-04-17T11:51:04.891Z</time></trkpt><trkpt lat="43.125881" lon="12.3197018"><ele>549.0</ele><time>2026-04-17T11:51:05.879Z</time></trkpt><trkpt lat="43.1258179" lon="12.3197856"><ele>549.0</ele><time>2026-04-17T11:51:06.875Z</time></trkpt><trkpt lat="43.1257661" lon="12.3198626"><ele>545.3333333333334</ele><time>2026-04-17T11:51:07.893Z</time></trkpt><trkpt lat="43.1257133" lon="12.3199356"><ele>541.6666666666666</ele><time>2026-04-17T11:51:08.88Z</time></trkpt><trkpt lat="43.1256565" lon="12.3200009"><ele>538.0</ele><time>2026-04-17T11:51:09.891Z</time></trkpt><trkpt lat="43.1255983" lon="12.3200713"><ele>534.3333333333333</ele><time>2026-04-17T11:51:10.877Z</time></trkpt><trkpt lat="43.1255427" lon="12.3201426"><ele>530.6666666666666</ele><time>2026-04-17T11:51:11.872Z</time></trkpt><trkpt lat="43.1254905" lon="12.3202115"><ele>527.0</ele><time>2026-04-17T11:51:12.921Z</time></trkpt><trkpt lat="43.1253852" lon="12.3203188"><ele>527.0</ele><time>2026-04-17T11:51:14.86Z</time></trkpt><trkpt lat="43.1253201" lon="12.3203901"><ele>527.0</ele><time>2026-04-17T11:51:15.92Z</time></trkpt><trkpt lat="43.12525" lon="12.3204562"><ele>527.0</ele><time>2026-04-17T11:51:16.903Z</time></trkpt><trkpt lat="43.1251878" lon="12.3205272"><ele>527.0</ele><time>2026-04-17T11:51:17.895Z</time></trkpt><trkpt lat="43.1251346" lon="12.320602"><ele>527.0</ele><time>2026-04-17T11:51:18.889Z</time></trkpt><trkpt lat="43.1250841" lon="12.320668"><ele>527.0</ele><time>2026-04-17T11:51:19.892Z</time></trkpt><trkpt lat="43.1250299" lon="12.3207436"><ele>525.8571428571429</ele><time>2026-04-17T11:51:20.916Z</time></trkpt><trkpt lat="43.1249923" lon="12.3208191"><ele>524.7142857142858</ele><time>2026-04-17T11:51:21.89Z</time></trkpt><trkpt lat="43.1249564" lon="12.3209058"><ele>523.5714285714286</ele><time>2026-04-17T11:51:22.895Z</time></trkpt><trkpt lat="43.1249232" lon="12.3210025"><ele>522.4285714285714</ele><time>2026-04-17T11:51:23.849Z</time></trkpt><trkpt lat="43.1248912" lon="12.3210967"><ele>521.2857142857142</ele><time>2026-04-17T11:51:24.888Z</time></trkpt><trkpt lat="43.1248598" lon="12.321193"><ele>520.1428571428571</ele><time>2026-04-17T11:51:25.884Z</time></trkpt><trkpt lat="43.1248236" lon="12.3212694"><ele>519.0</ele><time>2026-04-17T11:51:26.909Z</time></trkpt><trkpt lat="43.124773" lon="12.3213894"><ele>517.2</ele><time>2026-04-17T11:51:28.9Z</time></trkpt><trkpt lat="43.1247366" lon="12.321479"><ele>515.4</ele><time>2026-04-17T11:51:30.894Z</time></trkpt><trkpt lat="43.1246758" lon="12.3215179"><ele>513.6</ele><time>2026-04-17T11:51:32.911Z</time></trkpt><trkpt lat="43.1245583" lon="12.3214868"><ele>511.8</ele><time>2026-04-17T11:51:34.898Z</time></trkpt><trkpt lat="43.1244511" lon="12.3214728"><ele>510.0</ele><time>2026-04-17T11:51:36.897Z</time></trkpt><trkpt lat="43.1243316" lon="12.3215153"><ele>510.0</ele><time>2026-04-17T11:51:38.894Z</time></trkpt><trkpt lat="43.1242669" lon="12.3215525"><ele>510.0</ele><time>2026-04-17T11:51:39.904Z</time></trkpt><trkpt lat="43.1242114" lon="12.3215948"><ele>510.0</ele><time>2026-04-17T11:51:40.885Z</time></trkpt><trkpt lat="43.1241462" lon="12.3216523"><ele>510.0</ele><time>2026-04-17T11:51:41.907Z</time></trkpt><trkpt lat="43.1240585" lon="12.3217222"><ele>510.0</ele><time>2026-04-17T11:51:42.889Z</time></trkpt><trkpt lat="43.1239696" lon="12.3218038"><ele>510.0</ele><time>2026-04-17T11:51:43.897Z</time></trkpt><trkpt lat="43.1239006" lon="12.3218593"><ele>509.5714285714286</ele><time>2026-04-17T11:51:44.884Z</time></trkpt><trkpt lat="43.123852" lon="12.3219152"><ele>509.1428571428572</ele><time>2026-04-17T11:51:45.898Z</time></trkpt><trkpt lat="43.1237978" lon="12.3219757"><ele>508.7142857142857</ele><time>2026-04-17T11:51:46.913Z</time></trkpt><trkpt lat="43.1237429" lon="12.3220343"><ele>508.28571428571433</ele><time>2026-04-17T11:51:47.873Z</time></trkpt><trkpt lat="43.1236877" lon="12.3220981"><ele>507.8571428571429</ele><time>2026-04-17T11:51:48.889Z</time></trkpt><trkpt lat="43.1236234" lon="12.322154"><ele>507.42857142857144</ele><time>2026-04-17T11:51:49.919Z</time></trkpt><trkpt lat="43.1235482" lon="12.3221963"><ele>507.0</ele><time>2026-04-17T11:51:50.896Z</time></trkpt><trkpt lat="43.1234824" lon="12.3222519"><ele>507.0</ele><time>2026-04-17T11:51:51.883Z</time></trkpt><trkpt lat="43.1234164" lon="12.3223064"><ele>507.0</ele><time>2026-04-17T11:51:52.858Z</time></trkpt><trkpt lat="43.1233462" lon="12.3223643"><ele>507.0</ele><time>2026-04-17T11:51:53.869Z</time></trkpt><trkpt lat="43.1232784" lon="12.3224159"><ele>507.0</ele><time>2026-04-17T11:51:54.904Z</time></trkpt><trkpt lat="43.1232015" lon="12.322469"><ele>507.0</ele><time>2026-04-17T11:51:55.902Z</time></trkpt><trkpt lat="43.123128" lon="12.3225242"><ele>507.0</ele><time>2026-04-17T11:51:56.897Z</time></trkpt><trkpt lat="43.1230759" lon="12.3225881"><ele>504.8</ele><time>2026-04-17T11:51:57.894Z</time></trkpt><trkpt lat="43.1230284" lon="12.3226508"><ele>502.6</ele><time>2026-04-17T11:51:58.896Z</time></trkpt><trkpt lat="43.1229539" lon="12.3227751"><ele>500.40000000000003</ele><time>2026-04-17T11:52:00.891Z</time></trkpt><trkpt lat="43.1228958" lon="12.3228786"><ele>498.20000000000005</ele><time>2026-04-17T11:52:02.904Z</time></trkpt><trkpt lat="43.1228459" lon="12.3230017"><ele>496.0</ele><time>2026-04-17T11:52:04.906Z</time></trkpt><trkpt lat="43.1228172" lon="12.3230916"><ele>496.00000000000006</ele><time>2026-04-17T11:52:05.913Z</time></trkpt><trkpt lat="43.1227901" lon="12.3231729"><ele>496.0</ele><time>2026-04-17T11:52:06.894Z</time></trkpt><trkpt lat="43.1227509" lon="12.3233154"><ele>496.0</ele><time>2026-04-17T11:52:08.851Z</time></trkpt><trkpt lat="43.122711" lon="12.3234331"><ele>496.0</ele><time>2026-04-17T11:52:10.868Z</time></trkpt><trkpt lat="43.1226561" lon="12.3234938"><ele>496.00000000000006</ele><time>2026-04-17T11:52:12.9Z</time></trkpt><trkpt lat="43.1225956" lon="12.3235738"><ele>496.0</ele><time>2026-04-17T11:52:14.885Z</time></trkpt><trkpt lat="43.1225278" lon="12.3237044"><ele>496.00000000000006</ele><time>2026-04-17T11:52:16.908Z</time></trkpt><trkpt lat="43.122462" lon="12.3238167"><ele>496.0</ele><time>2026-04-17T11:52:18.902Z</time></trkpt><trkpt lat="43.1224038" lon="12.3238735"><ele>496.0</ele><time>2026-04-17T11:52:20.9Z</time></trkpt><trkpt lat="43.1223424" lon="12.3239318"><ele>496.0</ele><time>2026-04-17T11:52:22.936Z</time></trkpt><trkpt lat="43.1222486" lon="12.3240511"><ele>496.00000000000006</ele><time>2026-04-17T11:52:24.906Z</time></trkpt><trkpt lat="43.1222022" lon="12.3241137"><ele>496.0</ele><time>2026-04-17T11:52:25.898Z</time></trkpt><trkpt lat="43.1221546" lon="12.3241819"><ele>492.83333333333337</ele><time>2026-04-17T11:52:26.843Z</time></trkpt><trkpt lat="43.1221109" lon="12.324267"><ele>489.6666666666667</ele><time>2026-04-17T11:52:27.857Z</time></trkpt><trkpt lat="43.1220685" lon="12.3243488"><ele>486.5</ele><time>2026-04-17T11:52:28.917Z</time></trkpt><trkpt lat="43.1220415" lon="12.3244423"><ele>483.33333333333337</ele><time>2026-04-17T11:52:29.904Z</time></trkpt><trkpt lat="43.122011" lon="12.324551"><ele>480.1666666666667</ele><time>2026-04-17T11:52:30.844Z</time></trkpt><trkpt lat="43.1219955" lon="12.3246679"><ele>477.0</ele><time>2026-04-17T11:52:31.895Z</time></trkpt><trkpt lat="43.1219747" lon="12.324764"><ele>473.8</ele><time>2026-04-17T11:52:32.864Z</time></trkpt><trkpt lat="43.1219581" lon="12.3248502"><ele>470.6</ele><time>2026-04-17T11:52:33.848Z</time></trkpt><trkpt lat="43.1219527" lon="12.3249424"><ele>467.40000000000003</ele><time>2026-04-17T11:52:34.841Z</time></trkpt><trkpt lat="43.1219599" lon="12.3250806"><ele>464.20000000000005</ele><time>2026-04-17T11:52:36.839Z</time></trkpt><trkpt lat="43.1220105" lon="12.3251956"><ele>461.0</ele><time>2026-04-17T11:52:38.892Z</time></trkpt><trkpt lat="43.1220965" lon="12.3253069"><ele>461.0</ele><time>2026-04-17T11:52:40.859Z</time></trkpt><trkpt lat="43.1221797" lon="12.3254315"><ele>461.0</ele><time>2026-04-17T11:52:42.865Z</time></trkpt><trkpt lat="43.1222291" lon="12.3254998"><ele>461.0</ele><time>2026-04-17T11:52:43.839Z</time></trkpt><trkpt lat="43.1223188" lon="12.3255837"><ele>461.0</ele><time>2026-04-17T11:52:45.842Z</time></trkpt><trkpt lat="43.1224086" lon="12.3256365"><ele>461.0</ele><time>2026-04-17T11:52:47.907Z</time></trkpt><trkpt lat="43.1225032" lon="12.3256889"><ele>459.8333333333333</ele><time>2026-04-17T11:52:49.868Z</time></trkpt><trkpt lat="43.1224854" lon="12.3257734"><ele>458.66666666666663</ele><time>2026-04-17T11:52:54.866Z</time></trkpt><trkpt lat="43.122422" lon="12.3258296"><ele>457.5</ele><time>2026-04-17T11:52:58.875Z</time></trkpt><trkpt lat="43.1223644" lon="12.3258866"><ele>456.33333333333337</ele><time>2026-04-17T11:53:00.9Z</time></trkpt><trkpt lat="43.1222902" lon="12.3259543"><ele>455.1666666666667</ele><time>2026-04-17T11:53:02.85Z</time></trkpt><trkpt lat="43.1221941" lon="12.3260062"><ele>454.0</ele><time>2026-04-17T11:53:04.904Z</time></trkpt><trkpt lat="43.1221336" lon="12.3260406"><ele>454.00000000000006</ele><time>2026-04-17T11:53:05.899Z</time></trkpt><trkpt lat="43.1220748" lon="12.3260823"><ele>454.0</ele><time>2026-04-17T11:53:06.885Z</time></trkpt><trkpt lat="43.1220168" lon="12.3261201"><ele>454.0</ele><time>2026-04-17T11:53:07.912Z</time></trkpt><trkpt lat="43.1219552" lon="12.3261553"><ele>454.0</ele><time>2026-04-17T11:53:08.905Z</time></trkpt><trkpt lat="43.1218594" lon="12.3262248"><ele>454.00000000000006</ele><time>2026-04-17T11:53:10.836Z</time></trkpt><trkpt lat="43.1217688" lon="12.3262945"><ele>454.0</ele><time>2026-04-17T11:53:12.884Z</time></trkpt><trkpt lat="43.1217139" lon="12.3263425"><ele>455.79999999999995</ele><time>2026-04-17T11:53:13.903Z</time></trkpt><trkpt lat="43.1216209" lon="12.3264309"><ele>457.59999999999997</ele><time>2026-04-17T11:53:15.903Z</time></trkpt><trkpt lat="43.1215549" lon="12.3265307"><ele>459.4</ele><time>2026-04-17T11:53:17.893Z</time></trkpt><trkpt lat="43.1215243" lon="12.3266397"><ele>461.2</ele><time>2026-04-17T11:53:19.922Z</time></trkpt><trkpt lat="43.1215045" lon="12.3267615"><ele>463.0</ele><time>2026-04-17T11:53:21.899Z</time></trkpt><trkpt lat="43.1214853" lon="12.3268767"><ele>461.4285714285714</ele><time>2026-04-17T11:53:23.911Z</time></trkpt><trkpt lat="43.1214621" lon="12.3269574"><ele>459.8571428571428</ele><time>2026-04-17T11:53:25.902Z</time></trkpt><trkpt lat="43.1214205" lon="12.3270713"><ele>458.2857142857143</ele><time>2026-04-17T11:54:15.904Z</time></trkpt><trkpt lat="43.1213714" lon="12.3271425"><ele>456.71428571428567</ele><time>2026-04-17T11:54:24.877Z</time></trkpt><trkpt lat="43.1213076" lon="12.3271871"><ele>455.1428571428571</ele><time>2026-04-17T11:55:15.899Z</time></trkpt><trkpt lat="43.1213706" lon="12.3271602"><ele>453.57142857142856</ele><time>2026-04-17T11:55:35.889Z</time></trkpt><trkpt lat="43.1212996" lon="12.327204"><ele>452.0</ele><time>2026-04-17T11:56:42.855Z</time></trkpt><trkpt lat="43.1212425" lon="12.3272868"><ele>451.99999999999994</ele><time>2026-04-17T11:57:16.91Z</time></trkpt><trkpt lat="43.1211866" lon="12.3273498"><ele>452.0</ele><time>2026-04-17T11:57:22.904Z</time></trkpt><trkpt lat="43.1211368" lon="12.3274278"><ele>452.0</ele><time>2026-04-17T11:57:26.908Z</time></trkpt><trkpt lat="43.1210947" lon="12.3275043"><ele>452.0</ele><time>2026-04-17T11:57:29.912Z</time></trkpt><trkpt lat="43.1210389" lon="12.3275983"><ele>451.99999999999994</ele><time>2026-04-17T11:57:57.908Z</time></trkpt><trkpt lat="43.120998" lon="12.327667"><ele>452.0</ele><time>2026-04-17T11:59:11.916Z</time></trkpt><trkpt lat="43.1209247" lon="12.3277403"><ele>451.99999999999994</ele><time>2026-04-17T11:59:14.909Z</time></trkpt><trkpt lat="43.1208672" lon="12.3277824"><ele>452.0</ele><time>2026-04-17T11:59:16.886Z</time></trkpt><trkpt lat="43.1208045" lon="12.3277935"><ele>452.0</ele><time>2026-04-17T11:59:18.901Z</time></trkpt><trkpt lat="43.120721" lon="12.3278188"><ele>452.0</ele><time>2026-04-17T11:59:20.86Z</time></trkpt><trkpt lat="43.1206253" lon="12.3278999"><ele>451.99999999999994</ele><time>2026-04-17T11:59:22.908Z</time></trkpt><trkpt lat="43.1205662" lon="12.3279569"><ele>452.0</ele><time>2026-04-17T11:59:23.904Z</time></trkpt><trkpt lat="43.120506" lon="12.3279988"><ele>452.49999999999994</ele><time>2026-04-17T11:59:24.887Z</time></trkpt><trkpt lat="43.1203957" lon="12.3280807"><ele>453.0</ele><time>2026-04-17T11:59:26.911Z</time></trkpt><trkpt lat="43.1203329" lon="12.3281241"><ele>453.5</ele><time>2026-04-17T11:59:27.901Z</time></trkpt><trkpt lat="43.1202805" lon="12.3281725"><ele>454.0</ele><time>2026-04-17T11:59:28.885Z</time></trkpt><trkpt lat="43.1202393" lon="12.3282396"><ele>454.49999999999994</ele><time>2026-04-17T11:59:29.898Z</time></trkpt><trkpt lat="43.1201567" lon="12.3283706"><ele>455.0</ele><time>2026-04-17T11:59:31.864Z</time></trkpt><trkpt lat="43.1201229" lon="12.3284461"><ele>454.99999999999994</ele><time>2026-04-17T11:59:32.894Z</time></trkpt><trkpt lat="43.1201096" lon="12.3285684"><ele>455.0</ele><time>2026-04-17T11:59:34.892Z</time></trkpt><trkpt lat="43.1201342" lon="12.328684"><ele>455.0</ele><time>2026-04-17T11:59:36.922Z</time></trkpt><trkpt lat="43.1201604" lon="12.3287868"><ele>455.0</ele><time>2026-04-17T11:59:38.902Z</time></trkpt><trkpt lat="43.1201288" lon="12.328897"><ele>454.99999999999994</ele><time>2026-04-17T11:59:41.905Z</time></trkpt><trkpt lat="43.1200726" lon="12.3289443"><ele>455.0</ele><time>2026-04-17T11:59:43.851Z</time></trkpt><trkpt lat="43.1199621" lon="12.3289207"><ele>452.75</ele><time>2026-04-17T11:59:45.92Z</time></trkpt><trkpt lat="43.1198447" lon="12.3289006"><ele>450.5</ele><time>2026-04-17T11:59:47.928Z</time></trkpt><trkpt lat="43.1197342" lon="12.3289151"><ele>448.25</ele><time>2026-04-17T11:59:49.872Z</time></trkpt><trkpt lat="43.1196105" lon="12.3289586"><ele>446.0</ele><time>2026-04-17T11:59:51.907Z</time></trkpt><trkpt lat="43.1195088" lon="12.3289826"><ele>446.0</ele><time>2026-04-17T11:59:53.903Z</time></trkpt><trkpt lat="43.1194258" lon="12.3290429"><ele>446.0</ele><time>2026-04-17T11:59:55.903Z</time></trkpt><trkpt lat="43.119345" lon="12.3291412"><ele>446.0</ele><time>2026-04-17T11:59:57.907Z</time></trkpt><trkpt lat="43.1192796" lon="12.3292576"><ele>446.0</ele><time>2026-04-17T11:59:59.893Z</time></trkpt><trkpt lat="43.119245" lon="12.3293962"><ele>446.0</ele><time>2026-04-17T12:00:01.911Z</time></trkpt><trkpt lat="43.1191994" lon="12.329484"><ele>446.0</ele><time>2026-04-17T12:00:03.899Z</time></trkpt><trkpt lat="43.1191373" lon="12.3295458"><ele>446.0</ele><time>2026-04-17T12:00:05.894Z</time></trkpt><trkpt lat="43.1190444" lon="12.3295932"><ele>446.0</ele><time>2026-04-17T12:00:07.898Z</time></trkpt><trkpt lat="43.1189817" lon="12.3296055"><ele>446.0</ele><time>2026-04-17T12:00:09.908Z</time></trkpt><trkpt lat="43.1189127" lon="12.329623"><ele>446.0</ele><time>2026-04-17T12:00:11.88Z</time></trkpt><trkpt lat="43.1188471" lon="12.3296228"><ele>446.0</ele><time>2026-04-17T12:00:14.895Z</time></trkpt><trkpt lat="43.1189171" lon="12.3296323"><ele>446.0</ele><time>2026-04-17T12:00:21.897Z</time></trkpt><trkpt lat="43.1189834" lon="12.329632"><ele>445.99999999999994</ele><time>2026-04-17T12:00:23.903Z</time></trkpt><trkpt lat="43.1190645" lon="12.3296191"><ele>446.0</ele><time>2026-04-17T12:00:25.877Z</time></trkpt><trkpt lat="43.1191373" lon="12.3295681"><ele>446.0</ele><time>2026-04-17T12:00:27.853Z</time></trkpt><trkpt lat="43.1191925" lon="12.3294636"><ele>446.0</ele><time>2026-04-17T12:00:29.912Z</time></trkpt><trkpt lat="43.1192248" lon="12.3293601"><ele>445.99999999999994</ele><time>2026-04-17T12:00:31.907Z</time></trkpt><trkpt lat="43.1192748" lon="12.3292911"><ele>446.0</ele><time>2026-04-17T12:00:34.894Z</time></trkpt><trkpt lat="43.1193509" lon="12.329215"><ele>445.99999999999994</ele><time>2026-04-17T12:00:37.897Z</time></trkpt><trkpt lat="43.1194071" lon="12.3291499"><ele>446.0</ele><time>2026-04-17T12:00:38.898Z</time></trkpt><trkpt lat="43.1194809" lon="12.3290893"><ele>446.0</ele><time>2026-04-17T12:00:39.912Z</time></trkpt><trkpt lat="43.1195461" lon="12.3290365"><ele>446.0</ele><time>2026-04-17T12:00:40.901Z</time></trkpt><trkpt lat="43.1196218" lon="12.3289845"><ele>445.99999999999994</ele><time>2026-04-17T12:00:41.917Z</time></trkpt><trkpt lat="43.1197038" lon="12.3289525"><ele>446.0</ele><time>2026-04-17T12:00:42.89Z</time></trkpt><trkpt lat="43.1197865" lon="12.3289481"><ele>445.99999999999994</ele><time>2026-04-17T12:00:43.9Z</time></trkpt><trkpt lat="43.119872" lon="12.3289555"><ele>446.0</ele><time>2026-04-17T12:00:44.907Z</time></trkpt><trkpt lat="43.1199423" lon="12.3289467"><ele>446.0</ele><time>2026-04-17T12:00:45.89Z</time></trkpt><trkpt lat="43.1200278" lon="12.3289063"><ele>446.0</ele><time>2026-04-17T12:00:47.895Z</time></trkpt><trkpt lat="43.120087" lon="12.328842"><ele>445.99999999999994</ele><time>2026-04-17T12:00:49.904Z</time></trkpt><trkpt lat="43.1200889" lon="12.328754"><ele>446.0</ele><time>2026-04-17T12:00:52.935Z</time></trkpt><trkpt lat="43.1200465" lon="12.3286509"><ele>447.8</ele><time>2026-04-17T12:00:55.889Z</time></trkpt><trkpt lat="43.1200482" lon="12.3285621"><ele>449.6</ele><time>2026-04-17T12:00:57.911Z</time></trkpt><trkpt lat="43.120096" lon="12.3284429"><ele>451.4</ele><time>2026-04-17T12:00:59.892Z</time></trkpt><trkpt lat="43.120149" lon="12.3283438"><ele>453.2</ele><time>2026-04-17T12:01:01.901Z</time></trkpt><trkpt lat="43.1202283" lon="12.3282505"><ele>455.0</ele><time>2026-04-17T12:01:03.902Z</time></trkpt><trkpt lat="43.1203347" lon="12.3281696"><ele>455.0</ele><time>2026-04-17T12:01:05.911Z</time></trkpt><trkpt lat="43.1204397" lon="12.3281219"><ele>455.0</ele><time>2026-04-17T12:01:07.909Z</time></trkpt><trkpt lat="43.1205344" lon="12.3280479"><ele>455.0</ele><time>2026-04-17T12:01:09.906Z</time></trkpt><trkpt lat="43.1206182" lon="12.3279664"><ele>455.0</ele><time>2026-04-17T12:01:11.895Z</time></trkpt><trkpt lat="43.1206852" lon="12.3279064"><ele>455.0</ele><time>2026-04-17T12:01:13.931Z</time></trkpt><trkpt lat="43.1207636" lon="12.3278499"><ele>454.4</ele><time>2026-04-17T12:01:15.912Z</time></trkpt><trkpt lat="43.1208486" lon="12.3277873"><ele>453.8</ele><time>2026-04-17T12:01:17.904Z</time></trkpt><trkpt lat="43.1209386" lon="12.3277021"><ele>453.20000000000005</ele><time>2026-04-17T12:01:19.915Z</time></trkpt><trkpt lat="43.1210339" lon="12.3275943"><ele>452.6</ele><time>2026-04-17T12:01:21.913Z</time></trkpt><trkpt lat="43.1210852" lon="12.3275398"><ele>452.0</ele><time>2026-04-17T12:01:22.917Z</time></trkpt><trkpt lat="43.1211767" lon="12.3274494"><ele>452.0</ele><time>2026-04-17T12:01:24.889Z</time></trkpt><trkpt lat="43.121272" lon="12.3273657"><ele>452.00000000000006</ele><time>2026-04-17T12:01:26.903Z</time></trkpt><trkpt lat="43.121357" lon="12.3272578"><ele>452.00000000000006</ele><time>2026-04-17T12:01:28.903Z</time></trkpt><trkpt lat="43.1213939" lon="12.3271853"><ele>452.0</ele><time>2026-04-17T12:01:29.896Z</time></trkpt><trkpt lat="43.121429" lon="12.3270304"><ele>452.0</ele><time>2026-04-17T12:01:31.893Z</time></trkpt><trkpt lat="43.1214442" lon="12.3269253"><ele>452.28571428571433</ele><time>2026-04-17T12:01:32.901Z</time></trkpt><trkpt lat="43.121475" lon="12.3268202"><ele>452.57142857142856</ele><time>2026-04-17T12:01:33.912Z</time></trkpt><trkpt lat="43.1214909" lon="12.3267265"><ele>452.8571428571429</ele><time>2026-04-17T12:01:34.929Z</time></trkpt><trkpt lat="43.1215198" lon="12.3266414"><ele>453.14285714285717</ele><time>2026-04-17T12:01:35.893Z</time></trkpt><trkpt lat="43.1215681" lon="12.3265644"><ele>453.42857142857144</ele><time>2026-04-17T12:01:36.902Z</time></trkpt><trkpt lat="43.1216194" lon="12.3265053"><ele>453.7142857142857</ele><time>2026-04-17T12:01:37.888Z</time></trkpt><trkpt lat="43.1216689" lon="12.3264403"><ele>454.0</ele><time>2026-04-17T12:01:38.894Z</time></trkpt><trkpt lat="43.1217668" lon="12.3263402"><ele>454.00000000000006</ele><time>2026-04-17T12:01:40.898Z</time></trkpt><trkpt lat="43.1218756" lon="12.3262534"><ele>454.0</ele><time>2026-04-17T12:01:42.859Z</time></trkpt><trkpt lat="43.1219278" lon="12.3261929"><ele>454.0</ele><time>2026-04-17T12:01:43.91Z</time></trkpt><trkpt lat="43.1219927" lon="12.3261487"><ele>454.0</ele><time>2026-04-17T12:01:44.892Z</time></trkpt><trkpt lat="43.1220563" lon="12.3261021"><ele>454.00000000000006</ele><time>2026-04-17T12:01:45.904Z</time></trkpt><trkpt lat="43.1221252" lon="12.3260634"><ele>454.0</ele><time>2026-04-17T12:01:46.906Z</time></trkpt><trkpt lat="43.1221838" lon="12.3260136"><ele>454.00000000000006</ele><time>2026-04-17T12:01:47.928Z</time></trkpt><trkpt lat="43.1222424" lon="12.3259616"><ele>454.0</ele><time>2026-04-17T12:01:48.919Z</time></trkpt><trkpt lat="43.1222986" lon="12.3259144"><ele>454.0</ele><time>2026-04-17T12:01:49.883Z</time></trkpt><trkpt lat="43.1223895" lon="12.32586"><ele>454.0</ele><time>2026-04-17T12:01:51.913Z</time></trkpt><trkpt lat="43.1224661" lon="12.3258498"><ele>454.00000000000006</ele><time>2026-04-17T12:01:53.902Z</time></trkpt><trkpt lat="43.1225441" lon="12.3258076"><ele>454.0</ele><time>2026-04-17T12:01:56.886Z</time></trkpt><trkpt lat="43.1224668" lon="12.3257602"><ele>454.00000000000006</ele><time>2026-04-17T12:01:59.893Z</time></trkpt><trkpt lat="43.1223697" lon="12.3256974"><ele>454.0</ele><time>2026-04-17T12:02:01.862Z</time></trkpt><trkpt lat="43.1222647" lon="12.3255978"><ele>454.0</ele><time>2026-04-17T12:02:03.911Z</time></trkpt><trkpt lat="43.1222219" lon="12.325517"><ele>454.0</ele><time>2026-04-17T12:02:04.904Z</time></trkpt><trkpt lat="43.1221778" lon="12.3254486"><ele>454.00000000000006</ele><time>2026-04-17T12:02:05.883Z</time></trkpt><trkpt lat="43.1221276" lon="12.3253729"><ele>454.0</ele><time>2026-04-17T12:02:06.916Z</time></trkpt><trkpt lat="43.1220723" lon="12.3252887"><ele>455.4</ele><time>2026-04-17T12:02:07.902Z</time></trkpt><trkpt lat="43.1220318" lon="12.3252141"><ele>456.79999999999995</ele><time>2026-04-17T12:02:08.915Z</time></trkpt><trkpt lat="43.1219956" lon="12.3250652"><ele>458.20000000000005</ele><time>2026-04-17T12:02:10.898Z</time></trkpt><trkpt lat="43.1219999" lon="12.3249254"><ele>459.6</ele><time>2026-04-17T12:02:12.875Z</time></trkpt><trkpt lat="43.1220056" lon="12.3247887"><ele>461.0</ele><time>2026-04-17T12:02:14.903Z</time></trkpt><trkpt lat="43.1220432" lon="12.3246441"><ele>464.20000000000005</ele><time>2026-04-17T12:02:16.906Z</time></trkpt><trkpt lat="43.1220822" lon="12.3244979"><ele>467.40000000000003</ele><time>2026-04-17T12:02:18.907Z</time></trkpt><trkpt lat="43.1221102" lon="12.3244181"><ele>470.6</ele><time>2026-04-17T12:02:19.896Z</time></trkpt><trkpt lat="43.1221718" lon="12.3242769"><ele>473.8</ele><time>2026-04-17T12:02:21.904Z</time></trkpt><trkpt lat="43.1222426" lon="12.3241539"><ele>477.0</ele><time>2026-04-17T12:02:23.912Z</time></trkpt><trkpt lat="43.1222893" lon="12.3240941"><ele>477.0</ele><time>2026-04-17T12:02:24.898Z</time></trkpt><trkpt lat="43.1223732" lon="12.324002"><ele>477.0</ele><time>2026-04-17T12:02:26.892Z</time></trkpt><trkpt lat="43.1224653" lon="12.3239157"><ele>477.0</ele><time>2026-04-17T12:02:28.908Z</time></trkpt><trkpt lat="43.1225661" lon="12.3237987"><ele>477.0</ele><time>2026-04-17T12:02:30.882Z</time></trkpt><trkpt lat="43.1226594" lon="12.3236736"><ele>480.1666666666667</ele><time>2026-04-17T12:02:32.926Z</time></trkpt><trkpt lat="43.1227035" lon="12.3236115"><ele>483.33333333333337</ele><time>2026-04-17T12:02:33.913Z</time></trkpt><trkpt lat="43.1227862" lon="12.3234849"><ele>486.5</ele><time>2026-04-17T12:02:35.904Z</time></trkpt><trkpt lat="43.1228279" lon="12.3234006"><ele>489.6666666666667</ele><time>2026-04-17T12:02:36.899Z</time></trkpt><trkpt lat="43.1228609" lon="12.3233179"><ele>492.83333333333337</ele><time>2026-04-17T12:02:37.91Z</time></trkpt><trkpt lat="43.1228987" lon="12.3232402"><ele>496.0</ele><time>2026-04-17T12:02:38.913Z</time></trkpt><trkpt lat="43.1229314" lon="12.3231494"><ele>494.75</ele><time>2026-04-17T12:02:39.892Z</time></trkpt><trkpt lat="43.1229726" lon="12.3229999"><ele>493.5</ele><time>2026-04-17T12:02:41.902Z</time></trkpt><trkpt lat="43.123004" lon="12.3228654"><ele>492.25</ele><time>2026-04-17T12:02:43.919Z</time></trkpt><trkpt lat="43.1230607" lon="12.3227314"><ele>491.0</ele><time>2026-04-17T12:02:45.884Z</time></trkpt><trkpt lat="43.1231579" lon="12.3226202"><ele>490.99999999999994</ele><time>2026-04-17T12:02:47.91Z</time></trkpt><trkpt lat="43.1232266" lon="12.3225643"><ele>491.0</ele><time>2026-04-17T12:02:48.905Z</time></trkpt><trkpt lat="43.123293" lon="12.3225128"><ele>491.0</ele><time>2026-04-17T12:02:49.903Z</time></trkpt><trkpt lat="43.1233614" lon="12.3224562"><ele>491.0</ele><time>2026-04-17T12:02:50.886Z</time></trkpt><trkpt lat="43.1234388" lon="12.3223974"><ele>490.99999999999994</ele><time>2026-04-17T12:02:51.92Z</time></trkpt><trkpt lat="43.1235147" lon="12.3223402"><ele>491.0</ele><time>2026-04-17T12:02:52.87Z</time></trkpt><trkpt lat="43.1235873" lon="12.3222835"><ele>490.66666666666663</ele><time>2026-04-17T12:02:53.888Z</time></trkpt><trkpt lat="43.1236594" lon="12.3222214"><ele>490.3333333333333</ele><time>2026-04-17T12:02:54.906Z</time></trkpt><trkpt lat="43.1237252" lon="12.3221596"><ele>490.0</ele><time>2026-04-17T12:02:55.9Z</time></trkpt><trkpt lat="43.1237836" lon="12.3220982"><ele>489.66666666666663</ele><time>2026-04-17T12:02:56.905Z</time></trkpt><trkpt lat="43.123842" lon="12.3220327"><ele>489.3333333333333</ele><time>2026-04-17T12:02:57.912Z</time></trkpt><trkpt lat="43.1239133" lon="12.3219656"><ele>489.0</ele><time>2026-04-17T12:02:58.858Z</time></trkpt><trkpt lat="43.1239911" lon="12.321876"><ele>493.2</ele><time>2026-04-17T12:02:59.911Z</time></trkpt><trkpt lat="43.1240699" lon="12.3217909"><ele>497.4</ele><time>2026-04-17T12:03:00.9Z</time></trkpt><trkpt lat="43.1241572" lon="12.3217242"><ele>501.6</ele><time>2026-04-17T12:03:01.91Z</time></trkpt><trkpt lat="43.1242382" lon="12.321665"><ele>505.8</ele><time>2026-04-17T12:03:02.902Z</time></trkpt><trkpt lat="43.124307" lon="12.3216194"><ele>510.0</ele><time>2026-04-17T12:03:03.912Z</time></trkpt><trkpt lat="43.1244192" lon="12.3215661"><ele>510.0</ele><time>2026-04-17T12:03:05.912Z</time></trkpt><trkpt lat="43.1244834" lon="12.3215449"><ele>510.0</ele><time>2026-04-17T12:03:06.9Z</time></trkpt><trkpt lat="43.1245531" lon="12.3215499"><ele>510.0</ele><time>2026-04-17T12:03:07.899Z</time></trkpt><trkpt lat="43.1246241" lon="12.3215802"><ele>510.0</ele><time>2026-04-17T12:03:08.91Z</time></trkpt><trkpt lat="43.1246871" lon="12.3215913"><ele>510.0</ele><time>2026-04-17T12:03:09.905Z</time></trkpt><trkpt lat="43.1247577" lon="12.3215215"><ele>510.0</ele><time>2026-04-17T12:03:11.895Z</time></trkpt><trkpt lat="43.1247884" lon="12.3213951"><ele>509.0</ele><time>2026-04-17T12:03:14.908Z</time></trkpt><trkpt lat="43.1248334" lon="12.3213205"><ele>508.00000000000006</ele><time>2026-04-17T12:03:15.892Z</time></trkpt><trkpt lat="43.1248678" lon="12.3212403"><ele>507.0</ele><time>2026-04-17T12:03:16.894Z</time></trkpt><trkpt lat="43.1248999" lon="12.3211567"><ele>506.0</ele><time>2026-04-17T12:03:17.915Z</time></trkpt><trkpt lat="43.1249345" lon="12.3210682"><ele>505.00000000000006</ele><time>2026-04-17T12:03:18.913Z</time></trkpt><trkpt lat="43.1249655" lon="12.3209867"><ele>504.0</ele><time>2026-04-17T12:03:19.904Z</time></trkpt><trkpt lat="43.1250028" lon="12.3209092"><ele>503.0</ele><time>2026-04-17T12:03:20.902Z</time></trkpt><trkpt lat="43.125044" lon="12.3208314"><ele>505.28571428571433</ele><time>2026-04-17T12:03:21.908Z</time></trkpt><trkpt lat="43.1250855" lon="12.3207503"><ele>507.5714285714286</ele><time>2026-04-17T12:03:22.883Z</time></trkpt><trkpt lat="43.125127" lon="12.3206781"><ele>509.8571428571429</ele><time>2026-04-17T12:03:23.913Z</time></trkpt><trkpt lat="43.1251717" lon="12.3206052"><ele>512.1428571428571</ele><time>2026-04-17T12:03:24.9Z</time></trkpt><trkpt lat="43.1252223" lon="12.3205383"><ele>514.4285714285713</ele><time>2026-04-17T12:03:25.901Z</time></trkpt><trkpt lat="43.1252777" lon="12.3204705"><ele>516.7142857142857</ele><time>2026-04-17T12:03:26.924Z</time></trkpt><trkpt lat="43.1253492" lon="12.3203951"><ele>519.0</ele><time>2026-04-17T12:03:27.902Z</time></trkpt><trkpt lat="43.1254248" lon="12.3203229"><ele>520.6</ele><time>2026-04-17T12:03:28.885Z</time></trkpt><trkpt lat="43.1255024" lon="12.3202482"><ele>522.2</ele><time>2026-04-17T12:03:29.918Z</time></trkpt><trkpt lat="43.1255757" lon="12.3201712"><ele>523.8000000000001</ele><time>2026-04-17T12:03:30.902Z</time></trkpt><trkpt lat="43.125649" lon="12.3200944"><ele>525.4</ele><time>2026-04-17T12:03:31.888Z</time></trkpt><trkpt lat="43.1257202" lon="12.3200079"><ele>527.0</ele><time>2026-04-17T12:03:32.89Z</time></trkpt><trkpt lat="43.1257895" lon="12.3199195"><ele>529.0</ele><time>2026-04-17T12:03:33.901Z</time></trkpt><trkpt lat="43.1258521" lon="12.3198427"><ele>531.0</ele><time>2026-04-17T12:03:34.905Z</time></trkpt><trkpt lat="43.1259178" lon="12.3197749"><ele>533.0</ele><time>2026-04-17T12:03:35.892Z</time></trkpt><trkpt lat="43.1259881" lon="12.3197096"><ele>535.0</ele><time>2026-04-17T12:03:36.913Z</time></trkpt><trkpt lat="43.126054" lon="12.3196421"><ele>537.0</ele><time>2026-04-17T12:03:37.898Z</time></trkpt><trkpt lat="43.1261181" lon="12.3195734"><ele>539.0</ele><time>2026-04-17T12:03:38.9Z</time></trkpt><trkpt lat="43.1261825" lon="12.3195054"><ele>540.6666666666666</ele><time>2026-04-17T12:03:39.888Z</time></trkpt><trkpt lat="43.1262448" lon="12.3194205"><ele>542.3333333333333</ele><time>2026-04-17T12:03:40.891Z</time></trkpt><trkpt lat="43.1262988" lon="12.3193189"><ele>544.0</ele><time>2026-04-17T12:03:41.893Z</time></trkpt><trkpt lat="43.1263445" lon="12.3192233"><ele>545.6666666666666</ele><time>2026-04-17T12:03:42.878Z</time></trkpt><trkpt lat="43.1263936" lon="12.3191432"><ele>547.3333333333334</ele><time>2026-04-17T12:03:43.878Z</time></trkpt><trkpt lat="43.1264483" lon="12.3190776"><ele>549.0</ele><time>2026-04-17T12:03:44.887Z</time></trkpt><trkpt lat="43.1265124" lon="12.319019"><ele>550.4</ele><time>2026-04-17T12:03:45.868Z</time></trkpt><trkpt lat="43.1265904" lon="12.3189425"><ele>551.8</ele><time>2026-04-17T12:03:46.839Z</time></trkpt><trkpt lat="43.1266847" lon="12.3188619"><ele>553.2</ele><time>2026-04-17T12:03:48.832Z</time></trkpt><trkpt lat="43.1267248" lon="12.3187619"><ele>554.6</ele><time>2026-04-17T12:03:50.874Z</time></trkpt><trkpt lat="43.1267368" lon="12.3186014"><ele>556.0</ele><time>2026-04-17T12:03:52.864Z</time></trkpt><trkpt lat="43.1267521" lon="12.3185005"><ele>556.4</ele><time>2026-04-17T12:03:54.868Z</time></trkpt><trkpt lat="43.1267951" lon="12.3183798"><ele>556.8</ele><time>2026-04-17T12:03:56.874Z</time></trkpt><trkpt lat="43.1268262" lon="12.3182969"><ele>557.1999999999999</ele><time>2026-04-17T12:03:57.886Z</time></trkpt><trkpt lat="43.126885" lon="12.3181451"><ele>557.6</ele><time>2026-04-17T12:03:59.898Z</time></trkpt><trkpt lat="43.1269346" lon="12.3180504"><ele>558.0</ele><time>2026-04-17T12:04:00.901Z</time></trkpt><trkpt lat="43.1269971" lon="12.317939"><ele>560.6666666666666</ele><time>2026-04-17T12:04:01.885Z</time></trkpt><trkpt lat="43.1270546" lon="12.3178321"><ele>563.3333333333334</ele><time>2026-04-17T12:04:02.902Z</time></trkpt><trkpt lat="43.1271066" lon="12.3177199"><ele>566.0</ele><time>2026-04-17T12:04:03.878Z</time></trkpt><trkpt lat="43.1271571" lon="12.3176256"><ele>568.6666666666667</ele><time>2026-04-17T12:04:04.894Z</time></trkpt><trkpt lat="43.1272046" lon="12.3175271"><ele>571.3333333333334</ele><time>2026-04-17T12:04:05.867Z</time></trkpt><trkpt lat="43.1272488" lon="12.3174411"><ele>574.0</ele><time>2026-04-17T12:04:06.89Z</time></trkpt><trkpt lat="43.1272851" lon="12.3173394"><ele>574.0</ele><time>2026-04-17T12:04:07.9Z</time></trkpt><trkpt lat="43.1273319" lon="12.3172526"><ele>574.0</ele><time>2026-04-17T12:04:08.903Z</time></trkpt><trkpt lat="43.1273743" lon="12.3171855"><ele>574.0</ele><time>2026-04-17T12:04:09.885Z</time></trkpt><trkpt lat="43.1274154" lon="12.3171175"><ele>574.0</ele><time>2026-04-17T12:04:10.895Z</time></trkpt><trkpt lat="43.1275055" lon="12.3170121"><ele>574.0</ele><time>2026-04-17T12:04:12.897Z</time></trkpt><trkpt lat="43.1275698" lon="12.3169074"><ele>574.0</ele><time>2026-04-17T12:04:14.891Z</time></trkpt><trkpt lat="43.1276192" lon="12.3167771"><ele>573.8333333333334</ele><time>2026-04-17T12:04:16.88Z</time></trkpt><trkpt lat="43.1276671" lon="12.3167092"><ele>573.6666666666667</ele><time>2026-04-17T12:04:17.897Z</time></trkpt><trkpt lat="43.1277195" lon="12.3166442"><ele>573.5</ele><time>2026-04-17T12:04:18.859Z</time></trkpt><trkpt lat="43.1277907" lon="12.3165709"><ele>573.3333333333334</ele><time>2026-04-17T12:04:19.877Z</time></trkpt><trkpt lat="43.1278634" lon="12.3164906"><ele>573.1666666666666</ele><time>2026-04-17T12:04:20.892Z</time></trkpt><trkpt lat="43.1279353" lon="12.3164056"><ele>573.0</ele><time>2026-04-17T12:04:21.891Z</time></trkpt><trkpt lat="43.1279985" lon="12.3163143"><ele>573.0</ele><time>2026-04-17T12:04:22.889Z</time></trkpt><trkpt lat="43.1280815" lon="12.3162321"><ele>573.0</ele><time>2026-04-17T12:04:23.897Z</time></trkpt><trkpt lat="43.1281624" lon="12.3161555"><ele>573.0</ele><time>2026-04-17T12:04:24.884Z</time></trkpt><trkpt lat="43.1282418" lon="12.3160788"><ele>573.0</ele><time>2026-04-17T12:04:25.877Z</time></trkpt><trkpt lat="43.1283501" lon="12.316012"><ele>573.0</ele><time>2026-04-17T12:04:26.902Z</time></trkpt><trkpt lat="43.1284371" lon="12.3159685"><ele>573.0</ele><time>2026-04-17T12:04:27.907Z</time></trkpt><trkpt lat="43.1285428" lon="12.3159346"><ele>573.0</ele><time>2026-04-17T12:04:28.905Z</time></trkpt><trkpt lat="43.1286496" lon="12.3159069"><ele>573.0</ele><time>2026-04-17T12:04:29.894Z</time></trkpt><trkpt lat="43.1287552" lon="12.3158737"><ele>573.0</ele><time>2026-04-17T12:04:30.875Z</time></trkpt><trkpt lat="43.1288613" lon="12.3158304"><ele>573.0</ele><time>2026-04-17T12:04:31.915Z</time></trkpt><trkpt lat="43.1289624" lon="12.3157699"><ele>574.8</ele><time>2026-04-17T12:04:32.899Z</time></trkpt><trkpt lat="43.1290623" lon="12.315715"><ele>576.5999999999999</ele><time>2026-04-17T12:04:33.881Z</time></trkpt><trkpt lat="43.1291676" lon="12.3156743"><ele>578.4000000000001</ele><time>2026-04-17T12:04:34.894Z</time></trkpt><trkpt lat="43.1292705" lon="12.3156465"><ele>580.2</ele><time>2026-04-17T12:04:35.899Z</time></trkpt><trkpt lat="43.1293605" lon="12.3156297"><ele>582.0</ele><time>2026-04-17T12:04:36.909Z</time></trkpt><trkpt lat="43.1294446" lon="12.3156294"><ele>582.0</ele><time>2026-04-17T12:04:37.891Z</time></trkpt><trkpt lat="43.1295212" lon="12.3156631"><ele>582.0</ele><time>2026-04-17T12:04:38.89Z</time></trkpt><trkpt lat="43.1295895" lon="12.315718"><ele>582.0</ele><time>2026-04-17T12:04:39.892Z</time></trkpt><trkpt lat="43.129659" lon="12.3157644"><ele>582.0</ele><time>2026-04-17T12:04:40.909Z</time></trkpt><trkpt lat="43.1297235" lon="12.315796"><ele>582.0</ele><time>2026-04-17T12:04:41.886Z</time></trkpt><trkpt lat="43.1298496" lon="12.3157962"><ele>582.0</ele><time>2026-04-17T12:04:43.911Z</time></trkpt><trkpt lat="43.1299383" lon="12.3157623"><ele>583.2</ele><time>2026-04-17T12:04:44.894Z</time></trkpt><trkpt lat="43.1300284" lon="12.3157426"><ele>584.4000000000001</ele><time>2026-04-17T12:04:45.894Z</time></trkpt><trkpt lat="43.1301215" lon="12.315727"><ele>585.5999999999999</ele><time>2026-04-17T12:04:46.909Z</time></trkpt><trkpt lat="43.1302158" lon="12.3157193"><ele>586.8</ele><time>2026-04-17T12:04:47.891Z</time></trkpt><trkpt lat="43.1303072" lon="12.3157321"><ele>588.0</ele><time>2026-04-17T12:04:48.872Z</time></trkpt><trkpt lat="43.1304178" lon="12.3157416"><ele>588.0</ele><time>2026-04-17T12:04:49.894Z</time></trkpt><trkpt lat="43.1305369" lon="12.3157556"><ele>588.0</ele><time>2026-04-17T12:04:50.894Z</time></trkpt><trkpt lat="43.1306575" lon="12.3157747"><ele>588.0</ele><time>2026-04-17T12:04:51.899Z</time></trkpt><trkpt lat="43.1307607" lon="12.3157985"><ele>588.0</ele><time>2026-04-17T12:04:52.896Z</time></trkpt><trkpt lat="43.1308588" lon="12.3158095"><ele>588.0</ele><time>2026-04-17T12:04:53.894Z</time></trkpt><trkpt lat="43.1309685" lon="12.3157864"><ele>589.1999999999999</ele><time>2026-04-17T12:04:54.891Z</time></trkpt><trkpt lat="43.1310739" lon="12.3157401"><ele>590.4</ele><time>2026-04-17T12:04:55.892Z</time></trkpt><trkpt lat="43.1311695" lon="12.3157163"><ele>591.5999999999999</ele><time>2026-04-17T12:04:56.904Z</time></trkpt><trkpt lat="43.1312593" lon="12.3157252"><ele>592.8</ele><time>2026-04-17T12:04:57.917Z</time></trkpt><trkpt lat="43.1313509" lon="12.3157666"><ele>594.0</ele><time>2026-04-17T12:04:58.899Z</time></trkpt><trkpt lat="43.1314181" lon="12.3158294"><ele>594.0</ele><time>2026-04-17T12:04:59.897Z</time></trkpt><trkpt lat="43.1314887" lon="12.3159179"><ele>594.0</ele><time>2026-04-17T12:05:00.881Z</time></trkpt><trkpt lat="43.1315542" lon="12.3160393"><ele>594.0</ele><time>2026-04-17T12:05:01.9Z</time></trkpt><trkpt lat="43.1316253" lon="12.3161437"><ele>594.0</ele><time>2026-04-17T12:05:02.884Z</time></trkpt><trkpt lat="43.1316926" lon="12.3162391"><ele>594.0</ele><time>2026-04-17T12:05:03.902Z</time></trkpt><trkpt lat="43.1317421" lon="12.3163594"><ele>593.8</ele><time>2026-04-17T12:05:04.91Z</time></trkpt><trkpt lat="43.1317957" lon="12.3164806"><ele>593.5999999999999</ele><time>2026-04-17T12:05:05.888Z</time></trkpt><trkpt lat="43.1318553" lon="12.3165921"><ele>593.4</ele><time>2026-04-17T12:05:06.892Z</time></trkpt><trkpt lat="43.1319223" lon="12.3166864"><ele>593.1999999999999</ele><time>2026-04-17T12:05:07.908Z</time></trkpt><trkpt lat="43.1319886" lon="12.3167677"><ele>593.0</ele><time>2026-04-17T12:05:08.905Z</time></trkpt><trkpt lat="43.1320638" lon="12.3168368"><ele>593.0</ele><time>2026-04-17T12:05:09.876Z</time></trkpt><trkpt lat="43.1321396" lon="12.3168955"><ele>593.0</ele><time>2026-04-17T12:05:10.877Z</time></trkpt><trkpt lat="43.1322264" lon="12.3169655"><ele>593.0</ele><time>2026-04-17T12:05:11.864Z</time></trkpt><trkpt lat="43.1323251" lon="12.3170323"><ele>593.0</ele><time>2026-04-17T12:05:12.887Z</time></trkpt><trkpt lat="43.1324238" lon="12.3171065"><ele>593.0</ele><time>2026-04-17T12:05:13.885Z</time></trkpt><trkpt lat="43.1325233" lon="12.3171834"><ele>595.1999999999999</ele><time>2026-04-17T12:05:14.894Z</time></trkpt><trkpt lat="43.1326268" lon="12.3172622"><ele>597.4</ele><time>2026-04-17T12:05:15.909Z</time></trkpt><trkpt lat="43.1327167" lon="12.3173303"><ele>599.5999999999999</ele><time>2026-04-17T12:05:16.899Z</time></trkpt><trkpt lat="43.1328011" lon="12.3174091"><ele>601.8</ele><time>2026-04-17T12:05:17.89Z</time></trkpt><trkpt lat="43.1328897" lon="12.317472"><ele>604.0</ele><time>2026-04-17T12:05:18.869Z</time></trkpt><trkpt lat="43.1329572" lon="12.3175435"><ele>604.0000000000001</ele><time>2026-04-17T12:05:19.89Z</time></trkpt><trkpt lat="43.1329981" lon="12.3176229"><ele>604.0</ele><time>2026-04-17T12:05:20.838Z</time></trkpt><trkpt lat="43.1330067" lon="12.3177242"><ele>604.0</ele><time>2026-04-17T12:05:21.893Z</time></trkpt><trkpt lat="43.1330044" lon="12.3178317"><ele>604.0</ele><time>2026-04-17T12:05:22.882Z</time></trkpt><trkpt lat="43.1329918" lon="12.3179255"><ele>604.0</ele><time>2026-04-17T12:05:23.89Z</time></trkpt><trkpt lat="43.1329777" lon="12.3180124"><ele>604.0000000000001</ele><time>2026-04-17T12:05:24.887Z</time></trkpt><trkpt lat="43.1329679" lon="12.3180998"><ele>604.0</ele><time>2026-04-17T12:05:25.884Z</time></trkpt><trkpt lat="43.1329762" lon="12.318197"><ele>606.5</ele><time>2026-04-17T12:05:26.901Z</time></trkpt><trkpt lat="43.1329849" lon="12.3182947"><ele>609.0</ele><time>2026-04-17T12:05:27.898Z</time></trkpt><trkpt lat="43.1329938" lon="12.3183914"><ele>611.5</ele><time>2026-04-17T12:05:28.905Z</time></trkpt><trkpt lat="43.1330318" lon="12.318501"><ele>614.0</ele><time>2026-04-17T12:05:29.893Z</time></trkpt><trkpt lat="43.1330678" lon="12.3186204"><ele>616.5</ele><time>2026-04-17T12:05:30.882Z</time></trkpt><trkpt lat="43.133111" lon="12.3187434"><ele>619.0</ele><time>2026-04-17T12:05:31.901Z</time></trkpt><trkpt lat="43.1331517" lon="12.3188672"><ele>619.2</ele><time>2026-04-17T12:05:32.909Z</time></trkpt><trkpt lat="43.1331955" lon="12.3189892"><ele>619.4</ele><time>2026-04-17T12:05:33.896Z</time></trkpt><trkpt lat="43.13324" lon="12.3191117"><ele>619.6</ele><time>2026-04-17T12:05:34.905Z</time></trkpt><trkpt lat="43.133281" lon="12.3192286"><ele>619.8</ele><time>2026-04-17T12:05:35.91Z</time></trkpt><trkpt lat="43.1333264" lon="12.319339"><ele>620.0</ele><time>2026-04-17T12:05:36.882Z</time></trkpt><trkpt lat="43.1333734" lon="12.3194371"><ele>620.0</ele><time>2026-04-17T12:05:37.9Z</time></trkpt><trkpt lat="43.1334016" lon="12.3195208"><ele>620.0</ele><time>2026-04-17T12:05:38.899Z</time></trkpt><trkpt lat="43.1334216" lon="12.3196127"><ele>620.0</ele><time>2026-04-17T12:05:39.906Z</time></trkpt><trkpt lat="43.1334282" lon="12.3197012"><ele>620.0</ele><time>2026-04-17T12:05:40.879Z</time></trkpt><trkpt lat="43.1334383" lon="12.319789"><ele>620.0</ele><time>2026-04-17T12:05:41.865Z</time></trkpt><trkpt lat="43.1334339" lon="12.319925"><ele>620.0</ele><time>2026-04-17T12:05:43.902Z</time></trkpt><trkpt lat="43.1334198" lon="12.3200211"><ele>620.0</ele><time>2026-04-17T12:05:45.899Z</time></trkpt><trkpt lat="43.1333801" lon="12.3201168"><ele>621.0</ele><time>2026-04-17T12:05:47.903Z</time></trkpt><trkpt lat="43.1332951" lon="12.320226"><ele>622.0</ele><time>2026-04-17T12:05:49.877Z</time></trkpt><trkpt lat="43.1332389" lon="12.3202887"><ele>623.0</ele><time>2026-04-17T12:05:50.884Z</time></trkpt><trkpt lat="43.1331739" lon="12.3203503"><ele>624.0</ele><time>2026-04-17T12:05:51.884Z</time></trkpt><trkpt lat="43.1331298" lon="12.3204443"><ele>625.0</ele><time>2026-04-17T12:05:52.897Z</time></trkpt><trkpt lat="43.1330965" lon="12.3205506"><ele>626.0</ele><time>2026-04-17T12:05:53.891Z</time></trkpt><trkpt lat="43.1330651" lon="12.3206429"><ele>628.0</ele><time>2026-04-17T12:05:54.89Z</time></trkpt><trkpt lat="43.1330418" lon="12.3207367"><ele>630.0</ele><time>2026-04-17T12:05:55.891Z</time></trkpt><trkpt lat="43.1330298" lon="12.3208315"><ele>632.0</ele><time>2026-04-17T12:05:56.902Z</time></trkpt><trkpt lat="43.1330313" lon="12.3209285"><ele>634.0</ele><time>2026-04-17T12:05:57.89Z</time></trkpt><trkpt lat="43.133044" lon="12.3210427"><ele>636.0</ele><time>2026-04-17T12:05:58.89Z</time></trkpt><trkpt lat="43.1330661" lon="12.3211545"><ele>638.0</ele><time>2026-04-17T12:05:59.912Z</time></trkpt><trkpt lat="43.1331077" lon="12.3212434"><ele>638.0</ele><time>2026-04-17T12:06:00.882Z</time></trkpt><trkpt lat="43.1331642" lon="12.3213276"><ele>638.0</ele><time>2026-04-17T12:06:01.903Z</time></trkpt><trkpt lat="43.1332166" lon="12.3214103"><ele>638.0</ele><time>2026-04-17T12:06:02.88Z</time></trkpt><trkpt lat="43.1332718" lon="12.321492"><ele>638.0</ele><time>2026-04-17T12:06:03.89Z</time></trkpt><trkpt lat="43.1333185" lon="12.3215809"><ele>638.0</ele><time>2026-04-17T12:06:04.901Z</time></trkpt><trkpt lat="43.1333624" lon="12.3216553"><ele>638.0</ele><time>2026-04-17T12:06:05.895Z</time></trkpt><trkpt lat="43.1334066" lon="12.3217361"><ele>634.6666666666666</ele><time>2026-04-17T12:06:06.918Z</time></trkpt><trkpt lat="43.1334518" lon="12.3218386"><ele>631.3333333333333</ele><time>2026-04-17T12:06:07.897Z</time></trkpt><trkpt lat="43.1334964" lon="12.3219287"><ele>628.0</ele><time>2026-04-17T12:06:08.889Z</time></trkpt><trkpt lat="43.1335393" lon="12.3220278"><ele>624.6666666666666</ele><time>2026-04-17T12:06:09.913Z</time></trkpt><trkpt lat="43.133574" lon="12.3221255"><ele>621.3333333333334</ele><time>2026-04-17T12:06:10.868Z</time></trkpt><trkpt lat="43.1336136" lon="12.3222303"><ele>618.0</ele><time>2026-04-17T12:06:11.887Z</time></trkpt><trkpt lat="43.1336476" lon="12.3223344"><ele>617.8333333333334</ele><time>2026-04-17T12:06:12.895Z</time></trkpt><trkpt lat="43.1336964" lon="12.3224513"><ele>617.6666666666666</ele><time>2026-04-17T12:06:13.894Z</time></trkpt><trkpt lat="43.1337356" lon="12.3225477"><ele>617.5</ele><time>2026-04-17T12:06:14.894Z</time></trkpt><trkpt lat="43.133803" lon="12.3226378"><ele>617.3333333333333</ele><time>2026-04-17T12:06:15.897Z</time></trkpt><trkpt lat="43.1338726" lon="12.3227005"><ele>617.1666666666666</ele><time>2026-04-17T12:06:16.894Z</time></trkpt><trkpt lat="43.1339442" lon="12.322756"><ele>617.0</ele><time>2026-04-17T12:06:17.9Z</time></trkpt><trkpt lat="43.1340304" lon="12.3227959"><ele>613.8333333333333</ele><time>2026-04-17T12:06:18.892Z</time></trkpt><trkpt lat="43.1341183" lon="12.322823"><ele>610.6666666666666</ele><time>2026-04-17T12:06:19.898Z</time></trkpt><trkpt lat="43.1342042" lon="12.3228456"><ele>607.5</ele><time>2026-04-17T12:06:20.889Z</time></trkpt><trkpt lat="43.134292" lon="12.3228788"><ele>604.3333333333334</ele><time>2026-04-17T12:06:21.916Z</time></trkpt><trkpt lat="43.1343788" lon="12.3229293"><ele>601.1666666666667</ele><time>2026-04-17T12:06:22.894Z</time></trkpt><trkpt lat="43.1344501" lon="12.3229854"><ele>598.0</ele><time>2026-04-17T12:06:23.887Z</time></trkpt><trkpt lat="43.1345146" lon="12.3230414"><ele>598.1999999999999</ele><time>2026-04-17T12:06:24.897Z</time></trkpt><trkpt lat="43.1345812" lon="12.32308"><ele>598.4</ele><time>2026-04-17T12:06:25.911Z</time></trkpt><trkpt lat="43.1346406" lon="12.3231171"><ele>598.5999999999999</ele><time>2026-04-17T12:06:26.901Z</time></trkpt><trkpt lat="43.1347458" lon="12.3231871"><ele>598.8</ele><time>2026-04-17T12:06:28.893Z</time></trkpt><trkpt lat="43.1348387" lon="12.3231781"><ele>599.0</ele><time>2026-04-17T12:06:30.878Z</time></trkpt><trkpt lat="43.1349447" lon="12.3231493"><ele>598.0</ele><time>2026-04-17T12:06:32.9Z</time></trkpt><trkpt lat="43.1350139" lon="12.3231123"><ele>597.0</ele><time>2026-04-17T12:06:33.905Z</time></trkpt><trkpt lat="43.135092" lon="12.3230674"><ele>596.0</ele><time>2026-04-17T12:06:34.904Z</time></trkpt><trkpt lat="43.135192" lon="12.3230168"><ele>595.0</ele><time>2026-04-17T12:06:35.895Z</time></trkpt><trkpt lat="43.1352992" lon="12.3229639"><ele>594.0</ele><time>2026-04-17T12:06:36.869Z</time></trkpt><trkpt lat="43.1354041" lon="12.3229196"><ele>594.2</ele><time>2026-04-17T12:06:37.892Z</time></trkpt><trkpt lat="43.135504" lon="12.3228861"><ele>594.4</ele><time>2026-04-17T12:06:38.891Z</time></trkpt><trkpt lat="43.1355916" lon="12.3228479"><ele>594.6</ele><time>2026-04-17T12:06:39.899Z</time></trkpt><trkpt lat="43.1356599" lon="12.3228068"><ele>594.8</ele><time>2026-04-17T12:06:40.887Z</time></trkpt><trkpt lat="43.1357263" lon="12.3227727"><ele>595.0</ele><time>2026-04-17T12:06:41.907Z</time></trkpt><trkpt lat="43.1358354" lon="12.3227548"><ele>595.0</ele><time>2026-04-17T12:06:43.912Z</time></trkpt><trkpt lat="43.135923" lon="12.3228252"><ele>595.0</ele><time>2026-04-17T12:06:45.9Z</time></trkpt><trkpt lat="43.1359681" lon="12.322951"><ele>595.0</ele><time>2026-04-17T12:06:47.91Z</time></trkpt><trkpt lat="43.1360533" lon="12.3230294"><ele>595.0</ele><time>2026-04-17T12:06:49.912Z</time></trkpt><trkpt lat="43.1361169" lon="12.3230343"><ele>595.0</ele><time>2026-04-17T12:06:50.887Z</time></trkpt><trkpt lat="43.1361853" lon="12.3230273"><ele>595.0</ele><time>2026-04-17T12:06:51.911Z</time></trkpt><trkpt lat="43.136259" lon="12.3229919"><ele>595.0</ele><time>2026-04-17T12:06:52.897Z</time></trkpt><trkpt lat="43.1363343" lon="12.3229668"><ele>595.0</ele><time>2026-04-17T12:06:53.9Z</time></trkpt><trkpt lat="43.1364043" lon="12.3229502"><ele>595.0</ele><time>2026-04-17T12:06:54.91Z</time></trkpt><trkpt lat="43.1364719" lon="12.3229321"><ele>595.0</ele><time>2026-04-17T12:06:55.908Z</time></trkpt><trkpt lat="43.1365365" lon="12.3229295"><ele>595.0</ele><time>2026-04-17T12:06:56.901Z</time></trkpt><trkpt lat="43.1366035" lon="12.3229217"><ele>595.0</ele><time>2026-04-17T12:06:57.899Z</time></trkpt><trkpt lat="43.1366738" lon="12.322915"><ele>595.0</ele><time>2026-04-17T12:06:58.899Z</time></trkpt><trkpt lat="43.1367384" lon="12.3228989"><ele>594.8571428571429</ele><time>2026-04-17T12:06:59.908Z</time></trkpt><trkpt lat="43.1368041" lon="12.3228618"><ele>594.7142857142858</ele><time>2026-04-17T12:07:00.877Z</time></trkpt><trkpt lat="43.1368586" lon="12.3228157"><ele>594.5714285714286</ele><time>2026-04-17T12:07:01.916Z</time></trkpt><trkpt lat="43.1369113" lon="12.3227506"><ele>594.4285714285714</ele><time>2026-04-17T12:07:02.895Z</time></trkpt><trkpt lat="43.1369689" lon="12.3226979"><ele>594.2857142857143</ele><time>2026-04-17T12:07:03.904Z</time></trkpt><trkpt lat="43.137032" lon="12.3226555"><ele>594.1428571428571</ele><time>2026-04-17T12:07:04.911Z</time></trkpt><trkpt lat="43.1371316" lon="12.3226299"><ele>594.0</ele><time>2026-04-17T12:07:06.906Z</time></trkpt><trkpt lat="43.1372138" lon="12.3226136"><ele>594.0</ele><time>2026-04-17T12:07:08.872Z</time></trkpt><trkpt lat="43.137306" lon="12.3225484"><ele>594.0</ele><time>2026-04-17T12:07:10.878Z</time></trkpt><trkpt lat="43.1373739" lon="12.322466"><ele>594.0</ele><time>2026-04-17T12:07:11.9Z</time></trkpt><trkpt lat="43.1374525" lon="12.3223764"><ele>594.0</ele><time>2026-04-17T12:07:12.899Z</time></trkpt><trkpt lat="43.137523" lon="12.3223042"><ele>594.0</ele><time>2026-04-17T12:07:13.897Z</time></trkpt><trkpt lat="43.1375982" lon="12.3222444"><ele>591.3333333333334</ele><time>2026-04-17T12:07:14.908Z</time></trkpt><trkpt lat="43.1376607" lon="12.3222055"><ele>588.6666666666666</ele><time>2026-04-17T12:07:15.893Z</time></trkpt><trkpt lat="43.1377382" lon="12.3221744"><ele>586.0</ele><time>2026-04-17T12:07:16.893Z</time></trkpt><trkpt lat="43.1378229" lon="12.3221454"><ele>583.3333333333333</ele><time>2026-04-17T12:07:17.904Z</time></trkpt><trkpt lat="43.1379092" lon="12.3221236"><ele>580.6666666666666</ele><time>2026-04-17T12:07:18.884Z</time></trkpt><trkpt lat="43.1379999" lon="12.3221053"><ele>578.0</ele><time>2026-04-17T12:07:19.876Z</time></trkpt><trkpt lat="43.138085" lon="12.3220862"><ele>578.0</ele><time>2026-04-17T12:07:20.898Z</time></trkpt><trkpt lat="43.1381732" lon="12.3220739"><ele>578.0</ele><time>2026-04-17T12:07:21.905Z</time></trkpt><trkpt lat="43.1382559" lon="12.3220591"><ele>578.0</ele><time>2026-04-17T12:07:22.913Z</time></trkpt><trkpt lat="43.1383335" lon="12.3220469"><ele>578.0</ele><time>2026-04-17T12:07:23.902Z</time></trkpt><trkpt lat="43.1384106" lon="12.3220352"><ele>578.0</ele><time>2026-04-17T12:07:24.888Z</time></trkpt><trkpt lat="43.1384775" lon="12.322022"><ele>578.0</ele><time>2026-04-17T12:07:25.9Z</time></trkpt><trkpt lat="43.1385539" lon="12.3220103"><ele>578.1999999999999</ele><time>2026-04-17T12:07:26.894Z</time></trkpt><trkpt lat="43.1386223" lon="12.3219956"><ele>578.4</ele><time>2026-04-17T12:07:27.898Z</time></trkpt><trkpt lat="43.1386854" lon="12.3219811"><ele>578.5999999999999</ele><time>2026-04-17T12:07:28.907Z</time></trkpt><trkpt lat="43.138794" lon="12.3219343"><ele>578.8</ele><time>2026-04-17T12:07:30.884Z</time></trkpt><trkpt lat="43.1388907" lon="12.3218665"><ele>579.0</ele><time>2026-04-17T12:07:32.91Z</time></trkpt><trkpt lat="43.1390077" lon="12.3217779"><ele>579.2</ele><time>2026-04-17T12:07:34.919Z</time></trkpt><trkpt lat="43.1390753" lon="12.321736"><ele>579.4</ele><time>2026-04-17T12:07:35.902Z</time></trkpt><trkpt lat="43.1391407" lon="12.3217054"><ele>579.6</ele><time>2026-04-17T12:07:36.871Z</time></trkpt><trkpt lat="43.139241" lon="12.321649"><ele>579.8</ele><time>2026-04-17T12:07:38.903Z</time></trkpt><trkpt lat="43.1393169" lon="12.3215308"><ele>580.0</ele><time>2026-04-17T12:07:40.888Z</time></trkpt><trkpt lat="43.1393789" lon="12.3214154"><ele>578.0</ele><time>2026-04-17T12:07:42.907Z</time></trkpt><trkpt lat="43.13945" lon="12.3212841"><ele>576.0</ele><time>2026-04-17T12:07:44.899Z</time></trkpt><trkpt lat="43.139509" lon="12.3211553"><ele>574.0</ele><time>2026-04-17T12:07:46.902Z</time></trkpt><trkpt lat="43.1395569" lon="12.321019"><ele>572.0</ele><time>2026-04-17T12:07:48.89Z</time></trkpt><trkpt lat="43.1395756" lon="12.320915"><ele>570.0</ele><time>2026-04-17T12:07:50.891Z</time></trkpt><trkpt lat="43.1395517" lon="12.3208328"><ele>570.0</ele><time>2026-04-17T12:07:52.896Z</time></trkpt><trkpt lat="43.139503" lon="12.3207557"><ele>570.0</ele><time>2026-04-17T12:07:54.889Z</time></trkpt><trkpt lat="43.1394456" lon="12.3207067"><ele>570.0</ele><time>2026-04-17T12:07:56.896Z</time></trkpt><trkpt lat="43.1393698" lon="12.320686"><ele>570.0</ele><time>2026-04-17T12:07:58.893Z</time></trkpt><trkpt lat="43.1392579" lon="12.3206902"><ele>570.0</ele><time>2026-04-17T12:08:00.875Z</time></trkpt><trkpt lat="43.1391478" lon="12.320694"><ele>570.0</ele><time>2026-04-17T12:08:02.899Z</time></trkpt><trkpt lat="43.1390817" lon="12.3206809"><ele>569.8</ele><time>2026-04-17T12:08:03.915Z</time></trkpt><trkpt lat="43.13897" lon="12.3206181"><ele>569.6</ele><time>2026-04-17T12:08:05.897Z</time></trkpt><trkpt lat="43.1388756" lon="12.32054"><ele>569.4</ele><time>2026-04-17T12:08:07.885Z</time></trkpt><trkpt lat="43.13878" lon="12.3204858"><ele>569.2</ele><time>2026-04-17T12:08:09.904Z</time></trkpt><trkpt lat="43.1386824" lon="12.3204507"><ele>569.0</ele><time>2026-04-17T12:08:11.891Z</time></trkpt><trkpt lat="43.138572" lon="12.3204356"><ele>565.2</ele><time>2026-04-17T12:08:13.898Z</time></trkpt><trkpt lat="43.1384658" lon="12.3204421"><ele>561.4</ele><time>2026-04-17T12:08:15.914Z</time></trkpt><trkpt lat="43.1383625" lon="12.3204108"><ele>557.6</ele><time>2026-04-17T12:08:17.895Z</time></trkpt><trkpt lat="43.1382498" lon="12.3203837"><ele>553.8</ele><time>2026-04-17T12:08:19.893Z</time></trkpt><trkpt lat="43.1381408" lon="12.320369"><ele>550.0</ele><time>2026-04-17T12:08:21.89Z</time></trkpt><trkpt lat="43.1380287" lon="12.3203534"><ele>549.2</ele><time>2026-04-17T12:08:23.893Z</time></trkpt><trkpt lat="43.1379199" lon="12.3203354"><ele>548.4</ele><time>2026-04-17T12:08:25.903Z</time></trkpt><trkpt lat="43.1378361" lon="12.32032"><ele>547.6</ele><time>2026-04-17T12:08:27.885Z</time></trkpt><trkpt lat="43.1377613" lon="12.320293"><ele>546.8</ele><time>2026-04-17T12:08:30.901Z</time></trkpt><trkpt lat="43.1377828" lon="12.3201766"><ele>546.0</ele><time>2026-04-17T12:08:33.889Z</time></trkpt><trkpt lat="43.1378834" lon="12.3201115"><ele>546.0</ele><time>2026-04-17T12:08:36.899Z</time></trkpt><trkpt lat="43.1379496" lon="12.3200717"><ele>546.0</ele><time>2026-04-17T12:08:37.892Z</time></trkpt><trkpt lat="43.1380082" lon="12.3200268"><ele>546.0</ele><time>2026-04-17T12:08:38.891Z</time></trkpt><trkpt lat="43.1380615" lon="12.3199674"><ele>546.0</ele><time>2026-04-17T12:08:39.882Z</time></trkpt><trkpt lat="43.1381105" lon="12.319911"><ele>546.0</ele><time>2026-04-17T12:08:40.901Z</time></trkpt><trkpt lat="43.1381988" lon="12.3197871"><ele>546.0</ele><time>2026-04-17T12:08:42.895Z</time></trkpt><trkpt lat="43.138284" lon="12.3196531"><ele>543.4</ele><time>2026-04-17T12:08:44.89Z</time></trkpt><trkpt lat="43.1383307" lon="12.3195881"><ele>540.8</ele><time>2026-04-17T12:08:45.89Z</time></trkpt><trkpt lat="43.1384316" lon="12.3194928"><ele>538.1999999999999</ele><time>2026-04-17T12:08:47.9Z</time></trkpt><trkpt lat="43.1385384" lon="12.319457"><ele>535.6</ele><time>2026-04-17T12:08:49.885Z</time></trkpt><trkpt lat="43.1386627" lon="12.3195103"><ele>533.0</ele><time>2026-04-17T12:08:51.892Z</time></trkpt><trkpt lat="43.1387347" lon="12.3195728"><ele>533.0</ele><time>2026-04-17T12:08:52.886Z</time></trkpt><trkpt lat="43.138803" lon="12.3196546"><ele>533.0</ele><time>2026-04-17T12:08:53.891Z</time></trkpt><trkpt lat="43.1388512" lon="12.3197263"><ele>533.0</ele><time>2026-04-17T12:08:54.891Z</time></trkpt><trkpt lat="43.1388986" lon="12.3197961"><ele>533.0</ele><time>2026-04-17T12:08:55.864Z</time></trkpt><trkpt lat="43.1389921" lon="12.3197862"><ele>533.0</ele><time>2026-04-17T12:08:57.889Z</time></trkpt><trkpt lat="43.1389913" lon="12.3196162"><ele>533.0</ele><time>2026-04-17T12:08:59.888Z</time></trkpt><trkpt lat="43.1389448" lon="12.3195295"><ele>533.0</ele><time>2026-04-17T12:09:00.892Z</time></trkpt><trkpt lat="43.1388908" lon="12.3194415"><ele>533.0</ele><time>2026-04-17T12:09:01.888Z</time></trkpt><trkpt lat="43.1388325" lon="12.3193715"><ele>533.0</ele><time>2026-04-17T12:09:02.885Z</time></trkpt><trkpt lat="43.1387854" lon="12.3193002"><ele>533.0</ele><time>2026-04-17T12:09:03.909Z</time></trkpt><trkpt lat="43.1387357" lon="12.319227"><ele>533.0</ele><time>2026-04-17T12:09:04.887Z</time></trkpt><trkpt lat="43.1386875" lon="12.319148"><ele>533.0</ele><time>2026-04-17T12:09:05.871Z</time></trkpt><trkpt lat="43.1386417" lon="12.319057"><ele>533.0</ele><time>2026-04-17T12:09:06.902Z</time></trkpt><trkpt lat="43.1386161" lon="12.3189542"><ele>533.0</ele><time>2026-04-17T12:09:07.888Z</time></trkpt><trkpt lat="43.1386036" lon="12.3188516"><ele>533.0</ele><time>2026-04-17T12:09:08.89Z</time></trkpt><trkpt lat="43.1386123" lon="12.3187466"><ele>533.0</ele><time>2026-04-17T12:09:09.858Z</time></trkpt><trkpt lat="43.1386396" lon="12.3186339"><ele>533.0</ele><time>2026-04-17T12:09:10.876Z</time></trkpt><trkpt lat="43.1386733" lon="12.3185312"><ele>533.0</ele><time>2026-04-17T12:09:11.891Z</time></trkpt><trkpt lat="43.1387197" lon="12.3184405"><ele>533.6</ele><time>2026-04-17T12:09:12.88Z</time></trkpt><trkpt lat="43.1387542" lon="12.3183679"><ele>534.1999999999999</ele><time>2026-04-17T12:09:13.884Z</time></trkpt><trkpt lat="43.138785" lon="12.3182552"><ele>534.8</ele><time>2026-04-17T12:09:15.861Z</time></trkpt><trkpt lat="43.1387064" lon="12.3182896"><ele>535.4</ele><time>2026-04-17T12:09:19.892Z</time></trkpt><trkpt lat="43.1386629" lon="12.3184518"><ele>536.0</ele><time>2026-04-17T12:09:21.887Z</time></trkpt><trkpt lat="43.1386331" lon="12.3185712"><ele>536.0</ele><time>2026-04-17T12:09:22.891Z</time></trkpt><trkpt lat="43.1386065" lon="12.3186727"><ele>536.0</ele><time>2026-04-17T12:09:23.893Z</time></trkpt><trkpt lat="43.1385718" lon="12.3187473"><ele>536.0</ele><time>2026-04-17T12:09:24.885Z</time></trkpt><trkpt lat="43.138462" lon="12.3188252"><ele>536.0</ele><time>2026-04-17T12:09:26.886Z</time></trkpt><trkpt lat="43.1383843" lon="12.3187908"><ele>536.0</ele><time>2026-04-17T12:09:27.895Z</time></trkpt><trkpt lat="43.1383141" lon="12.3187841"><ele>536.0</ele><time>2026-04-17T12:09:28.897Z</time></trkpt><trkpt lat="43.1382347" lon="12.3188164"><ele>537.2</ele><time>2026-04-17T12:09:29.885Z</time></trkpt><trkpt lat="43.1381607" lon="12.3188684"><ele>538.4000000000001</ele><time>2026-04-17T12:09:30.905Z</time></trkpt><trkpt lat="43.1380843" lon="12.3189257"><ele>539.6</ele><time>2026-04-17T12:09:31.891Z</time></trkpt><trkpt lat="43.138004" lon="12.3189697"><ele>540.8000000000001</ele><time>2026-04-17T12:09:32.894Z</time></trkpt><trkpt lat="43.1379004" lon="12.3189989"><ele>542.0</ele><time>2026-04-17T12:09:33.895Z</time></trkpt><trkpt lat="43.1377988" lon="12.3190015"><ele>542.0</ele><time>2026-04-17T12:09:34.861Z</time></trkpt><trkpt lat="43.1376966" lon="12.3189861"><ele>542.0</ele><time>2026-04-17T12:09:35.872Z</time></trkpt><trkpt lat="43.1375892" lon="12.3189553"><ele>542.0</ele><time>2026-04-17T12:09:36.886Z</time></trkpt><trkpt lat="43.1374884" lon="12.318916"><ele>542.0</ele><time>2026-04-17T12:09:37.881Z</time></trkpt><trkpt lat="43.1373858" lon="12.3188816"><ele>542.0</ele><time>2026-04-17T12:09:38.879Z</time></trkpt><trkpt lat="43.1372887" lon="12.3188391"><ele>545.0</ele><time>2026-04-17T12:09:39.88Z</time></trkpt><trkpt lat="43.1372117" lon="12.318803"><ele>548.0</ele><time>2026-04-17T12:09:40.872Z</time></trkpt><trkpt lat="43.1371128" lon="12.3187926"><ele>551.0</ele><time>2026-04-17T12:09:42.902Z</time></trkpt><trkpt lat="43.1370955" lon="12.3188912"><ele>554.0</ele><time>2026-04-17T12:09:44.908Z</time></trkpt><trkpt lat="43.1371886" lon="12.3189498"><ele>557.0</ele><time>2026-04-17T12:09:46.9Z</time></trkpt><trkpt lat="43.1373027" lon="12.318931"><ele>554.0</ele><time>2026-04-17T12:09:48.907Z</time></trkpt><trkpt lat="43.1374055" lon="12.3189424"><ele>551.0</ele><time>2026-04-17T12:09:50.887Z</time></trkpt><trkpt lat="43.1375121" lon="12.3189721"><ele>548.0</ele><time>2026-04-17T12:09:52.879Z</time></trkpt><trkpt lat="43.1376238" lon="12.3190007"><ele>545.0</ele><time>2026-04-17T12:09:54.91Z</time></trkpt><trkpt lat="43.1377297" lon="12.319032"><ele>542.0</ele><time>2026-04-17T12:09:56.894Z</time></trkpt><trkpt lat="43.1377991" lon="12.319106"><ele>542.0</ele><time>2026-04-17T12:09:58.882Z</time></trkpt><trkpt lat="43.1378376" lon="12.3192517"><ele>542.0</ele><time>2026-04-17T12:10:00.89Z</time></trkpt><trkpt lat="43.1377893" lon="12.3193889"><ele>542.0</ele><time>2026-04-17T12:10:02.896Z</time></trkpt><trkpt lat="43.1377237" lon="12.3194471"><ele>542.0</ele><time>2026-04-17T12:10:03.899Z</time></trkpt><trkpt lat="43.1376505" lon="12.3195008"><ele>542.0</ele><time>2026-04-17T12:10:04.88Z</time></trkpt><trkpt lat="43.1375662" lon="12.3195539"><ele>542.0</ele><time>2026-04-17T12:10:05.884Z</time></trkpt><trkpt lat="43.1374622" lon="12.3196054"><ele>542.0</ele><time>2026-04-17T12:10:06.896Z</time></trkpt><trkpt lat="43.1373544" lon="12.3196519"><ele>542.0</ele><time>2026-04-17T12:10:07.9Z</time></trkpt><trkpt lat="43.1372526" lon="12.319702"><ele>542.0</ele><time>2026-04-17T12:10:08.89Z</time></trkpt><trkpt lat="43.1371576" lon="12.3197411"><ele>542.0</ele><time>2026-04-17T12:10:09.903Z</time></trkpt><trkpt lat="43.137058" lon="12.3197644"><ele>544.0</ele><time>2026-04-17T12:10:10.903Z</time></trkpt><trkpt lat="43.1369768" lon="12.3197787"><ele>546.0</ele><time>2026-04-17T12:10:11.896Z</time></trkpt><trkpt lat="43.1369061" lon="12.3197974"><ele>548.0</ele><time>2026-04-17T12:10:12.858Z</time></trkpt><trkpt lat="43.1368408" lon="12.3198243"><ele>550.0</ele><time>2026-04-17T12:10:13.88Z</time></trkpt><trkpt lat="43.1367568" lon="12.3199032"><ele>552.0</ele><time>2026-04-17T12:10:15.895Z</time></trkpt><trkpt lat="43.1367971" lon="12.3200339"><ele>554.0</ele><time>2026-04-17T12:10:17.888Z</time></trkpt><trkpt lat="43.1369438" lon="12.3200575"><ele>554.0</ele><time>2026-04-17T12:10:19.852Z</time></trkpt><trkpt lat="43.1370365" lon="12.3199984"><ele>554.0</ele><time>2026-04-17T12:10:20.887Z</time></trkpt><trkpt lat="43.1371246" lon="12.3199347"><ele>554.0</ele><time>2026-04-17T12:10:21.883Z</time></trkpt><trkpt lat="43.1372008" lon="12.319867"><ele>554.0</ele><time>2026-04-17T12:10:22.888Z</time></trkpt><trkpt lat="43.1372768" lon="12.3198007"><ele>554.0</ele><time>2026-04-17T12:10:23.885Z</time></trkpt><trkpt lat="43.1373372" lon="12.3197351"><ele>552.2857142857142</ele><time>2026-04-17T12:10:24.879Z</time></trkpt><trkpt lat="43.1373985" lon="12.3196667"><ele>550.5714285714286</ele><time>2026-04-17T12:10:25.889Z</time></trkpt><trkpt lat="43.1374565" lon="12.3196187"><ele>548.8571428571429</ele><time>2026-04-17T12:10:26.9Z</time></trkpt><trkpt lat="43.1375243" lon="12.3195871"><ele>547.1428571428571</ele><time>2026-04-17T12:10:27.886Z</time></trkpt><trkpt lat="43.1375995" lon="12.3195825"><ele>545.4285714285714</ele><time>2026-04-17T12:10:28.888Z</time></trkpt><trkpt lat="43.1376782" lon="12.3195994"><ele>543.7142857142857</ele><time>2026-04-17T12:10:29.893Z</time></trkpt><trkpt lat="43.137751" lon="12.3196161"><ele>542.0</ele><time>2026-04-17T12:10:30.895Z</time></trkpt><trkpt lat="43.1378186" lon="12.3195898"><ele>542.0</ele><time>2026-04-17T12:10:31.916Z</time></trkpt><trkpt lat="43.1378631" lon="12.3195087"><ele>542.0</ele><time>2026-04-17T12:10:32.885Z</time></trkpt><trkpt lat="43.1378915" lon="12.3193899"><ele>542.0</ele><time>2026-04-17T12:10:33.889Z</time></trkpt><trkpt lat="43.1379034" lon="12.3192905"><ele>542.0</ele><time>2026-04-17T12:10:34.885Z</time></trkpt><trkpt lat="43.1379199" lon="12.3192029"><ele>542.0</ele><time>2026-04-17T12:10:35.895Z</time></trkpt><trkpt lat="43.1379722" lon="12.3190667"><ele>542.0</ele><time>2026-04-17T12:10:37.899Z</time></trkpt><trkpt lat="43.1380558" lon="12.3190875"><ele>542.0</ele><time>2026-04-17T12:10:39.882Z</time></trkpt><trkpt lat="43.138089" lon="12.3192313"><ele>542.0</ele><time>2026-04-17T12:10:41.886Z</time></trkpt><trkpt lat="43.1380719" lon="12.3193226"><ele>542.0</ele><time>2026-04-17T12:10:42.89Z</time></trkpt><trkpt lat="43.1380292" lon="12.3194212"><ele>542.0</ele><time>2026-04-17T12:10:43.87Z</time></trkpt><trkpt lat="43.1379963" lon="12.3195195"><ele>542.0</ele><time>2026-04-17T12:10:44.897Z</time></trkpt><trkpt lat="43.1379862" lon="12.3196277"><ele>542.0</ele><time>2026-04-17T12:10:45.886Z</time></trkpt><trkpt lat="43.138077" lon="12.3195419"><ele>542.0</ele><time>2026-04-17T12:10:48.91Z</time></trkpt><trkpt lat="43.1380988" lon="12.3194318"><ele>542.0</ele><time>2026-04-17T12:10:49.88Z</time></trkpt><trkpt lat="43.13811" lon="12.3193231"><ele>542.0</ele><time>2026-04-17T12:10:50.892Z</time></trkpt><trkpt lat="43.1381181" lon="12.3192256"><ele>542.0</ele><time>2026-04-17T12:10:51.924Z</time></trkpt><trkpt lat="43.1381406" lon="12.3191288"><ele>542.0</ele><time>2026-04-17T12:10:52.885Z</time></trkpt><trkpt lat="43.1381831" lon="12.3190635"><ele>542.0</ele><time>2026-04-17T12:10:53.882Z</time></trkpt><trkpt lat="43.13829" lon="12.3190259"><ele>540.2</ele><time>2026-04-17T12:10:55.882Z</time></trkpt><trkpt lat="43.1383548" lon="12.3190514"><ele>538.4000000000001</ele><time>2026-04-17T12:10:56.895Z</time></trkpt><trkpt lat="43.1384015" lon="12.3191181"><ele>536.5999999999999</ele><time>2026-04-17T12:10:57.9Z</time></trkpt><trkpt lat="43.1384113" lon="12.3192954"><ele>534.8</ele><time>2026-04-17T12:10:59.898Z</time></trkpt><trkpt lat="43.1383788" lon="12.3194109"><ele>533.0</ele><time>2026-04-17T12:11:00.9Z</time></trkpt><trkpt lat="43.1383291" lon="12.3195224"><ele>533.0</ele><time>2026-04-17T12:11:01.885Z</time></trkpt><trkpt lat="43.1382605" lon="12.3196184"><ele>533.0</ele><time>2026-04-17T12:11:02.892Z</time></trkpt><trkpt lat="43.1381804" lon="12.3196938"><ele>533.0</ele><time>2026-04-17T12:11:03.897Z</time></trkpt><trkpt lat="43.1380858" lon="12.3197444"><ele>533.0</ele><time>2026-04-17T12:11:04.903Z</time></trkpt><trkpt lat="43.1379904" lon="12.3197871"><ele>533.0</ele><time>2026-04-17T12:11:05.882Z</time></trkpt><trkpt lat="43.1378887" lon="12.3198329"><ele>535.1666666666666</ele><time>2026-04-17T12:11:06.902Z</time></trkpt><trkpt lat="43.1377897" lon="12.3198566"><ele>537.3333333333333</ele><time>2026-04-17T12:11:07.882Z</time></trkpt><trkpt lat="43.1377021" lon="12.3198697"><ele>539.5</ele><time>2026-04-17T12:11:08.904Z</time></trkpt><trkpt lat="43.1376143" lon="12.3198887"><ele>541.6666666666666</ele><time>2026-04-17T12:11:09.884Z</time></trkpt><trkpt lat="43.1375487" lon="12.3199331"><ele>543.8333333333334</ele><time>2026-04-17T12:11:10.895Z</time></trkpt><trkpt lat="43.1374941" lon="12.3200452"><ele>546.0</ele><time>2026-04-17T12:11:12.896Z</time></trkpt><trkpt lat="43.1375445" lon="12.320136"><ele>546.0</ele><time>2026-04-17T12:11:14.888Z</time></trkpt><trkpt lat="43.1376365" lon="12.3201747"><ele>546.0</ele><time>2026-04-17T12:11:16.888Z</time></trkpt><trkpt lat="43.1377367" lon="12.3201654"><ele>546.0</ele><time>2026-04-17T12:11:18.886Z</time></trkpt><trkpt lat="43.1378294" lon="12.3201312"><ele>546.0</ele><time>2026-04-17T12:11:20.891Z</time></trkpt><trkpt lat="43.1379046" lon="12.3200976"><ele>546.0</ele><time>2026-04-17T12:11:35.855Z</time></trkpt><trkpt lat="43.1379799" lon="12.3200019"><ele>546.0</ele><time>2026-04-17T12:11:37.891Z</time></trkpt><trkpt lat="43.1380385" lon="12.3199448"><ele>546.0</ele><time>2026-04-17T12:11:38.885Z</time></trkpt><trkpt lat="43.1380914" lon="12.3198819"><ele>546.0</ele><time>2026-04-17T12:11:39.876Z</time></trkpt><trkpt lat="43.1381398" lon="12.3198081"><ele>546.0</ele><time>2026-04-17T12:11:40.894Z</time></trkpt><trkpt lat="43.1381895" lon="12.3197313"><ele>546.0</ele><time>2026-04-17T12:11:41.891Z</time></trkpt><trkpt lat="43.13824" lon="12.319663"><ele>546.0</ele><time>2026-04-17T12:11:42.885Z</time></trkpt><trkpt lat="43.1382875" lon="12.3195992"><ele>546.0</ele><time>2026-04-17T12:11:43.893Z</time></trkpt><trkpt lat="43.1383462" lon="12.319548"><ele>543.8333333333334</ele><time>2026-04-17T12:11:44.892Z</time></trkpt><trkpt lat="43.1384055" lon="12.3195055"><ele>541.6666666666666</ele><time>2026-04-17T12:11:45.905Z</time></trkpt><trkpt lat="43.1384693" lon="12.3194749"><ele>539.5</ele><time>2026-04-17T12:11:46.889Z</time></trkpt><trkpt lat="43.1385856" lon="12.319456"><ele>537.3333333333333</ele><time>2026-04-17T12:11:48.892Z</time></trkpt><trkpt lat="43.1386482" lon="12.319473"><ele>535.1666666666666</ele><time>2026-04-17T12:11:49.888Z</time></trkpt><trkpt lat="43.138703" lon="12.3195242"><ele>533.0</ele><time>2026-04-17T12:11:50.898Z</time></trkpt><trkpt lat="43.138769" lon="12.3195959"><ele>533.0</ele><time>2026-04-17T12:11:51.895Z</time></trkpt><trkpt lat="43.1388432" lon="12.3196941"><ele>533.0</ele><time>2026-04-17T12:11:52.879Z</time></trkpt><trkpt lat="43.1389128" lon="12.3197835"><ele>533.0</ele><time>2026-04-17T12:11:53.883Z</time></trkpt><trkpt lat="43.1389653" lon="12.3198374"><ele>533.0</ele><time>2026-04-17T12:11:54.899Z</time></trkpt><trkpt lat="43.1390621" lon="12.3198205"><ele>533.0</ele><time>2026-04-17T12:11:56.862Z</time></trkpt><trkpt lat="43.1390623" lon="12.3197328"><ele>533.0</ele><time>2026-04-17T12:11:57.886Z</time></trkpt><trkpt lat="43.1389984" lon="12.3196279"><ele>533.0</ele><time>2026-04-17T12:11:58.885Z</time></trkpt><trkpt lat="43.1389306" lon="12.3195187"><ele>533.0</ele><time>2026-04-17T12:11:59.896Z</time></trkpt><trkpt lat="43.1388624" lon="12.3194123"><ele>533.0</ele><time>2026-04-17T12:12:00.889Z</time></trkpt><trkpt lat="43.1388057" lon="12.3193259"><ele>533.0</ele><time>2026-04-17T12:12:01.873Z</time></trkpt><trkpt lat="43.1387446" lon="12.3192336"><ele>533.0</ele><time>2026-04-17T12:12:02.884Z</time></trkpt><trkpt lat="43.1386869" lon="12.3191344"><ele>533.0</ele><time>2026-04-17T12:12:03.886Z</time></trkpt><trkpt lat="43.1386474" lon="12.3190256"><ele>533.0</ele><time>2026-04-17T12:12:04.892Z</time></trkpt><trkpt lat="43.1386308" lon="12.3189065"><ele>533.0</ele><time>2026-04-17T12:12:05.899Z</time></trkpt><trkpt lat="43.138644" lon="12.3188051"><ele>533.0</ele><time>2026-04-17T12:12:06.886Z</time></trkpt><trkpt lat="43.1386707" lon="12.3186932"><ele>533.0</ele><time>2026-04-17T12:12:07.885Z</time></trkpt><trkpt lat="43.1387136" lon="12.3185713"><ele>533.0</ele><time>2026-04-17T12:12:08.883Z</time></trkpt><trkpt lat="43.1387567" lon="12.3184746"><ele>533.5</ele><time>2026-04-17T12:12:09.89Z</time></trkpt><trkpt lat="43.1387882" lon="12.318394"><ele>534.0</ele><time>2026-04-17T12:12:10.896Z</time></trkpt><trkpt lat="43.1388087" lon="12.3182879"><ele>534.5</ele><time>2026-04-17T12:12:12.847Z</time></trkpt><trkpt lat="43.1387328" lon="12.3182961"><ele>535.0</ele><time>2026-04-17T12:12:14.883Z</time></trkpt><trkpt lat="43.1386647" lon="12.318425"><ele>535.5</ele><time>2026-04-17T12:12:16.88Z</time></trkpt><trkpt lat="43.13864" lon="12.3185414"><ele>536.0</ele><time>2026-04-17T12:12:17.887Z</time></trkpt><trkpt lat="43.1386149" lon="12.3186662"><ele>536.0</ele><time>2026-04-17T12:12:18.886Z</time></trkpt><trkpt lat="43.1385871" lon="12.3187753"><ele>536.0</ele><time>2026-04-17T12:12:19.885Z</time></trkpt><trkpt lat="43.1384813" lon="12.318846"><ele>536.0</ele><time>2026-04-17T12:12:21.864Z</time></trkpt><trkpt lat="43.138399" lon="12.3188116"><ele>536.0</ele><time>2026-04-17T12:12:22.88Z</time></trkpt><trkpt lat="43.1383376" lon="12.3187756"><ele>536.0</ele><time>2026-04-17T12:12:23.895Z</time></trkpt><trkpt lat="43.138253" lon="12.3187772"><ele>536.0</ele><time>2026-04-17T12:12:24.878Z</time></trkpt><trkpt lat="43.1381715" lon="12.3188094"><ele>537.2</ele><time>2026-04-17T12:12:25.902Z</time></trkpt><trkpt lat="43.1380907" lon="12.3188675"><ele>538.4000000000001</ele><time>2026-04-17T12:12:26.899Z</time></trkpt><trkpt lat="43.1380168" lon="12.3189077"><ele>539.6</ele><time>2026-04-17T12:12:27.897Z</time></trkpt><trkpt lat="43.1379284" lon="12.3189351"><ele>540.8000000000001</ele><time>2026-04-17T12:12:28.894Z</time></trkpt><trkpt lat="43.1378263" lon="12.3189515"><ele>542.0</ele><time>2026-04-17T12:12:29.889Z</time></trkpt><trkpt lat="43.1377298" lon="12.3189547"><ele>542.0</ele><time>2026-04-17T12:12:30.891Z</time></trkpt><trkpt lat="43.1376384" lon="12.3189256"><ele>542.0</ele><time>2026-04-17T12:12:31.864Z</time></trkpt><trkpt lat="43.1375302" lon="12.3188919"><ele>542.0</ele><time>2026-04-17T12:12:32.878Z</time></trkpt><trkpt lat="43.1374203" lon="12.3188455"><ele>542.0</ele><time>2026-04-17T12:12:33.887Z</time></trkpt><trkpt lat="43.1373081" lon="12.3188054"><ele>542.0</ele><time>2026-04-17T12:12:34.885Z</time></trkpt><trkpt lat="43.1371991" lon="12.3187741"><ele>542.0</ele><time>2026-04-17T12:12:35.92Z</time></trkpt><trkpt lat="43.1371247" lon="12.3187648"><ele>542.0</ele><time>2026-04-17T12:12:36.904Z</time></trkpt><trkpt lat="43.1370643" lon="12.3188077"><ele>542.0</ele><time>2026-04-17T12:12:38.887Z</time></trkpt><trkpt lat="43.1371108" lon="12.3189063"><ele>542.0</ele><time>2026-04-17T12:12:40.867Z</time></trkpt><trkpt lat="43.1372198" lon="12.3189339"><ele>542.0</ele><time>2026-04-17T12:12:42.888Z</time></trkpt><trkpt lat="43.1373027" lon="12.3189244"><ele>542.0</ele><time>2026-04-17T12:12:43.905Z</time></trkpt><trkpt lat="43.1374116" lon="12.318934"><ele>542.0</ele><time>2026-04-17T12:12:45.905Z</time></trkpt><trkpt lat="43.1374791" lon="12.3189528"><ele>542.0</ele><time>2026-04-17T12:12:46.895Z</time></trkpt><trkpt lat="43.137544" lon="12.3189697"><ele>542.0</ele><time>2026-04-17T12:12:47.875Z</time></trkpt><trkpt lat="43.1376092" lon="12.318995"><ele>542.0</ele><time>2026-04-17T12:12:48.876Z</time></trkpt><trkpt lat="43.1377253" lon="12.3190349"><ele>542.0</ele><time>2026-04-17T12:12:50.893Z</time></trkpt><trkpt lat="43.13782" lon="12.3191166"><ele>542.0</ele><time>2026-04-17T12:12:52.865Z</time></trkpt><trkpt lat="43.137858" lon="12.3192361"><ele>542.0</ele><time>2026-04-17T12:12:54.887Z</time></trkpt><trkpt lat="43.1378222" lon="12.3193107"><ele>542.0</ele><time>2026-04-17T12:12:55.89Z</time></trkpt><trkpt lat="43.137772" lon="12.3193925"><ele>542.0</ele><time>2026-04-17T12:12:56.879Z</time></trkpt><trkpt lat="43.137678" lon="12.3194494"><ele>542.0</ele><time>2026-04-17T12:12:57.885Z</time></trkpt><trkpt lat="43.137579" lon="12.31951"><ele>542.0</ele><time>2026-04-17T12:12:58.913Z</time></trkpt><trkpt lat="43.1374804" lon="12.3195672"><ele>544.4</ele><time>2026-04-17T12:12:59.903Z</time></trkpt><trkpt lat="43.1373738" lon="12.3196172"><ele>546.8000000000001</ele><time>2026-04-17T12:13:00.892Z</time></trkpt><trkpt lat="43.1372676" lon="12.3196715"><ele>549.2</ele><time>2026-04-17T12:13:01.881Z</time></trkpt><trkpt lat="43.1371615" lon="12.3197166"><ele>551.6</ele><time>2026-04-17T12:13:02.892Z</time></trkpt><trkpt lat="43.1370653" lon="12.3197453"><ele>554.0</ele><time>2026-04-17T12:13:03.87Z</time></trkpt><trkpt lat="43.13698" lon="12.3197636"><ele>554.0</ele><time>2026-04-17T12:13:04.874Z</time></trkpt><trkpt lat="43.1368987" lon="12.3197788"><ele>554.0</ele><time>2026-04-17T12:13:05.899Z</time></trkpt><trkpt lat="43.1368333" lon="12.3197982"><ele>554.0</ele><time>2026-04-17T12:13:06.893Z</time></trkpt><trkpt lat="43.1367523" lon="12.3198703"><ele>554.0</ele><time>2026-04-17T12:13:08.884Z</time></trkpt><trkpt lat="43.1367833" lon="12.3200024"><ele>554.0</ele><time>2026-04-17T12:13:10.897Z</time></trkpt><trkpt lat="43.136854" lon="12.3200568"><ele>554.0</ele><time>2026-04-17T12:13:11.876Z</time></trkpt><trkpt lat="43.1369363" lon="12.3200387"><ele>554.0</ele><time>2026-04-17T12:13:12.897Z</time></trkpt><trkpt lat="43.1370273" lon="12.319995"><ele>554.0</ele><time>2026-04-17T12:13:13.879Z</time></trkpt><trkpt lat="43.1371202" lon="12.3199224"><ele>554.0</ele><time>2026-04-17T12:13:14.888Z</time></trkpt><trkpt lat="43.137199" lon="12.3198551"><ele>554.0</ele><time>2026-04-17T12:13:15.898Z</time></trkpt><trkpt lat="43.1372653" lon="12.3197914"><ele>554.0</ele><time>2026-04-17T12:13:16.895Z</time></trkpt><trkpt lat="43.1373296" lon="12.319721"><ele>552.0</ele><time>2026-04-17T12:13:17.896Z</time></trkpt><trkpt lat="43.1373946" lon="12.3196551"><ele>550.0</ele><time>2026-04-17T12:13:18.872Z</time></trkpt><trkpt lat="43.1374641" lon="12.3196025"><ele>548.0</ele><time>2026-04-17T12:13:19.882Z</time></trkpt><trkpt lat="43.1375391" lon="12.3195859"><ele>546.0</ele><time>2026-04-17T12:13:20.886Z</time></trkpt><trkpt lat="43.137622" lon="12.3195917"><ele>544.0</ele><time>2026-04-17T12:13:21.879Z</time></trkpt><trkpt lat="43.1377036" lon="12.3196171"><ele>542.0</ele><time>2026-04-17T12:13:22.909Z</time></trkpt><trkpt lat="43.1377782" lon="12.319619"><ele>542.0</ele><time>2026-04-17T12:13:23.891Z</time></trkpt><trkpt lat="43.1378459" lon="12.3195558"><ele>542.0</ele><time>2026-04-17T12:13:24.888Z</time></trkpt><trkpt lat="43.1378793" lon="12.3194568"><ele>542.0</ele><time>2026-04-17T12:13:25.889Z</time></trkpt><trkpt lat="43.1379057" lon="12.3193335"><ele>542.0</ele><time>2026-04-17T12:13:26.878Z</time></trkpt><trkpt lat="43.1379196" lon="12.3192247"><ele>542.0</ele><time>2026-04-17T12:13:27.902Z</time></trkpt><trkpt lat="43.1379429" lon="12.319139"><ele>542.0</ele><time>2026-04-17T12:13:28.891Z</time></trkpt><trkpt lat="43.1380092" lon="12.3190596"><ele>542.0</ele><time>2026-04-17T12:13:30.889Z</time></trkpt><trkpt lat="43.1380646" lon="12.3191663"><ele>542.0</ele><time>2026-04-17T12:13:32.898Z</time></trkpt><trkpt lat="43.1380632" lon="12.3192666"><ele>542.0</ele><time>2026-04-17T12:13:33.881Z</time></trkpt><trkpt lat="43.1380333" lon="12.3193744"><ele>542.0</ele><time>2026-04-17T12:13:34.897Z</time></trkpt><trkpt lat="43.1379982" lon="12.3195007"><ele>542.0</ele><time>2026-04-17T12:13:35.889Z</time></trkpt><trkpt lat="43.1379818" lon="12.3196031"><ele>542.0</ele><time>2026-04-17T12:13:36.884Z</time></trkpt><trkpt lat="43.1380169" lon="12.3196763"><ele>542.0</ele><time>2026-04-17T12:13:38.893Z</time></trkpt><trkpt lat="43.1380571" lon="12.3196022"><ele>542.0</ele><time>2026-04-17T12:13:39.889Z</time></trkpt><trkpt lat="43.1380937" lon="12.319484"><ele>542.0</ele><time>2026-04-17T12:13:40.883Z</time></trkpt><trkpt lat="43.1381102" lon="12.3193606"><ele>542.0</ele><time>2026-04-17T12:13:41.881Z</time></trkpt><trkpt lat="43.1381239" lon="12.3192376"><ele>542.0</ele><time>2026-04-17T12:13:42.894Z</time></trkpt><trkpt lat="43.1381422" lon="12.3191294"><ele>542.0</ele><time>2026-04-17T12:13:43.876Z</time></trkpt><trkpt lat="43.1382277" lon="12.3190321"><ele>540.5</ele><time>2026-04-17T12:13:45.88Z</time></trkpt><trkpt lat="43.1383001" lon="12.3190383"><ele>539.0</ele><time>2026-04-17T12:13:46.869Z</time></trkpt><trkpt lat="43.1383692" lon="12.3190633"><ele>537.5</ele><time>2026-04-17T12:13:47.891Z</time></trkpt><trkpt lat="43.1384086" lon="12.3191425"><ele>536.0</ele><time>2026-04-17T12:13:48.883Z</time></trkpt><trkpt lat="43.1384171" lon="12.319244"><ele>534.5</ele><time>2026-04-17T12:13:49.888Z</time></trkpt><trkpt lat="43.1383969" lon="12.3193577"><ele>533.0</ele><time>2026-04-17T12:13:50.874Z</time></trkpt><trkpt lat="43.1383517" lon="12.3194668"><ele>533.0</ele><time>2026-04-17T12:13:51.879Z</time></trkpt><trkpt lat="43.1382792" lon="12.3195589"><ele>533.0</ele><time>2026-04-17T12:13:52.912Z</time></trkpt><trkpt lat="43.1382151" lon="12.3196489"><ele>533.0</ele><time>2026-04-17T12:13:53.896Z</time></trkpt><trkpt lat="43.1381352" lon="12.3197241"><ele>533.0</ele><time>2026-04-17T12:13:54.896Z</time></trkpt><trkpt lat="43.1380513" lon="12.3197737"><ele>533.0</ele><time>2026-04-17T12:13:55.868Z</time></trkpt><trkpt lat="43.1379587" lon="12.3198158"><ele>535.6</ele><time>2026-04-17T12:13:56.89Z</time></trkpt><trkpt lat="43.1378622" lon="12.3198473"><ele>538.1999999999999</ele><time>2026-04-17T12:13:57.895Z</time></trkpt><trkpt lat="43.1377694" lon="12.3198639"><ele>540.8</ele><time>2026-04-17T12:13:58.889Z</time></trkpt><trkpt lat="43.1376891" lon="12.3198594"><ele>543.4</ele><time>2026-04-17T12:13:59.892Z</time></trkpt><trkpt lat="43.1376217" lon="12.3198691"><ele>546.0</ele><time>2026-04-17T12:14:00.889Z</time></trkpt><trkpt lat="43.1375198" lon="12.3199416"><ele>546.0</ele><time>2026-04-17T12:14:02.889Z</time></trkpt><trkpt lat="43.1375135" lon="12.3200609"><ele>546.0</ele><time>2026-04-17T12:14:04.896Z</time></trkpt><trkpt lat="43.1376197" lon="12.3201302"><ele>546.0</ele><time>2026-04-17T12:14:06.888Z</time></trkpt><trkpt lat="43.1377055" lon="12.3201451"><ele>546.0</ele><time>2026-04-17T12:14:07.893Z</time></trkpt><trkpt lat="43.137797" lon="12.3201473"><ele>546.0</ele><time>2026-04-17T12:14:08.854Z</time></trkpt><trkpt lat="43.1378782" lon="12.3201175"><ele>546.0</ele><time>2026-04-17T12:14:09.888Z</time></trkpt><trkpt lat="43.1379335" lon="12.3200567"><ele>546.0</ele><time>2026-04-17T12:14:10.882Z</time></trkpt><trkpt lat="43.1380038" lon="12.3199836"><ele>546.0</ele><time>2026-04-17T12:14:11.869Z</time></trkpt><trkpt lat="43.1380763" lon="12.3199044"><ele>546.0</ele><time>2026-04-17T12:14:12.866Z</time></trkpt><trkpt lat="43.1381346" lon="12.3198316"><ele>546.0</ele><time>2026-04-17T12:14:13.897Z</time></trkpt><trkpt lat="43.1381834" lon="12.3197505"><ele>546.0</ele><time>2026-04-17T12:14:14.889Z</time></trkpt><trkpt lat="43.1382445" lon="12.3196676"><ele>543.8333333333334</ele><time>2026-04-17T12:14:15.88Z</time></trkpt><trkpt lat="43.1383137" lon="12.3195971"><ele>541.6666666666666</ele><time>2026-04-17T12:14:16.845Z</time></trkpt><trkpt lat="43.1383834" lon="12.3195337"><ele>539.5</ele><time>2026-04-17T12:14:17.882Z</time></trkpt><trkpt lat="43.1384568" lon="12.3194841"><ele>537.3333333333333</ele><time>2026-04-17T12:14:18.891Z</time></trkpt><trkpt lat="43.1385252" lon="12.319463"><ele>535.1666666666666</ele><time>2026-04-17T12:14:19.881Z</time></trkpt><trkpt lat="43.1386451" lon="12.3194917"><ele>533.0</ele><time>2026-04-17T12:14:21.855Z</time></trkpt><trkpt lat="43.1387248" lon="12.319533"><ele>533.0</ele><time>2026-04-17T12:14:22.865Z</time></trkpt><trkpt lat="43.1388012" lon="12.319599"><ele>533.0</ele><time>2026-04-17T12:14:23.89Z</time></trkpt><trkpt lat="43.1388543" lon="12.3196898"><ele>533.0</ele><time>2026-04-17T12:14:24.88Z</time></trkpt><trkpt lat="43.1389056" lon="12.3197719"><ele>533.0</ele><time>2026-04-17T12:14:25.883Z</time></trkpt><trkpt lat="43.1389943" lon="12.3197783"><ele>533.0</ele><time>2026-04-17T12:14:27.896Z</time></trkpt><trkpt lat="43.1390059" lon="12.3196823"><ele>533.0</ele><time>2026-04-17T12:14:28.889Z</time></trkpt><trkpt lat="43.1389769" lon="12.3195987"><ele>533.0</ele><time>2026-04-17T12:14:29.884Z</time></trkpt><trkpt lat="43.1389339" lon="12.3195023"><ele>533.0</ele><time>2026-04-17T12:14:30.885Z</time></trkpt><trkpt lat="43.1388805" lon="12.3194162"><ele>533.0</ele><time>2026-04-17T12:14:31.87Z</time></trkpt><trkpt lat="43.1388246" lon="12.3193469"><ele>533.0</ele><time>2026-04-17T12:14:32.891Z</time></trkpt><trkpt lat="43.1387625" lon="12.3192673"><ele>533.0</ele><time>2026-04-17T12:14:33.888Z</time></trkpt><trkpt lat="43.1387065" lon="12.3191868"><ele>533.0</ele><time>2026-04-17T12:14:34.88Z</time></trkpt><trkpt lat="43.1386566" lon="12.319099"><ele>533.0</ele><time>2026-04-17T12:14:35.892Z</time></trkpt><trkpt lat="43.1386303" lon="12.3189927"><ele>533.0</ele><time>2026-04-17T12:14:36.894Z</time></trkpt><trkpt lat="43.1386251" lon="12.3188849"><ele>533.0</ele><time>2026-04-17T12:14:37.898Z</time></trkpt><trkpt lat="43.1386308" lon="12.3187781"><ele>533.0</ele><time>2026-04-17T12:14:38.89Z</time></trkpt><trkpt lat="43.1386398" lon="12.3186811"><ele>533.0</ele><time>2026-04-17T12:14:39.889Z</time></trkpt><trkpt lat="43.1386693" lon="12.31857"><ele>533.0</ele><time>2026-04-17T12:14:40.893Z</time></trkpt><trkpt lat="43.1387068" lon="12.3184622"><ele>533.5</ele><time>2026-04-17T12:14:41.878Z</time></trkpt><trkpt lat="43.1387455" lon="12.3183785"><ele>534.0</ele><time>2026-04-17T12:14:42.88Z</time></trkpt><trkpt lat="43.138789" lon="12.3182442"><ele>534.5</ele><time>2026-04-17T12:14:44.902Z</time></trkpt><trkpt lat="43.1387091" lon="12.3182631"><ele>535.0</ele><time>2026-04-17T12:14:47.893Z</time></trkpt><trkpt lat="43.1386739" lon="12.3183614"><ele>535.5</ele><time>2026-04-17T12:14:48.888Z</time></trkpt><trkpt lat="43.1386428" lon="12.3185005"><ele>536.0</ele><time>2026-04-17T12:14:49.895Z</time></trkpt><trkpt lat="43.1386107" lon="12.3186411"><ele>536.0</ele><time>2026-04-17T12:14:50.89Z</time></trkpt><trkpt lat="43.1385694" lon="12.3187538"><ele>536.0</ele><time>2026-04-17T12:14:51.887Z</time></trkpt><trkpt lat="43.1385239" lon="12.3188288"><ele>536.0</ele><time>2026-04-17T12:14:52.885Z</time></trkpt><trkpt lat="43.1384052" lon="12.3188108"><ele>536.0</ele><time>2026-04-17T12:14:54.886Z</time></trkpt><trkpt lat="43.1383212" lon="12.3187783"><ele>536.0</ele><time>2026-04-17T12:14:55.894Z</time></trkpt><trkpt lat="43.1382359" lon="12.3187701"><ele>537.0</ele><time>2026-04-17T12:14:56.876Z</time></trkpt><trkpt lat="43.138147" lon="12.3188346"><ele>538.0</ele><time>2026-04-17T12:14:57.889Z</time></trkpt><trkpt lat="43.1380718" lon="12.3188872"><ele>539.0</ele><time>2026-04-17T12:14:58.865Z</time></trkpt><trkpt lat="43.1380012" lon="12.3189444"><ele>540.0</ele><time>2026-04-17T12:14:59.898Z</time></trkpt><trkpt lat="43.1379175" lon="12.3189752"><ele>541.0</ele><time>2026-04-17T12:15:00.888Z</time></trkpt><trkpt lat="43.1378345" lon="12.3189839"><ele>542.0</ele><time>2026-04-17T12:15:01.87Z</time></trkpt><trkpt lat="43.1377442" lon="12.3189828"><ele>542.0</ele><time>2026-04-17T12:15:02.894Z</time></trkpt><trkpt lat="43.1376516" lon="12.3189578"><ele>542.0</ele><time>2026-04-17T12:15:03.883Z</time></trkpt><trkpt lat="43.1375427" lon="12.318919"><ele>542.0</ele><time>2026-04-17T12:15:04.893Z</time></trkpt><trkpt lat="43.1374386" lon="12.3188829"><ele>542.0</ele><time>2026-04-17T12:15:05.89Z</time></trkpt><trkpt lat="43.137335" lon="12.3188382"><ele>542.0</ele><time>2026-04-17T12:15:06.898Z</time></trkpt><trkpt lat="43.1372392" lon="12.318805"><ele>545.0</ele><time>2026-04-17T12:15:07.886Z</time></trkpt><trkpt lat="43.1371577" lon="12.3187842"><ele>548.0</ele><time>2026-04-17T12:15:08.898Z</time></trkpt><trkpt lat="43.1370892" lon="12.3187825"><ele>551.0</ele><time>2026-04-17T12:15:09.894Z</time></trkpt><trkpt lat="43.1370799" lon="12.3189134"><ele>554.0</ele><time>2026-04-17T12:15:12.88Z</time></trkpt><trkpt lat="43.1372021" lon="12.3189482"><ele>557.0</ele><time>2026-04-17T12:15:14.896Z</time></trkpt><trkpt lat="43.137283" lon="12.3189359"><ele>557.0</ele><time>2026-04-17T12:15:15.889Z</time></trkpt><trkpt lat="43.13735" lon="12.318935"><ele>557.0</ele><time>2026-04-17T12:15:16.87Z</time></trkpt><trkpt lat="43.1374131" lon="12.3189501"><ele>557.0</ele><time>2026-04-17T12:15:17.899Z</time></trkpt><trkpt lat="43.1374916" lon="12.3189586"><ele>557.0</ele><time>2026-04-17T12:15:18.89Z</time></trkpt><trkpt lat="43.1375604" lon="12.3189691"><ele>557.0</ele><time>2026-04-17T12:15:19.897Z</time></trkpt><trkpt lat="43.1376803" lon="12.3189921"><ele>557.0</ele><time>2026-04-17T12:15:21.88Z</time></trkpt><trkpt lat="43.1377706" lon="12.3190365"><ele>554.0</ele><time>2026-04-17T12:15:23.851Z</time></trkpt><trkpt lat="43.137835" lon="12.3191445"><ele>551.0</ele><time>2026-04-17T12:15:25.903Z</time></trkpt><trkpt lat="43.1378324" lon="12.319233"><ele>548.0</ele><time>2026-04-17T12:15:26.889Z</time></trkpt><trkpt lat="43.137807" lon="12.3193188"><ele>545.0</ele><time>2026-04-17T12:15:27.886Z</time></trkpt><trkpt lat="43.1377161" lon="12.3194531"><ele>542.0</ele><time>2026-04-17T12:15:29.891Z</time></trkpt><trkpt lat="43.1376401" lon="12.3195101"><ele>542.0</ele><time>2026-04-17T12:15:30.905Z</time></trkpt><trkpt lat="43.1375306" lon="12.3195593"><ele>542.0</ele><time>2026-04-17T12:15:31.872Z</time></trkpt><trkpt lat="43.1374113" lon="12.3196162"><ele>542.0</ele><time>2026-04-17T12:15:32.897Z</time></trkpt><trkpt lat="43.1372977" lon="12.3196685"><ele>542.0</ele><time>2026-04-17T12:15:33.899Z</time></trkpt><trkpt lat="43.1371969" lon="12.3197192"><ele>544.0</ele><time>2026-04-17T12:15:34.907Z</time></trkpt><trkpt lat="43.1370946" lon="12.3197538"><ele>546.0</ele><time>2026-04-17T12:15:35.886Z</time></trkpt><trkpt lat="43.1369995" lon="12.3197707"><ele>548.0</ele><time>2026-04-17T12:15:36.889Z</time></trkpt><trkpt lat="43.1369179" lon="12.3197976"><ele>550.0</ele><time>2026-04-17T12:15:37.885Z</time></trkpt><trkpt lat="43.1368383" lon="12.3198249"><ele>552.0</ele><time>2026-04-17T12:15:38.898Z</time></trkpt><trkpt lat="43.1367715" lon="12.3198671"><ele>554.0</ele><time>2026-04-17T12:15:39.911Z</time></trkpt><trkpt lat="43.1367435" lon="12.3199829"><ele>554.0</ele><time>2026-04-17T12:15:41.893Z</time></trkpt><trkpt lat="43.1367909" lon="12.3200448"><ele>554.0</ele><time>2026-04-17T12:15:42.836Z</time></trkpt><trkpt lat="43.1368511" lon="12.3200737"><ele>554.0</ele><time>2026-04-17T12:15:43.895Z</time></trkpt><trkpt lat="43.1369334" lon="12.3200672"><ele>554.0</ele><time>2026-04-17T12:15:44.894Z</time></trkpt><trkpt lat="43.1370264" lon="12.3200219"><ele>554.0</ele><time>2026-04-17T12:15:45.88Z</time></trkpt><trkpt lat="43.1371118" lon="12.3199388"><ele>554.0</ele><time>2026-04-17T12:15:46.881Z</time></trkpt><trkpt lat="43.1371887" lon="12.3198762"><ele>554.0</ele><time>2026-04-17T12:15:47.884Z</time></trkpt><trkpt lat="43.1372653" lon="12.3198043"><ele>554.0</ele><time>2026-04-17T12:15:48.869Z</time></trkpt><trkpt lat="43.137333" lon="12.3197394"><ele>554.0</ele><time>2026-04-17T12:15:49.893Z</time></trkpt><trkpt lat="43.1373977" lon="12.3196695"><ele>554.0</ele><time>2026-04-17T12:15:50.88Z</time></trkpt><trkpt lat="43.1374605" lon="12.3196101"><ele>554.0</ele><time>2026-04-17T12:15:51.888Z</time></trkpt><trkpt lat="43.1375209" lon="12.3195686"><ele>554.0</ele><time>2026-04-17T12:15:52.904Z</time></trkpt><trkpt lat="43.1375981" lon="12.319567"><ele>552.0</ele><time>2026-04-17T12:15:53.865Z</time></trkpt><trkpt lat="43.1376744" lon="12.3195854"><ele>550.0</ele><time>2026-04-17T12:15:54.886Z</time></trkpt><trkpt lat="43.1377453" lon="12.3195882"><ele>548.0</ele><time>2026-04-17T12:15:55.896Z</time></trkpt><trkpt lat="43.1378096" lon="12.3195837"><ele>546.0</ele><time>2026-04-17T12:15:56.893Z</time></trkpt><trkpt lat="43.1378592" lon="12.3195062"><ele>544.0</ele><time>2026-04-17T12:15:57.897Z</time></trkpt><trkpt lat="43.1378709" lon="12.3193992"><ele>542.0</ele><time>2026-04-17T12:15:58.878Z</time></trkpt><trkpt lat="43.1378839" lon="12.3192832"><ele>542.0</ele><time>2026-04-17T12:15:59.877Z</time></trkpt><trkpt lat="43.137904" lon="12.3191974"><ele>542.0</ele><time>2026-04-17T12:16:00.891Z</time></trkpt><trkpt lat="43.1379492" lon="12.319086"><ele>542.0</ele><time>2026-04-17T12:16:02.891Z</time></trkpt><trkpt lat="43.1380361" lon="12.3190843"><ele>542.0</ele><time>2026-04-17T12:16:04.88Z</time></trkpt><trkpt lat="43.1380639" lon="12.3192169"><ele>542.0</ele><time>2026-04-17T12:16:06.907Z</time></trkpt><trkpt lat="43.1380408" lon="12.3193108"><ele>542.0</ele><time>2026-04-17T12:16:07.894Z</time></trkpt><trkpt lat="43.1380198" lon="12.3194171"><ele>542.0</ele><time>2026-04-17T12:16:08.891Z</time></trkpt><trkpt lat="43.1379835" lon="12.3195236"><ele>542.0</ele><time>2026-04-17T12:16:09.905Z</time></trkpt><trkpt lat="43.1379733" lon="12.3196197"><ele>542.0</ele><time>2026-04-17T12:16:10.884Z</time></trkpt><trkpt lat="43.1380384" lon="12.3196164"><ele>542.0</ele><time>2026-04-17T12:16:12.904Z</time></trkpt><trkpt lat="43.1380605" lon="12.3195247"><ele>542.0</ele><time>2026-04-17T12:16:13.883Z</time></trkpt><trkpt lat="43.1380765" lon="12.3194013"><ele>542.0</ele><time>2026-04-17T12:16:14.891Z</time></trkpt><trkpt lat="43.1380858" lon="12.3192827"><ele>542.0</ele><time>2026-04-17T12:16:15.89Z</time></trkpt><trkpt lat="43.1381083" lon="12.3191739"><ele>542.0</ele><time>2026-04-17T12:16:16.893Z</time></trkpt><trkpt lat="43.1381434" lon="12.3190877"><ele>542.0</ele><time>2026-04-17T12:16:17.896Z</time></trkpt><trkpt lat="43.1382182" lon="12.318997"><ele>542.0</ele><time>2026-04-17T12:16:19.901Z</time></trkpt><trkpt lat="43.1382835" lon="12.3190136"><ele>542.0</ele><time>2026-04-17T12:16:20.897Z</time></trkpt><trkpt lat="43.1383406" lon="12.3190575"><ele>542.0</ele><time>2026-04-17T12:16:21.886Z</time></trkpt><trkpt lat="43.138383" lon="12.3191489"><ele>542.0</ele><time>2026-04-17T12:16:22.896Z</time></trkpt><trkpt lat="43.138391" lon="12.3192484"><ele>542.0</ele><time>2026-04-17T12:16:23.899Z</time></trkpt><trkpt lat="43.1383698" lon="12.3193554"><ele>542.0</ele><time>2026-04-17T12:16:24.897Z</time></trkpt><trkpt lat="43.1383317" lon="12.31946"><ele>542.0</ele><time>2026-04-17T12:16:25.897Z</time></trkpt><trkpt lat="43.13828" lon="12.3195583"><ele>542.0</ele><time>2026-04-17T12:16:26.897Z</time></trkpt><trkpt lat="43.1382127" lon="12.3196511"><ele>542.0</ele><time>2026-04-17T12:16:27.894Z</time></trkpt><trkpt lat="43.1381377" lon="12.3197332"><ele>542.8000000000001</ele><time>2026-04-17T12:16:28.885Z</time></trkpt><trkpt lat="43.1380497" lon="12.3197911"><ele>543.6</ele><time>2026-04-17T12:16:29.901Z</time></trkpt><trkpt lat="43.1379479" lon="12.3198364"><ele>544.4000000000001</ele><time>2026-04-17T12:16:30.893Z</time></trkpt><trkpt lat="43.1378399" lon="12.3198625"><ele>545.2</ele><time>2026-04-17T12:16:31.897Z</time></trkpt><trkpt lat="43.1377448" lon="12.3198758"><ele>546.0</ele><time>2026-04-17T12:16:32.888Z</time></trkpt><trkpt lat="43.1376618" lon="12.3198862"><ele>546.0</ele><time>2026-04-17T12:16:33.901Z</time></trkpt><trkpt lat="43.137596" lon="12.3199101"><ele>546.0</ele><time>2026-04-17T12:16:34.888Z</time></trkpt><trkpt lat="43.1375005" lon="12.3199782"><ele>546.0</ele><time>2026-04-17T12:16:36.906Z</time></trkpt><trkpt lat="43.1375104" lon="12.3200939"><ele>546.0</ele><time>2026-04-17T12:16:38.887Z</time></trkpt><trkpt lat="43.1375596" lon="12.3201499"><ele>546.0</ele><time>2026-04-17T12:16:39.888Z</time></trkpt><trkpt lat="43.1376326" lon="12.3201692"><ele>546.0</ele><time>2026-04-17T12:16:40.902Z</time></trkpt><trkpt lat="43.1377033" lon="12.3201554"><ele>546.0</ele><time>2026-04-17T12:16:41.895Z</time></trkpt><trkpt lat="43.137784" lon="12.3201487"><ele>546.0</ele><time>2026-04-17T12:16:42.899Z</time></trkpt><trkpt lat="43.1378642" lon="12.3201381"><ele>546.0</ele><time>2026-04-17T12:16:43.882Z</time></trkpt><trkpt lat="43.1379391" lon="12.3201121"><ele>546.0</ele><time>2026-04-17T12:16:44.893Z</time></trkpt><trkpt lat="43.1380497" lon="12.3200673"><ele>546.0</ele><time>2026-04-17T12:16:46.886Z</time></trkpt><trkpt lat="43.1381213" lon="12.3200183"><ele>546.0</ele><time>2026-04-17T12:16:48.894Z</time></trkpt><trkpt lat="43.1380771" lon="12.3199501"><ele>546.0</ele><time>2026-04-17T12:16:52.879Z</time></trkpt><trkpt lat="43.1380047" lon="12.320039"><ele>546.0</ele><time>2026-04-17T12:16:55.872Z</time></trkpt><trkpt lat="43.13792" lon="12.3201195"><ele>546.0</ele><time>2026-04-17T12:16:57.881Z</time></trkpt><trkpt lat="43.137843" lon="12.3201529"><ele>546.0</ele><time>2026-04-17T12:16:59.903Z</time></trkpt><trkpt lat="43.1377852" lon="12.3202001"><ele>546.0</ele><time>2026-04-17T12:18:52.855Z</time></trkpt><trkpt lat="43.1377187" lon="12.3202538"><ele>546.0</ele><time>2026-04-17T12:18:55.893Z</time></trkpt><trkpt lat="43.137665" lon="12.320314"><ele>546.0</ele><time>2026-04-17T12:18:59.905Z</time></trkpt><trkpt lat="43.1375938" lon="12.3203919"><ele>546.0</ele><time>2026-04-17T12:19:01.895Z</time></trkpt><trkpt lat="43.1374972" lon="12.3204685"><ele>546.0</ele><time>2026-04-17T12:19:03.886Z</time></trkpt><trkpt lat="43.1374145" lon="12.3205"><ele>546.0</ele><time>2026-04-17T12:19:05.875Z</time></trkpt><trkpt lat="43.1372906" lon="12.3204902"><ele>546.0</ele><time>2026-04-17T12:19:07.874Z</time></trkpt><trkpt lat="43.1372268" lon="12.3204907"><ele>547.6</ele><time>2026-04-17T12:19:08.871Z</time></trkpt><trkpt lat="43.1371582" lon="12.3204869"><ele>549.2</ele><time>2026-04-17T12:19:09.911Z</time></trkpt><trkpt lat="43.1370388" lon="12.3204428"><ele>550.8</ele><time>2026-04-17T12:19:11.905Z</time></trkpt><trkpt lat="43.1369785" lon="12.3204154"><ele>552.4</ele><time>2026-04-17T12:19:12.879Z</time></trkpt><trkpt lat="43.1368683" lon="12.3203612"><ele>554.0</ele><time>2026-04-17T12:19:14.875Z</time></trkpt><trkpt lat="43.1367946" lon="12.3203111"><ele>554.0</ele><time>2026-04-17T12:19:16.892Z</time></trkpt><trkpt lat="43.1367344" lon="12.3202711"><ele>554.0</ele><time>2026-04-17T12:19:18.885Z</time></trkpt><trkpt lat="43.1366263" lon="12.3202098"><ele>554.0</ele><time>2026-04-17T12:19:20.896Z</time></trkpt><trkpt lat="43.136547" lon="12.3201315"><ele>554.0</ele><time>2026-04-17T12:19:22.883Z</time></trkpt><trkpt lat="43.1365566" lon="12.3200342"><ele>554.0</ele><time>2026-04-17T12:19:24.886Z</time></trkpt><trkpt lat="43.136638" lon="12.319898"><ele>554.0</ele><time>2026-04-17T12:19:26.875Z</time></trkpt><trkpt lat="43.1366821" lon="12.3197981"><ele>554.0</ele><time>2026-04-17T12:19:27.904Z</time></trkpt><trkpt lat="43.1367297" lon="12.319698"><ele>554.0</ele><time>2026-04-17T12:19:28.884Z</time></trkpt><trkpt lat="43.1367649" lon="12.3196085"><ele>554.0</ele><time>2026-04-17T12:19:29.891Z</time></trkpt><trkpt lat="43.1368064" lon="12.3195191"><ele>554.0</ele><time>2026-04-17T12:19:30.889Z</time></trkpt><trkpt lat="43.136836" lon="12.3193599"><ele>554.0</ele><time>2026-04-17T12:19:32.908Z</time></trkpt><trkpt lat="43.1368026" lon="12.3192118"><ele>554.6</ele><time>2026-04-17T12:19:34.922Z</time></trkpt><trkpt lat="43.1367453" lon="12.3190918"><ele>555.2</ele><time>2026-04-17T12:19:36.895Z</time></trkpt><trkpt lat="43.1366626" lon="12.3189928"><ele>555.8000000000001</ele><time>2026-04-17T12:19:38.9Z</time></trkpt><trkpt lat="43.1365606" lon="12.3189084"><ele>556.4</ele><time>2026-04-17T12:19:40.88Z</time></trkpt><trkpt lat="43.1365051" lon="12.3188535"><ele>557.0</ele><time>2026-04-17T12:19:41.89Z</time></trkpt><trkpt lat="43.1364051" lon="12.3187814"><ele>560.0</ele><time>2026-04-17T12:19:43.905Z</time></trkpt><trkpt lat="43.1363353" lon="12.3187562"><ele>563.0</ele><time>2026-04-17T12:19:46.892Z</time></trkpt><trkpt lat="43.1362773" lon="12.3187219"><ele>566.0</ele><time>2026-04-17T12:19:49.882Z</time></trkpt><trkpt lat="43.1362412" lon="12.3186265"><ele>569.0</ele><time>2026-04-17T12:19:52.873Z</time></trkpt><trkpt lat="43.1361693" lon="12.3185445"><ele>572.0</ele><time>2026-04-17T12:19:55.874Z</time></trkpt><trkpt lat="43.1361088" lon="12.3185197"><ele>575.0</ele><time>2026-04-17T12:19:57.895Z</time></trkpt><trkpt lat="43.1360317" lon="12.3184805"><ele>575.0</ele><time>2026-04-17T12:19:59.901Z</time></trkpt><trkpt lat="43.1359704" lon="12.3184599"><ele>575.0</ele><time>2026-04-17T12:20:01.905Z</time></trkpt><trkpt lat="43.1359452" lon="12.3183349"><ele>575.0</ele><time>2026-04-17T12:20:04.864Z</time></trkpt><trkpt lat="43.1359659" lon="12.3182442"><ele>575.0</ele><time>2026-04-17T12:20:07.862Z</time></trkpt><trkpt lat="43.136021" lon="12.3181592"><ele>575.0</ele><time>2026-04-17T12:20:10.893Z</time></trkpt><trkpt lat="43.1360641" lon="12.3180602"><ele>575.0</ele><time>2026-04-17T12:20:13.884Z</time></trkpt><trkpt lat="43.1360944" lon="12.3179774"><ele>576.6</ele><time>2026-04-17T12:20:15.887Z</time></trkpt><trkpt lat="43.1361703" lon="12.3179077"><ele>578.2</ele><time>2026-04-17T12:20:18.907Z</time></trkpt><trkpt lat="43.1362258" lon="12.3178609"><ele>579.8</ele><time>2026-04-17T12:20:20.898Z</time></trkpt><trkpt lat="43.1362952" lon="12.3177916"><ele>581.4</ele><time>2026-04-17T12:20:22.916Z</time></trkpt><trkpt lat="43.1363912" lon="12.3176567"><ele>583.0</ele><time>2026-04-17T12:20:24.883Z</time></trkpt><trkpt lat="43.1365206" lon="12.317559"><ele>581.8333333333334</ele><time>2026-04-17T12:20:26.912Z</time></trkpt><trkpt lat="43.1366208" lon="12.317529"><ele>580.6666666666667</ele><time>2026-04-17T12:20:27.908Z</time></trkpt><trkpt lat="43.1367071" lon="12.3175051"><ele>579.5</ele><time>2026-04-17T12:20:28.902Z</time></trkpt><trkpt lat="43.1367704" lon="12.3174807"><ele>578.3333333333334</ele><time>2026-04-17T12:20:29.869Z</time></trkpt><trkpt lat="43.1368358" lon="12.3174458"><ele>577.1666666666666</ele><time>2026-04-17T12:20:30.9Z</time></trkpt><trkpt lat="43.1369185" lon="12.31733"><ele>576.0</ele><time>2026-04-17T12:20:32.883Z</time></trkpt><trkpt lat="43.136972" lon="12.317214"><ele>575.6666666666666</ele><time>2026-04-17T12:20:34.91Z</time></trkpt><trkpt lat="43.1369929" lon="12.3171278"><ele>575.3333333333334</ele><time>2026-04-17T12:20:35.927Z</time></trkpt><trkpt lat="43.1369856" lon="12.3170138"><ele>575.0</ele><time>2026-04-17T12:20:37.873Z</time></trkpt><trkpt lat="43.1369328" lon="12.3169382"><ele>574.6666666666667</ele><time>2026-04-17T12:20:39.908Z</time></trkpt><trkpt lat="43.1369346" lon="12.3168158"><ele>574.3333333333334</ele><time>2026-04-17T12:20:43.895Z</time></trkpt><trkpt lat="43.1369956" lon="12.3167428"><ele>574.0</ele><time>2026-04-17T12:20:45.886Z</time></trkpt><trkpt lat="43.1370776" lon="12.3166909"><ele>574.0</ele><time>2026-04-17T12:20:47.916Z</time></trkpt><trkpt lat="43.1371707" lon="12.3166523"><ele>574.0</ele><time>2026-04-17T12:20:49.917Z</time></trkpt><trkpt lat="43.1372576" lon="12.3166787"><ele>574.0</ele><time>2026-04-17T12:20:51.9Z</time></trkpt><trkpt lat="43.1373228" lon="12.316762"><ele>574.0</ele><time>2026-04-17T12:20:53.892Z</time></trkpt><trkpt lat="43.137382" lon="12.3168615"><ele>574.0</ele><time>2026-04-17T12:20:55.897Z</time></trkpt><trkpt lat="43.1374236" lon="12.3169329"><ele>574.0</ele><time>2026-04-17T12:20:57.907Z</time></trkpt><trkpt lat="43.1375056" lon="12.3169374"><ele>572.6</ele><time>2026-04-17T12:21:00.877Z</time></trkpt><trkpt lat="43.1375648" lon="12.316861"><ele>571.2</ele><time>2026-04-17T12:21:02.907Z</time></trkpt><trkpt lat="43.1376126" lon="12.316803"><ele>569.8000000000001</ele><time>2026-04-17T12:21:03.91Z</time></trkpt><trkpt lat="43.137679" lon="12.316686"><ele>568.4</ele><time>2026-04-17T12:21:05.915Z</time></trkpt><trkpt lat="43.1377663" lon="12.3166055"><ele>567.0</ele><time>2026-04-17T12:21:07.911Z</time></trkpt><trkpt lat="43.1378674" lon="12.3165805"><ele>567.0</ele><time>2026-04-17T12:21:09.927Z</time></trkpt><trkpt lat="43.1379589" lon="12.3165336"><ele>567.0</ele><time>2026-04-17T12:21:11.887Z</time></trkpt><trkpt lat="43.138052" lon="12.3165308"><ele>567.0</ele><time>2026-04-17T12:21:13.907Z</time></trkpt><trkpt lat="43.1381585" lon="12.3165111"><ele>567.0</ele><time>2026-04-17T12:21:15.893Z</time></trkpt><trkpt lat="43.1382615" lon="12.3164404"><ele>567.0</ele><time>2026-04-17T12:21:17.857Z</time></trkpt><trkpt lat="43.1383337" lon="12.3163212"><ele>563.6</ele><time>2026-04-17T12:21:19.914Z</time></trkpt><trkpt lat="43.138405" lon="12.3162056"><ele>560.2</ele><time>2026-04-17T12:21:21.944Z</time></trkpt><trkpt lat="43.1384819" lon="12.3161052"><ele>556.8</ele><time>2026-04-17T12:21:23.868Z</time></trkpt><trkpt lat="43.1385145" lon="12.3159861"><ele>553.4</ele><time>2026-04-17T12:21:25.906Z</time></trkpt><trkpt lat="43.1385739" lon="12.3158644"><ele>550.0</ele><time>2026-04-17T12:21:27.902Z</time></trkpt><trkpt lat="43.1386476" lon="12.315772"><ele>550.0</ele><time>2026-04-17T12:21:29.875Z</time></trkpt><trkpt lat="43.1387357" lon="12.3156957"><ele>550.0</ele><time>2026-04-17T12:21:31.855Z</time></trkpt><trkpt lat="43.1388252" lon="12.3155945"><ele>550.0</ele><time>2026-04-17T12:21:33.907Z</time></trkpt><trkpt lat="43.1389025" lon="12.3154764"><ele>550.0</ele><time>2026-04-17T12:21:35.894Z</time></trkpt><trkpt lat="43.1389356" lon="12.3153493"><ele>550.0</ele><time>2026-04-17T12:21:37.89Z</time></trkpt><trkpt lat="43.13894" lon="12.3152396"><ele>549.0</ele><time>2026-04-17T12:21:39.894Z</time></trkpt><trkpt lat="43.1389767" lon="12.3151043"><ele>548.0</ele><time>2026-04-17T12:21:41.875Z</time></trkpt><trkpt lat="43.1390089" lon="12.3150199"><ele>547.0</ele><time>2026-04-17T12:21:42.86Z</time></trkpt><trkpt lat="43.139046" lon="12.3149418"><ele>546.0</ele><time>2026-04-17T12:21:43.902Z</time></trkpt><trkpt lat="43.1391112" lon="12.3148347"><ele>545.0</ele><time>2026-04-17T12:21:45.884Z</time></trkpt><trkpt lat="43.1391926" lon="12.3147864"><ele>544.0</ele><time>2026-04-17T12:21:47.891Z</time></trkpt><trkpt lat="43.1392699" lon="12.3147291"><ele>544.0</ele><time>2026-04-17T12:21:49.893Z</time></trkpt><trkpt lat="43.1393506" lon="12.3146854"><ele>544.0</ele><time>2026-04-17T12:21:51.894Z</time></trkpt><trkpt lat="43.1394326" lon="12.3146476"><ele>544.0</ele><time>2026-04-17T12:21:53.902Z</time></trkpt><trkpt lat="43.1395035" lon="12.3146531"><ele>544.0</ele><time>2026-04-17T12:21:55.9Z</time></trkpt><trkpt lat="43.1395695" lon="12.3147522"><ele>544.0</ele><time>2026-04-17T12:21:58.892Z</time></trkpt><trkpt lat="43.1396447" lon="12.3148768"><ele>544.0</ele><time>2026-04-17T12:22:00.915Z</time></trkpt><trkpt lat="43.1396994" lon="12.3149642"><ele>544.0</ele><time>2026-04-17T12:22:02.892Z</time></trkpt><trkpt lat="43.1397361" lon="12.315035"><ele>544.0</ele><time>2026-04-17T12:22:05.902Z</time></trkpt><trkpt lat="43.1397662" lon="12.3151439"><ele>544.0</ele><time>2026-04-17T12:22:09.89Z</time></trkpt><trkpt lat="43.139784" lon="12.3152642"><ele>544.0</ele><time>2026-04-17T12:22:12.886Z</time></trkpt><trkpt lat="43.1398165" lon="12.3153728"><ele>544.0</ele><time>2026-04-17T12:22:14.887Z</time></trkpt><trkpt lat="43.139858" lon="12.3154694"><ele>541.5</ele><time>2026-04-17T12:22:15.891Z</time></trkpt><trkpt lat="43.1399262" lon="12.3156235"><ele>539.0</ele><time>2026-04-17T12:22:17.908Z</time></trkpt><trkpt lat="43.1399717" lon="12.3157017"><ele>536.5</ele><time>2026-04-17T12:22:18.881Z</time></trkpt><trkpt lat="43.1400181" lon="12.3157737"><ele>534.0</ele><time>2026-04-17T12:22:19.901Z</time></trkpt><trkpt lat="43.1400753" lon="12.3158426"><ele>531.5</ele><time>2026-04-17T12:22:20.887Z</time></trkpt><trkpt lat="43.1401314" lon="12.315913"><ele>529.0</ele><time>2026-04-17T12:22:21.913Z</time></trkpt><trkpt lat="43.1401874" lon="12.3159761"><ele>529.0</ele><time>2026-04-17T12:22:22.909Z</time></trkpt><trkpt lat="43.1402435" lon="12.3160314"><ele>529.0</ele><time>2026-04-17T12:22:23.887Z</time></trkpt><trkpt lat="43.1403519" lon="12.3160908"><ele>529.0</ele><time>2026-04-17T12:22:25.904Z</time></trkpt><trkpt lat="43.1404602" lon="12.3161266"><ele>529.0</ele><time>2026-04-17T12:22:27.855Z</time></trkpt><trkpt lat="43.1405423" lon="12.316095"><ele>529.0</ele><time>2026-04-17T12:22:29.904Z</time></trkpt><trkpt lat="43.1406187" lon="12.316032"><ele>527.1666666666667</ele><time>2026-04-17T12:22:31.909Z</time></trkpt><trkpt lat="43.1407389" lon="12.3159586"><ele>525.3333333333334</ele><time>2026-04-17T12:22:33.873Z</time></trkpt><trkpt lat="43.1408067" lon="12.3159368"><ele>523.5</ele><time>2026-04-17T12:22:34.906Z</time></trkpt><trkpt lat="43.140876" lon="12.3159116"><ele>521.6666666666666</ele><time>2026-04-17T12:22:35.898Z</time></trkpt><trkpt lat="43.1409483" lon="12.3158842"><ele>519.8333333333333</ele><time>2026-04-17T12:22:36.894Z</time></trkpt><trkpt lat="43.1410102" lon="12.3158597"><ele>518.0</ele><time>2026-04-17T12:22:37.877Z</time></trkpt><trkpt lat="43.141073" lon="12.3158296"><ele>518.0</ele><time>2026-04-17T12:22:38.872Z</time></trkpt><trkpt lat="43.1411329" lon="12.3157904"><ele>518.0</ele><time>2026-04-17T12:22:39.893Z</time></trkpt><trkpt lat="43.1411947" lon="12.3157573"><ele>518.0</ele><time>2026-04-17T12:22:40.887Z</time></trkpt><trkpt lat="43.1412583" lon="12.3157308"><ele>518.0</ele><time>2026-04-17T12:22:41.879Z</time></trkpt><trkpt lat="43.1413232" lon="12.315697"><ele>518.0</ele><time>2026-04-17T12:22:42.903Z</time></trkpt><trkpt lat="43.1413865" lon="12.3156647"><ele>518.0</ele><time>2026-04-17T12:22:43.88Z</time></trkpt><trkpt lat="43.1414484" lon="12.3156251"><ele>518.0</ele><time>2026-04-17T12:22:44.886Z</time></trkpt><trkpt lat="43.141511" lon="12.3155811"><ele>516.0</ele><time>2026-04-17T12:22:45.889Z</time></trkpt><trkpt lat="43.1415716" lon="12.3155266"><ele>514.0</ele><time>2026-04-17T12:22:46.9Z</time></trkpt><trkpt lat="43.1416293" lon="12.3154718"><ele>512.0</ele><time>2026-04-17T12:22:47.88Z</time></trkpt><trkpt lat="43.141678" lon="12.3154159"><ele>510.0</ele><time>2026-04-17T12:22:48.89Z</time></trkpt><trkpt lat="43.1417395" lon="12.3153673"><ele>508.0</ele><time>2026-04-17T12:22:49.872Z</time></trkpt><trkpt lat="43.1418166" lon="12.3153334"><ele>506.0</ele><time>2026-04-17T12:22:50.892Z</time></trkpt><trkpt lat="43.1418917" lon="12.315331"><ele>504.0</ele><time>2026-04-17T12:22:51.895Z</time></trkpt><trkpt lat="43.141978" lon="12.3153536"><ele>504.0</ele><time>2026-04-17T12:22:52.904Z</time></trkpt><trkpt lat="43.1420435" lon="12.3153662"><ele>504.0</ele><time>2026-04-17T12:22:53.885Z</time></trkpt><trkpt lat="43.1421093" lon="12.3154147"><ele>504.0</ele><time>2026-04-17T12:22:56.883Z</time></trkpt><trkpt lat="43.1420632" lon="12.3155391"><ele>504.0</ele><time>2026-04-17T12:23:00.886Z</time></trkpt><trkpt lat="43.1420128" lon="12.3156649"><ele>504.0</ele><time>2026-04-17T12:23:02.888Z</time></trkpt><trkpt lat="43.1419893" lon="12.3157975"><ele>504.0</ele><time>2026-04-17T12:23:04.881Z</time></trkpt><trkpt lat="43.1419679" lon="12.3159265"><ele>505.6</ele><time>2026-04-17T12:23:06.868Z</time></trkpt><trkpt lat="43.1419639" lon="12.3160774"><ele>507.2</ele><time>2026-04-17T12:23:08.879Z</time></trkpt><trkpt lat="43.1419918" lon="12.3162372"><ele>508.80000000000007</ele><time>2026-04-17T12:23:10.879Z</time></trkpt><trkpt lat="43.1420232" lon="12.3163862"><ele>510.40000000000003</ele><time>2026-04-17T12:23:12.879Z</time></trkpt><trkpt lat="43.1420061" lon="12.3164862"><ele>512.0</ele><time>2026-04-17T12:23:14.892Z</time></trkpt><trkpt lat="43.1419406" lon="12.3165617"><ele>514.4</ele><time>2026-04-17T12:23:16.874Z</time></trkpt><trkpt lat="43.1418373" lon="12.3165742"><ele>516.8000000000001</ele><time>2026-04-17T12:23:18.879Z</time></trkpt><trkpt lat="43.1417293" lon="12.3165437"><ele>519.2</ele><time>2026-04-17T12:23:20.863Z</time></trkpt><trkpt lat="43.1416486" lon="12.3165129"><ele>521.6</ele><time>2026-04-17T12:23:22.886Z</time></trkpt><trkpt lat="43.1415608" lon="12.3165069"><ele>524.0</ele><time>2026-04-17T12:23:24.883Z</time></trkpt><trkpt lat="43.1414835" lon="12.3164925"><ele>524.1666666666666</ele><time>2026-04-17T12:23:26.873Z</time></trkpt><trkpt lat="43.1413921" lon="12.3165143"><ele>524.3333333333333</ele><time>2026-04-17T12:23:29.893Z</time></trkpt><trkpt lat="43.1413335" lon="12.3165466"><ele>524.5</ele><time>2026-04-17T12:23:31.874Z</time></trkpt><trkpt lat="43.1412792" lon="12.3166067"><ele>524.6666666666666</ele><time>2026-04-17T12:23:33.899Z</time></trkpt><trkpt lat="43.1412089" lon="12.3166606"><ele>524.8333333333334</ele><time>2026-04-17T12:23:35.884Z</time></trkpt><trkpt lat="43.1411269" lon="12.316725"><ele>525.0</ele><time>2026-04-17T12:23:38.888Z</time></trkpt><trkpt lat="43.1410742" lon="12.3167735"><ele>525.0</ele><time>2026-04-17T12:23:40.864Z</time></trkpt><trkpt lat="43.1410143" lon="12.3168741"><ele>525.0</ele><time>2026-04-17T12:23:42.869Z</time></trkpt><trkpt lat="43.1409626" lon="12.3169797"><ele>525.0</ele><time>2026-04-17T12:23:44.885Z</time></trkpt><trkpt lat="43.1408971" lon="12.3170621"><ele>525.0</ele><time>2026-04-17T12:23:46.893Z</time></trkpt><trkpt lat="43.1408291" lon="12.3171241"><ele>525.0</ele><time>2026-04-17T12:23:48.845Z</time></trkpt><trkpt lat="43.1407482" lon="12.3171857"><ele>526.5</ele><time>2026-04-17T12:23:50.896Z</time></trkpt><trkpt lat="43.1406807" lon="12.3172691"><ele>528.0</ele><time>2026-04-17T12:23:52.899Z</time></trkpt><trkpt lat="43.1406298" lon="12.3173307"><ele>529.5</ele><time>2026-04-17T12:23:54.906Z</time></trkpt><trkpt lat="43.140571" lon="12.3173904"><ele>531.0</ele><time>2026-04-17T12:23:56.888Z</time></trkpt><trkpt lat="43.140507" lon="12.3174461"><ele>532.5</ele><time>2026-04-17T12:23:58.883Z</time></trkpt><trkpt lat="43.1404298" lon="12.3175094"><ele>534.0</ele><time>2026-04-17T12:24:00.901Z</time></trkpt><trkpt lat="43.1403429" lon="12.3175734"><ele>534.0</ele><time>2026-04-17T12:24:02.886Z</time></trkpt><trkpt lat="43.1402519" lon="12.3176234"><ele>534.0</ele><time>2026-04-17T12:24:04.906Z</time></trkpt><trkpt lat="43.1401573" lon="12.3176753"><ele>534.0</ele><time>2026-04-17T12:24:06.891Z</time></trkpt><trkpt lat="43.1400723" lon="12.3177564"><ele>534.0</ele><time>2026-04-17T12:24:08.902Z</time></trkpt><trkpt lat="43.1399631" lon="12.3178786"><ele>534.0</ele><time>2026-04-17T12:24:10.905Z</time></trkpt><trkpt lat="43.139905" lon="12.317948"><ele>533.8571428571429</ele><time>2026-04-17T12:24:11.902Z</time></trkpt><trkpt lat="43.1398548" lon="12.3180219"><ele>533.7142857142858</ele><time>2026-04-17T12:24:12.9Z</time></trkpt><trkpt lat="43.1398072" lon="12.3180865"><ele>533.5714285714286</ele><time>2026-04-17T12:24:13.883Z</time></trkpt><trkpt lat="43.1397528" lon="12.3181619"><ele>533.4285714285714</ele><time>2026-04-17T12:24:14.89Z</time></trkpt><trkpt lat="43.1397073" lon="12.3182279"><ele>533.2857142857142</ele><time>2026-04-17T12:24:15.886Z</time></trkpt><trkpt lat="43.1396587" lon="12.3182835"><ele>533.1428571428571</ele><time>2026-04-17T12:24:16.903Z</time></trkpt><trkpt lat="43.1395891" lon="12.3183638"><ele>533.0</ele><time>2026-04-17T12:24:18.909Z</time></trkpt><trkpt lat="43.1395359" lon="12.3184618"><ele>534.0</ele><time>2026-04-17T12:24:20.881Z</time></trkpt><trkpt lat="43.139485" lon="12.3185545"><ele>535.0</ele><time>2026-04-17T12:24:22.902Z</time></trkpt><trkpt lat="43.1394413" lon="12.3186607"><ele>536.0</ele><time>2026-04-17T12:24:24.9Z</time></trkpt><trkpt lat="43.1394108" lon="12.318746"><ele>537.0</ele><time>2026-04-17T12:24:26.896Z</time></trkpt><trkpt lat="43.1393936" lon="12.3188507"><ele>538.0</ele><time>2026-04-17T12:24:28.913Z</time></trkpt><trkpt lat="43.1393885" lon="12.3189911"><ele>539.0</ele><time>2026-04-17T12:24:30.929Z</time></trkpt><trkpt lat="43.1394042" lon="12.3191458"><ele>541.4</ele><time>2026-04-17T12:24:32.905Z</time></trkpt><trkpt lat="43.1394219" lon="12.3192339"><ele>543.8</ele><time>2026-04-17T12:24:33.906Z</time></trkpt><trkpt lat="43.1394476" lon="12.319395"><ele>546.2</ele><time>2026-04-17T12:24:35.917Z</time></trkpt><trkpt lat="43.1394585" lon="12.3194812"><ele>548.6</ele><time>2026-04-17T12:24:36.917Z</time></trkpt><trkpt lat="43.1395063" lon="12.3196313"><ele>551.0</ele><time>2026-04-17T12:24:38.912Z</time></trkpt><trkpt lat="43.1395619" lon="12.3197857"><ele>552.2</ele><time>2026-04-17T12:24:40.909Z</time></trkpt><trkpt lat="43.1395987" lon="12.3199312"><ele>553.4000000000001</ele><time>2026-04-17T12:24:42.898Z</time></trkpt><trkpt lat="43.1396459" lon="12.3200765"><ele>554.6</ele><time>2026-04-17T12:24:44.92Z</time></trkpt><trkpt lat="43.1396712" lon="12.320211"><ele>555.8000000000001</ele><time>2026-04-17T12:24:46.881Z</time></trkpt><trkpt lat="43.1396872" lon="12.3203565"><ele>557.0</ele><time>2026-04-17T12:24:48.911Z</time></trkpt><trkpt lat="43.1396899" lon="12.3204985"><ele>559.1666666666666</ele><time>2026-04-17T12:24:50.892Z</time></trkpt><trkpt lat="43.1396775" lon="12.3206499"><ele>561.3333333333333</ele><time>2026-04-17T12:24:52.889Z</time></trkpt><trkpt lat="43.139655" lon="12.3207777"><ele>563.5</ele><time>2026-04-17T12:24:54.901Z</time></trkpt><trkpt lat="43.1396649" lon="12.3208732"><ele>565.6666666666666</ele><time>2026-04-17T12:24:56.897Z</time></trkpt><trkpt lat="43.1396855" lon="12.3209682"><ele>567.8333333333334</ele><time>2026-04-17T12:24:58.914Z</time></trkpt><trkpt lat="43.1397261" lon="12.3210345"><ele>570.0</ele><time>2026-04-17T12:25:01.928Z</time></trkpt><trkpt lat="43.1397981" lon="12.3209833"><ele>570.0</ele><time>2026-04-17T12:25:03.89Z</time></trkpt><trkpt lat="43.1398764" lon="12.3209015"><ele>570.0</ele><time>2026-04-17T12:25:05.906Z</time></trkpt><trkpt lat="43.1399346" lon="12.3208093"><ele>570.0</ele><time>2026-04-17T12:25:07.913Z</time></trkpt><trkpt lat="43.1399831" lon="12.3206977"><ele>570.0</ele><time>2026-04-17T12:25:09.918Z</time></trkpt><trkpt lat="43.1400709" lon="12.3205744"><ele>570.0</ele><time>2026-04-17T12:25:11.904Z</time></trkpt><trkpt lat="43.1401077" lon="12.3204924"><ele>570.6666666666666</ele><time>2026-04-17T12:25:12.86Z</time></trkpt><trkpt lat="43.1401646" lon="12.3203658"><ele>571.3333333333334</ele><time>2026-04-17T12:25:14.895Z</time></trkpt><trkpt lat="43.1401838" lon="12.3202631"><ele>572.0</ele><time>2026-04-17T12:25:16.91Z</time></trkpt><trkpt lat="43.140174" lon="12.3201519"><ele>572.6666666666667</ele><time>2026-04-17T12:25:18.907Z</time></trkpt><trkpt lat="43.1401633" lon="12.3200404"><ele>573.3333333333334</ele><time>2026-04-17T12:25:20.91Z</time></trkpt><trkpt lat="43.1401744" lon="12.3199295"><ele>574.0</ele><time>2026-04-17T12:25:22.921Z</time></trkpt><trkpt lat="43.1402151" lon="12.3198304"><ele>574.0</ele><time>2026-04-17T12:25:25.908Z</time></trkpt><trkpt lat="43.1402471" lon="12.3197498"><ele>574.0</ele><time>2026-04-17T12:25:27.905Z</time></trkpt><trkpt lat="43.1402886" lon="12.3196666"><ele>574.0</ele><time>2026-04-17T12:25:37.902Z</time></trkpt><trkpt lat="43.1403159" lon="12.3195834"><ele>574.0</ele><time>2026-04-17T12:25:54.86Z</time></trkpt><trkpt lat="43.1403417" lon="12.3194795"><ele>574.0</ele><time>2026-04-17T12:26:15.878Z</time></trkpt><trkpt lat="43.1403864" lon="12.3193831"><ele>574.0</ele><time>2026-04-17T12:26:18.902Z</time></trkpt><trkpt lat="43.1404292" lon="12.3192756"><ele>573.3333333333334</ele><time>2026-04-17T12:26:21.892Z</time></trkpt><trkpt lat="43.1404573" lon="12.319187"><ele>572.6666666666667</ele><time>2026-04-17T12:26:23.921Z</time></trkpt><trkpt lat="43.1404822" lon="12.3190708"><ele>572.0</ele><time>2026-04-17T12:26:25.918Z</time></trkpt><trkpt lat="43.140496" lon="12.3189531"><ele>571.3333333333334</ele><time>2026-04-17T12:26:27.896Z</time></trkpt><trkpt lat="43.1405169" lon="12.3188529"><ele>570.6666666666666</ele><time>2026-04-17T12:26:29.857Z</time></trkpt><trkpt lat="43.1405441" lon="12.3187374"><ele>570.0</ele><time>2026-04-17T12:26:31.909Z</time></trkpt><trkpt lat="43.1405762" lon="12.3186102"><ele>567.3333333333334</ele><time>2026-04-17T12:26:33.929Z</time></trkpt><trkpt lat="43.1406107" lon="12.3184921"><ele>564.6666666666666</ele><time>2026-04-17T12:26:35.916Z</time></trkpt><trkpt lat="43.1406469" lon="12.3183917"><ele>562.0</ele><time>2026-04-17T12:26:37.882Z</time></trkpt><trkpt lat="43.1406992" lon="12.3183164"><ele>559.3333333333333</ele><time>2026-04-17T12:26:39.907Z</time></trkpt><trkpt lat="43.1407547" lon="12.3182672"><ele>556.6666666666666</ele><time>2026-04-17T12:26:41.918Z</time></trkpt><trkpt lat="43.140843" lon="12.3182137"><ele>554.0</ele><time>2026-04-17T12:26:43.914Z</time></trkpt><trkpt lat="43.1409123" lon="12.3181312"><ele>551.0</ele><time>2026-04-17T12:26:45.899Z</time></trkpt><trkpt lat="43.1409889" lon="12.3180219"><ele>548.0</ele><time>2026-04-17T12:26:47.885Z</time></trkpt><trkpt lat="43.1410542" lon="12.31791"><ele>545.0</ele><time>2026-04-17T12:26:49.886Z</time></trkpt><trkpt lat="43.1411077" lon="12.3178329"><ele>542.0</ele><time>2026-04-17T12:26:51.889Z</time></trkpt><trkpt lat="43.1411731" lon="12.3177817"><ele>539.0</ele><time>2026-04-17T12:26:54.89Z</time></trkpt><trkpt lat="43.1412529" lon="12.3177566"><ele>539.0</ele><time>2026-04-17T12:26:57.884Z</time></trkpt><trkpt lat="43.1413244" lon="12.3177351"><ele>539.0</ele><time>2026-04-17T12:27:00.898Z</time></trkpt><trkpt lat="43.1414089" lon="12.3176769"><ele>539.0</ele><time>2026-04-17T12:27:03.895Z</time></trkpt><trkpt lat="43.1414762" lon="12.3176192"><ele>539.0</ele><time>2026-04-17T12:27:05.899Z</time></trkpt><trkpt lat="43.1415472" lon="12.3175456"><ele>539.0</ele><time>2026-04-17T12:27:07.891Z</time></trkpt><trkpt lat="43.1416174" lon="12.3174539"><ele>539.0</ele><time>2026-04-17T12:27:09.853Z</time></trkpt><trkpt lat="43.1416707" lon="12.3173989"><ele>537.8</ele><time>2026-04-17T12:27:10.92Z</time></trkpt><trkpt lat="43.1417633" lon="12.3172794"><ele>536.5999999999999</ele><time>2026-04-17T12:27:12.907Z</time></trkpt><trkpt lat="43.1418204" lon="12.3172113"><ele>535.4</ele><time>2026-04-17T12:27:13.899Z</time></trkpt><trkpt lat="43.1419286" lon="12.3171029"><ele>534.1999999999999</ele><time>2026-04-17T12:27:15.875Z</time></trkpt><trkpt lat="43.1419946" lon="12.3170552"><ele>533.0</ele><time>2026-04-17T12:27:16.855Z</time></trkpt><trkpt lat="43.1420486" lon="12.3170058"><ele>531.5</ele><time>2026-04-17T12:27:17.876Z</time></trkpt><trkpt lat="43.142113" lon="12.3169527"><ele>530.0</ele><time>2026-04-17T12:27:18.889Z</time></trkpt><trkpt lat="43.1421767" lon="12.316897"><ele>528.5</ele><time>2026-04-17T12:27:19.886Z</time></trkpt><trkpt lat="43.142239" lon="12.3168241"><ele>527.0</ele><time>2026-04-17T12:27:20.901Z</time></trkpt><trkpt lat="43.1423036" lon="12.316749"><ele>525.5</ele><time>2026-04-17T12:27:21.885Z</time></trkpt><trkpt lat="43.1423548" lon="12.3166807"><ele>524.0</ele><time>2026-04-17T12:27:22.905Z</time></trkpt><trkpt lat="43.142439" lon="12.3165645"><ele>523.5</ele><time>2026-04-17T12:27:24.896Z</time></trkpt><trkpt lat="43.1424848" lon="12.3164992"><ele>523.0</ele><time>2026-04-17T12:27:25.895Z</time></trkpt><trkpt lat="43.1425193" lon="12.3164267"><ele>522.5</ele><time>2026-04-17T12:27:26.894Z</time></trkpt><trkpt lat="43.1425869" lon="12.3163066"><ele>522.0</ele><time>2026-04-17T12:27:28.906Z</time></trkpt><trkpt lat="43.1426446" lon="12.3162029"><ele>521.5</ele><time>2026-04-17T12:27:30.896Z</time></trkpt><trkpt lat="43.1427021" lon="12.3160767"><ele>521.0</ele><time>2026-04-17T12:27:32.903Z</time></trkpt><trkpt lat="43.1427527" lon="12.3159514"><ele>520.4</ele><time>2026-04-17T12:27:34.91Z</time></trkpt><trkpt lat="43.142796" lon="12.3158275"><ele>519.8</ele><time>2026-04-17T12:27:36.913Z</time></trkpt><trkpt lat="43.1428614" lon="12.3156774"><ele>519.1999999999999</ele><time>2026-04-17T12:27:38.915Z</time></trkpt><trkpt lat="43.1429141" lon="12.3155877"><ele>518.6</ele><time>2026-04-17T12:27:40.9Z</time></trkpt><trkpt lat="43.142976" lon="12.3156969"><ele>518.0</ele><time>2026-04-17T12:27:44.901Z</time></trkpt><trkpt lat="43.1430166" lon="12.3158529"><ele>518.0</ele><time>2026-04-17T12:27:46.875Z</time></trkpt><trkpt lat="43.1430412" lon="12.3159341"><ele>518.0</ele><time>2026-04-17T12:27:47.896Z</time></trkpt><trkpt lat="43.1431017" lon="12.316066"><ele>518.0</ele><time>2026-04-17T12:27:49.888Z</time></trkpt><trkpt lat="43.1431387" lon="12.3162041"><ele>518.0</ele><time>2026-04-17T12:27:51.902Z</time></trkpt><trkpt lat="43.1431613" lon="12.3163247"><ele>518.0</ele><time>2026-04-17T12:27:53.889Z</time></trkpt><trkpt lat="43.1431992" lon="12.316414"><ele>514.8</ele><time>2026-04-17T12:27:55.912Z</time></trkpt><trkpt lat="43.1433165" lon="12.3164528"><ele>511.59999999999997</ele><time>2026-04-17T12:27:57.904Z</time></trkpt><trkpt lat="43.1434046" lon="12.3164508"><ele>508.40000000000003</ele><time>2026-04-17T12:27:58.88Z</time></trkpt><trkpt lat="43.1434979" lon="12.3164518"><ele>505.20000000000005</ele><time>2026-04-17T12:27:59.906Z</time></trkpt><trkpt lat="43.1435914" lon="12.3164569"><ele>502.0</ele><time>2026-04-17T12:28:00.903Z</time></trkpt><trkpt lat="43.1436663" lon="12.3164767"><ele>502.00000000000006</ele><time>2026-04-17T12:28:01.889Z</time></trkpt><trkpt lat="43.1437444" lon="12.3164899"><ele>502.0</ele><time>2026-04-17T12:28:02.908Z</time></trkpt><trkpt lat="43.1438547" lon="12.3165025"><ele>502.0</ele><time>2026-04-17T12:28:04.906Z</time></trkpt><trkpt lat="43.1439405" lon="12.3165201"><ele>502.0</ele><time>2026-04-17T12:28:06.912Z</time></trkpt><trkpt lat="43.1440088" lon="12.3165927"><ele>502.00000000000006</ele><time>2026-04-17T12:28:08.894Z</time></trkpt><trkpt lat="43.1440452" lon="12.3166735"><ele>502.0</ele><time>2026-04-17T12:28:10.859Z</time></trkpt><trkpt lat="43.1440932" lon="12.3167503"><ele>500.50000000000006</ele><time>2026-04-17T12:28:12.909Z</time></trkpt><trkpt lat="43.1441753" lon="12.3168087"><ele>499.0</ele><time>2026-04-17T12:28:15.9Z</time></trkpt><trkpt lat="43.1442423" lon="12.3168009"><ele>497.5</ele><time>2026-04-17T12:28:17.928Z</time></trkpt><trkpt lat="43.1443607" lon="12.3167986"><ele>496.0</ele><time>2026-04-17T12:28:19.897Z</time></trkpt><trkpt lat="43.1444237" lon="12.3168076"><ele>494.50000000000006</ele><time>2026-04-17T12:28:20.898Z</time></trkpt><trkpt lat="43.1444914" lon="12.3168381"><ele>493.0</ele><time>2026-04-17T12:28:21.904Z</time></trkpt><trkpt lat="43.1445663" lon="12.3168691"><ele>493.00000000000006</ele><time>2026-04-17T12:28:22.919Z</time></trkpt><trkpt lat="43.144646" lon="12.3168892"><ele>493.0</ele><time>2026-04-17T12:28:23.854Z</time></trkpt><trkpt lat="43.1447369" lon="12.3169077"><ele>493.0</ele><time>2026-04-17T12:28:24.874Z</time></trkpt><trkpt lat="43.1448229" lon="12.3169059"><ele>493.0</ele><time>2026-04-17T12:28:25.918Z</time></trkpt><trkpt lat="43.1449096" lon="12.3168878"><ele>493.00000000000006</ele><time>2026-04-17T12:28:26.911Z</time></trkpt><trkpt lat="43.1449936" lon="12.3168694"><ele>493.0</ele><time>2026-04-17T12:28:27.888Z</time></trkpt><trkpt lat="43.1450803" lon="12.3168514"><ele>492.2</ele><time>2026-04-17T12:28:28.916Z</time></trkpt><trkpt lat="43.1451728" lon="12.3168462"><ele>491.4</ele><time>2026-04-17T12:28:29.902Z</time></trkpt><trkpt lat="43.1452569" lon="12.3168328"><ele>490.59999999999997</ele><time>2026-04-17T12:28:30.893Z</time></trkpt><trkpt lat="43.1453279" lon="12.3168166"><ele>489.79999999999995</ele><time>2026-04-17T12:28:31.909Z</time></trkpt><trkpt lat="43.1454368" lon="12.3167825"><ele>489.0</ele><time>2026-04-17T12:28:33.917Z</time></trkpt><trkpt lat="43.1455241" lon="12.3167308"><ele>489.0</ele><time>2026-04-17T12:28:35.904Z</time></trkpt><trkpt lat="43.1455847" lon="12.3166886"><ele>489.00000000000006</ele><time>2026-04-17T12:28:37.899Z</time></trkpt><trkpt lat="43.1456411" lon="12.3166331"><ele>489.0</ele><time>2026-04-17T12:28:40.892Z</time></trkpt><trkpt lat="43.1456477" lon="12.316536"><ele>489.0</ele><time>2026-04-17T12:31:17.872Z</time></trkpt><trkpt lat="43.1455935" lon="12.3165813"><ele>489.00000000000006</ele><time>2026-04-17T12:31:55.907Z</time></trkpt><trkpt lat="43.1455317" lon="12.3165993"><ele>489.0</ele><time>2026-04-17T12:32:02.916Z</time></trkpt><trkpt lat="43.1455808" lon="12.3166584"><ele>489.0</ele><time>2026-04-17T12:33:05.8Z</time></trkpt><trkpt lat="43.1455799" lon="12.3165368"><ele>489.0</ele><time>2026-04-17T12:37:14.876Z</time></trkpt><trkpt lat="43.1456623" lon="12.3165717"><ele>489.0</ele><time>2026-04-17T12:38:36.893Z</time></trkpt><trkpt lat="43.1457109" lon="12.3164948"><ele>489.0</ele><time>2026-04-17T12:38:48.872Z</time></trkpt><trkpt lat="43.1457809" lon="12.3164408"><ele>489.0</ele><time>2026-04-17T12:38:49.901Z</time></trkpt><trkpt lat="43.1458695" lon="12.3163729"><ele>489.0</ele><time>2026-04-17T12:38:51.907Z</time></trkpt><trkpt lat="43.1459424" lon="12.3163268"><ele>489.0</ele><time>2026-04-17T12:38:54.917Z</time></trkpt><trkpt lat="43.1460179" lon="12.3162745"><ele>488.6</ele><time>2026-04-17T12:38:57.927Z</time></trkpt><trkpt lat="43.1460966" lon="12.3162135"><ele>488.2</ele><time>2026-04-17T12:38:59.899Z</time></trkpt><trkpt lat="43.1461818" lon="12.3161487"><ele>487.80000000000007</ele><time>2026-04-17T12:39:01.902Z</time></trkpt><trkpt lat="43.1462464" lon="12.3161133"><ele>487.40000000000003</ele><time>2026-04-17T12:39:02.904Z</time></trkpt><trkpt lat="43.1463508" lon="12.3160415"><ele>487.0</ele><time>2026-04-17T12:39:04.905Z</time></trkpt><trkpt lat="43.1464615" lon="12.31597"><ele>487.0</ele><time>2026-04-17T12:39:06.854Z</time></trkpt><trkpt lat="43.146524" lon="12.3159353"><ele>487.00000000000006</ele><time>2026-04-17T12:39:07.871Z</time></trkpt><trkpt lat="43.1466247" lon="12.3158711"><ele>487.00000000000006</ele><time>2026-04-17T12:39:09.888Z</time></trkpt><trkpt lat="43.1467237" lon="12.3157985"><ele>487.0</ele><time>2026-04-17T12:39:11.898Z</time></trkpt><trkpt lat="43.1467907" lon="12.3157317"><ele>487.0</ele><time>2026-04-17T12:39:13.851Z</time></trkpt><trkpt lat="43.1468594" lon="12.3156744"><ele>486.83333333333337</ele><time>2026-04-17T12:39:15.859Z</time></trkpt><trkpt lat="43.1469252" lon="12.3156127"><ele>486.6666666666667</ele><time>2026-04-17T12:39:17.847Z</time></trkpt><trkpt lat="43.1469913" lon="12.3155457"><ele>486.5</ele><time>2026-04-17T12:39:19.856Z</time></trkpt><trkpt lat="43.1470624" lon="12.3154957"><ele>486.33333333333337</ele><time>2026-04-17T12:39:20.891Z</time></trkpt><trkpt lat="43.1471748" lon="12.3154143"><ele>486.1666666666667</ele><time>2026-04-17T12:39:22.88Z</time></trkpt><trkpt lat="43.1472342" lon="12.3153747"><ele>486.0</ele><time>2026-04-17T12:39:23.906Z</time></trkpt><trkpt lat="43.1472928" lon="12.3153408"><ele>483.8333333333333</ele><time>2026-04-17T12:39:24.905Z</time></trkpt><trkpt lat="43.1473504" lon="12.3152896"><ele>481.66666666666663</ele><time>2026-04-17T12:39:25.877Z</time></trkpt><trkpt lat="43.1474084" lon="12.315235"><ele>479.5</ele><time>2026-04-17T12:39:26.898Z</time></trkpt><trkpt lat="43.1475118" lon="12.3151297"><ele>477.3333333333333</ele><time>2026-04-17T12:39:28.904Z</time></trkpt><trkpt lat="43.1475962" lon="12.3150616"><ele>475.16666666666663</ele><time>2026-04-17T12:39:30.92Z</time></trkpt><trkpt lat="43.1476652" lon="12.3150027"><ele>473.0</ele><time>2026-04-17T12:39:32.898Z</time></trkpt><trkpt lat="43.1477292" lon="12.3149522"><ele>472.4</ele><time>2026-04-17T12:39:34.886Z</time></trkpt><trkpt lat="43.1477929" lon="12.3149256"><ele>471.79999999999995</ele><time>2026-04-17T12:39:36.905Z</time></trkpt><trkpt lat="43.1478669" lon="12.3149302"><ele>471.2</ele><time>2026-04-17T12:39:38.907Z</time></trkpt><trkpt lat="43.147976" lon="12.314969"><ele>470.6</ele><time>2026-04-17T12:39:40.856Z</time></trkpt><trkpt lat="43.1480499" lon="12.3149065"><ele>470.0</ele><time>2026-04-17T12:39:42.838Z</time></trkpt><trkpt lat="43.1481298" lon="12.3147793"><ele>467.8</ele><time>2026-04-17T12:39:44.881Z</time></trkpt><trkpt lat="43.1481617" lon="12.3146438"><ele>465.6</ele><time>2026-04-17T12:39:45.89Z</time></trkpt><trkpt lat="43.1481781" lon="12.3145149"><ele>463.4</ele><time>2026-04-17T12:39:46.874Z</time></trkpt><trkpt lat="43.1481765" lon="12.3143697"><ele>461.2</ele><time>2026-04-17T12:39:47.897Z</time></trkpt><trkpt lat="43.1481568" lon="12.3142197"><ele>459.0</ele><time>2026-04-17T12:39:48.871Z</time></trkpt><trkpt lat="43.1481335" lon="12.3140696"><ele>459.0</ele><time>2026-04-17T12:39:49.906Z</time></trkpt><trkpt lat="43.1481206" lon="12.3139484"><ele>459.0</ele><time>2026-04-17T12:39:50.878Z</time></trkpt><trkpt lat="43.1481099" lon="12.3138172"><ele>459.0</ele><time>2026-04-17T12:39:51.888Z</time></trkpt><trkpt lat="43.1480938" lon="12.3137014"><ele>459.0</ele><time>2026-04-17T12:39:52.9Z</time></trkpt><trkpt lat="43.1480782" lon="12.3135919"><ele>459.0</ele><time>2026-04-17T12:39:53.906Z</time></trkpt><trkpt lat="43.1480752" lon="12.3134993"><ele>459.0</ele><time>2026-04-17T12:39:54.896Z</time></trkpt><trkpt lat="43.148072" lon="12.3134027"><ele>458.79999999999995</ele><time>2026-04-17T12:39:55.886Z</time></trkpt><trkpt lat="43.148099" lon="12.3132556"><ele>458.59999999999997</ele><time>2026-04-17T12:39:57.862Z</time></trkpt><trkpt lat="43.1481347" lon="12.3131775"><ele>458.4</ele><time>2026-04-17T12:39:58.871Z</time></trkpt><trkpt lat="43.1482156" lon="12.3130589"><ele>458.2</ele><time>2026-04-17T12:40:00.88Z</time></trkpt><trkpt lat="43.148297" lon="12.3129536"><ele>458.0</ele><time>2026-04-17T12:40:02.896Z</time></trkpt><trkpt lat="43.14836" lon="12.3128602"><ele>458.0</ele><time>2026-04-17T12:40:04.866Z</time></trkpt><trkpt lat="43.1484267" lon="12.3127121"><ele>457.99999999999994</ele><time>2026-04-17T12:40:06.879Z</time></trkpt><trkpt lat="43.1484542" lon="12.312633"><ele>457.99999999999994</ele><time>2026-04-17T12:40:07.887Z</time></trkpt><trkpt lat="43.1484842" lon="12.3125386"><ele>458.0</ele><time>2026-04-17T12:40:09.836Z</time></trkpt><trkpt lat="43.1485323" lon="12.3124227"><ele>458.0</ele><time>2026-04-17T12:40:11.866Z</time></trkpt><trkpt lat="43.1485813" lon="12.3122842"><ele>455.66666666666663</ele><time>2026-04-17T12:40:13.881Z</time></trkpt><trkpt lat="43.1486269" lon="12.3121788"><ele>453.3333333333333</ele><time>2026-04-17T12:40:15.885Z</time></trkpt><trkpt lat="43.1485991" lon="12.312084"><ele>451.0</ele><time>2026-04-17T12:40:18.848Z</time></trkpt><trkpt lat="43.1485166" lon="12.3120631"><ele>448.66666666666663</ele><time>2026-04-17T12:40:20.901Z</time></trkpt><trkpt lat="43.1484522" lon="12.3120227"><ele>446.3333333333333</ele><time>2026-04-17T12:40:22.894Z</time></trkpt><trkpt lat="43.1484072" lon="12.3119333"><ele>444.0</ele><time>2026-04-17T12:40:24.9Z</time></trkpt><trkpt lat="43.1484198" lon="12.3118353"><ele>444.0</ele><time>2026-04-17T12:40:27.839Z</time></trkpt><trkpt lat="43.1484933" lon="12.3117918"><ele>444.0</ele><time>2026-04-17T12:40:29.91Z</time></trkpt><trkpt lat="43.1486059" lon="12.3117363"><ele>444.0</ele><time>2026-04-17T12:40:31.882Z</time></trkpt><trkpt lat="43.1486776" lon="12.3117097"><ele>444.0</ele><time>2026-04-17T12:40:32.87Z</time></trkpt><trkpt lat="43.1487478" lon="12.3116853"><ele>444.0</ele><time>2026-04-17T12:40:33.893Z</time></trkpt><trkpt lat="43.1488162" lon="12.3116685"><ele>444.0</ele><time>2026-04-17T12:40:34.917Z</time></trkpt><trkpt lat="43.1488806" lon="12.3116619"><ele>444.0</ele><time>2026-04-17T12:40:35.893Z</time></trkpt><trkpt lat="43.1489462" lon="12.3116481"><ele>444.0</ele><time>2026-04-17T12:40:36.875Z</time></trkpt><trkpt lat="43.1490127" lon="12.3116264"><ele>444.0</ele><time>2026-04-17T12:40:37.882Z</time></trkpt><trkpt lat="43.1490809" lon="12.3116036"><ele>444.0</ele><time>2026-04-17T12:40:38.897Z</time></trkpt><trkpt lat="43.1491482" lon="12.3115761"><ele>444.0</ele><time>2026-04-17T12:40:39.896Z</time></trkpt><trkpt lat="43.1492113" lon="12.3115562"><ele>444.0</ele><time>2026-04-17T12:40:40.906Z</time></trkpt><trkpt lat="43.1492714" lon="12.3115251"><ele>444.0</ele><time>2026-04-17T12:40:41.898Z</time></trkpt><trkpt lat="43.1493403" lon="12.3115036"><ele>444.4285714285714</ele><time>2026-04-17T12:40:42.903Z</time></trkpt><trkpt lat="43.1494078" lon="12.3114749"><ele>444.8571428571429</ele><time>2026-04-17T12:40:43.914Z</time></trkpt><trkpt lat="43.1494799" lon="12.3114566"><ele>445.2857142857143</ele><time>2026-04-17T12:40:44.9Z</time></trkpt><trkpt lat="43.1495518" lon="12.3114375"><ele>445.71428571428567</ele><time>2026-04-17T12:40:45.895Z</time></trkpt><trkpt lat="43.1496269" lon="12.311407"><ele>446.1428571428571</ele><time>2026-04-17T12:40:46.887Z</time></trkpt><trkpt lat="43.1496987" lon="12.3113703"><ele>446.57142857142856</ele><time>2026-04-17T12:40:47.917Z</time></trkpt><trkpt lat="43.1497657" lon="12.3113484"><ele>447.0</ele><time>2026-04-17T12:40:48.903Z</time></trkpt><trkpt lat="43.1498431" lon="12.3113198"><ele>445.0</ele><time>2026-04-17T12:40:49.921Z</time></trkpt><trkpt lat="43.1499591" lon="12.3112862"><ele>443.00000000000006</ele><time>2026-04-17T12:40:51.899Z</time></trkpt><trkpt lat="43.1500241" lon="12.3112871"><ele>441.00000000000006</ele><time>2026-04-17T12:40:52.914Z</time></trkpt><trkpt lat="43.1501389" lon="12.3113437"><ele>439.0</ele><time>2026-04-17T12:40:54.914Z</time></trkpt><trkpt lat="43.1502007" lon="12.3114797"><ele>437.0</ele><time>2026-04-17T12:40:56.897Z</time></trkpt><trkpt lat="43.1502035" lon="12.3116095"><ele>436.99999999999994</ele><time>2026-04-17T12:40:58.89Z</time></trkpt><trkpt lat="43.1502539" lon="12.3117743"><ele>437.0</ele><time>2026-04-17T12:41:00.906Z</time></trkpt><trkpt lat="43.1502905" lon="12.3118471"><ele>437.0</ele><time>2026-04-17T12:41:01.896Z</time></trkpt><trkpt lat="43.150329" lon="12.3119218"><ele>437.0</ele><time>2026-04-17T12:41:02.904Z</time></trkpt><trkpt lat="43.1503747" lon="12.3119979"><ele>436.99999999999994</ele><time>2026-04-17T12:41:03.891Z</time></trkpt><trkpt lat="43.1504222" lon="12.3120704"><ele>437.0</ele><time>2026-04-17T12:41:04.896Z</time></trkpt><trkpt lat="43.1504789" lon="12.3121401"><ele>436.99999999999994</ele><time>2026-04-17T12:41:05.904Z</time></trkpt><trkpt lat="43.1505365" lon="12.3122101"><ele>437.0</ele><time>2026-04-17T12:41:06.908Z</time></trkpt><trkpt lat="43.1505986" lon="12.3122913"><ele>437.0</ele><time>2026-04-17T12:41:07.869Z</time></trkpt><trkpt lat="43.1506686" lon="12.3123768"><ele>437.0</ele><time>2026-04-17T12:41:08.834Z</time></trkpt><trkpt lat="43.1507303" lon="12.3124611"><ele>436.99999999999994</ele><time>2026-04-17T12:41:09.834Z</time></trkpt><trkpt lat="43.1507778" lon="12.3125407"><ele>437.0</ele><time>2026-04-17T12:41:10.867Z</time></trkpt><trkpt lat="43.1508335" lon="12.3126251"><ele>435.3333333333333</ele><time>2026-04-17T12:41:11.899Z</time></trkpt><trkpt lat="43.1508889" lon="12.3127184"><ele>433.66666666666663</ele><time>2026-04-17T12:41:12.879Z</time></trkpt><trkpt lat="43.1509522" lon="12.3128003"><ele>432.0</ele><time>2026-04-17T12:41:13.85Z</time></trkpt><trkpt lat="43.1510065" lon="12.3128847"><ele>430.33333333333337</ele><time>2026-04-17T12:41:14.883Z</time></trkpt><trkpt lat="43.1510662" lon="12.3129573"><ele>428.6666666666667</ele><time>2026-04-17T12:41:15.899Z</time></trkpt><trkpt lat="43.1511274" lon="12.3130225"><ele>427.0</ele><time>2026-04-17T12:41:16.903Z</time></trkpt><trkpt lat="43.1511914" lon="12.3130888"><ele>427.0</ele><time>2026-04-17T12:41:17.896Z</time></trkpt><trkpt lat="43.1512443" lon="12.3131552"><ele>427.00000000000006</ele><time>2026-04-17T12:41:18.868Z</time></trkpt><trkpt lat="43.1513288" lon="12.313274"><ele>427.00000000000006</ele><time>2026-04-17T12:41:20.872Z</time></trkpt><trkpt lat="43.1513863" lon="12.313337"><ele>427.0</ele><time>2026-04-17T12:41:21.89Z</time></trkpt><trkpt lat="43.1514644" lon="12.3133947"><ele>427.0</ele><time>2026-04-17T12:41:22.893Z</time></trkpt><trkpt lat="43.1515472" lon="12.3134578"><ele>423.0</ele><time>2026-04-17T12:41:23.893Z</time></trkpt><trkpt lat="43.151631" lon="12.3135302"><ele>419.00000000000006</ele><time>2026-04-17T12:41:24.893Z</time></trkpt><trkpt lat="43.1517026" lon="12.3135886"><ele>415.0</ele><time>2026-04-17T12:41:25.909Z</time></trkpt><trkpt lat="43.1517782" lon="12.3136488"><ele>411.0</ele><time>2026-04-17T12:41:26.877Z</time></trkpt><trkpt lat="43.1518453" lon="12.3137105"><ele>407.0</ele><time>2026-04-17T12:41:27.891Z</time></trkpt><trkpt lat="43.151933" lon="12.3137747"><ele>406.99999999999994</ele><time>2026-04-17T12:41:28.887Z</time></trkpt><trkpt lat="43.1519968" lon="12.3138353"><ele>407.0</ele><time>2026-04-17T12:41:29.904Z</time></trkpt><trkpt lat="43.1520502" lon="12.3139041"><ele>407.0</ele><time>2026-04-17T12:41:30.896Z</time></trkpt><trkpt lat="43.1520977" lon="12.3139716"><ele>407.0</ele><time>2026-04-17T12:41:31.903Z</time></trkpt><trkpt lat="43.1521428" lon="12.3140456"><ele>406.99999999999994</ele><time>2026-04-17T12:41:32.9Z</time></trkpt><trkpt lat="43.1521876" lon="12.3141391"><ele>407.0</ele><time>2026-04-17T12:41:33.9Z</time></trkpt><trkpt lat="43.1522548" lon="12.3142228"><ele>407.66666666666663</ele><time>2026-04-17T12:41:34.868Z</time></trkpt><trkpt lat="43.1523161" lon="12.314316"><ele>408.3333333333333</ele><time>2026-04-17T12:41:35.893Z</time></trkpt><trkpt lat="43.152383" lon="12.3144017"><ele>409.0</ele><time>2026-04-17T12:41:36.849Z</time></trkpt><trkpt lat="43.1524443" lon="12.314491"><ele>409.66666666666663</ele><time>2026-04-17T12:41:37.881Z</time></trkpt><trkpt lat="43.1524946" lon="12.3145727"><ele>410.3333333333333</ele><time>2026-04-17T12:41:38.919Z</time></trkpt><trkpt lat="43.1525483" lon="12.3146479"><ele>411.0</ele><time>2026-04-17T12:41:39.891Z</time></trkpt><trkpt lat="43.1525993" lon="12.3147161"><ele>410.5</ele><time>2026-04-17T12:41:40.899Z</time></trkpt><trkpt lat="43.1526373" lon="12.3147858"><ele>410.0</ele><time>2026-04-17T12:41:41.89Z</time></trkpt><trkpt lat="43.1526709" lon="12.3148609"><ele>409.5</ele><time>2026-04-17T12:41:42.891Z</time></trkpt><trkpt lat="43.1527124" lon="12.3149348"><ele>409.0</ele><time>2026-04-17T12:41:43.906Z</time></trkpt><trkpt lat="43.1527573" lon="12.3150143"><ele>408.5</ele><time>2026-04-17T12:41:44.904Z</time></trkpt><trkpt lat="43.1528331" lon="12.3151634"><ele>408.0</ele><time>2026-04-17T12:41:46.892Z</time></trkpt><trkpt lat="43.1528847" lon="12.3152436"><ele>408.0</ele><time>2026-04-17T12:41:47.905Z</time></trkpt><trkpt lat="43.1529384" lon="12.3153023"><ele>408.0</ele><time>2026-04-17T12:41:48.867Z</time></trkpt><trkpt lat="43.1529798" lon="12.3153712"><ele>408.0</ele><time>2026-04-17T12:41:49.889Z</time></trkpt><trkpt lat="43.1530357" lon="12.3154332"><ele>408.0</ele><time>2026-04-17T12:41:50.883Z</time></trkpt><trkpt lat="43.1530962" lon="12.3154655"><ele>408.0</ele><time>2026-04-17T12:41:51.891Z</time></trkpt><trkpt lat="43.1532185" lon="12.3155101"><ele>408.0</ele><time>2026-04-17T12:41:53.893Z</time></trkpt><trkpt lat="43.1532935" lon="12.3155225"><ele>406.59999999999997</ele><time>2026-04-17T12:41:54.887Z</time></trkpt><trkpt lat="43.1533727" lon="12.3155523"><ele>405.2</ele><time>2026-04-17T12:41:55.892Z</time></trkpt><trkpt lat="43.1534622" lon="12.3155856"><ele>403.8</ele><time>2026-04-17T12:41:56.912Z</time></trkpt><trkpt lat="43.1535552" lon="12.3156142"><ele>402.4</ele><time>2026-04-17T12:41:57.853Z</time></trkpt><trkpt lat="43.1536577" lon="12.3156449"><ele>401.0</ele><time>2026-04-17T12:41:58.898Z</time></trkpt><trkpt lat="43.1537591" lon="12.3156945"><ele>400.99999999999994</ele><time>2026-04-17T12:41:59.884Z</time></trkpt><trkpt lat="43.1538349" lon="12.3157549"><ele>401.0</ele><time>2026-04-17T12:42:00.887Z</time></trkpt><trkpt lat="43.153916" lon="12.3158121"><ele>401.0</ele><time>2026-04-17T12:42:01.89Z</time></trkpt><trkpt lat="43.1539929" lon="12.3158612"><ele>401.0</ele><time>2026-04-17T12:42:02.911Z</time></trkpt><trkpt lat="43.1540532" lon="12.3159143"><ele>400.99999999999994</ele><time>2026-04-17T12:42:03.895Z</time></trkpt><trkpt lat="43.1541108" lon="12.3159685"><ele>401.0</ele><time>2026-04-17T12:42:04.916Z</time></trkpt><trkpt lat="43.1541591" lon="12.3160286"><ele>398.16666666666663</ele><time>2026-04-17T12:42:05.896Z</time></trkpt><trkpt lat="43.154221" lon="12.3161757"><ele>395.3333333333333</ele><time>2026-04-17T12:42:07.888Z</time></trkpt><trkpt lat="43.1542445" lon="12.3162574"><ele>392.5</ele><time>2026-04-17T12:42:08.886Z</time></trkpt><trkpt lat="43.1542746" lon="12.3163462"><ele>389.66666666666663</ele><time>2026-04-17T12:42:09.902Z</time></trkpt><trkpt lat="43.1542958" lon="12.31643"><ele>386.8333333333333</ele><time>2026-04-17T12:42:10.888Z</time></trkpt><trkpt lat="43.1543142" lon="12.3165247"><ele>384.0</ele><time>2026-04-17T12:42:11.903Z</time></trkpt><trkpt lat="43.1543269" lon="12.3166263"><ele>384.0</ele><time>2026-04-17T12:42:12.875Z</time></trkpt><trkpt lat="43.1543323" lon="12.3167503"><ele>384.0</ele><time>2026-04-17T12:42:13.889Z</time></trkpt><trkpt lat="43.154326" lon="12.3168641"><ele>384.0</ele><time>2026-04-17T12:42:14.877Z</time></trkpt><trkpt lat="43.1543242" lon="12.3170035"><ele>384.0</ele><time>2026-04-17T12:42:16.893Z</time></trkpt><trkpt lat="43.1544051" lon="12.3169894"><ele>384.0</ele><time>2026-04-17T12:42:20.895Z</time></trkpt><trkpt lat="43.1544782" lon="12.3169225"><ele>384.0</ele><time>2026-04-17T12:42:22.886Z</time></trkpt><trkpt lat="43.1545332" lon="12.3168741"><ele>384.0</ele><time>2026-04-17T12:42:23.894Z</time></trkpt><trkpt lat="43.1546232" lon="12.3168239"><ele>384.0</ele><time>2026-04-17T12:42:24.849Z</time></trkpt><trkpt lat="43.1547252" lon="12.3167932"><ele>384.0</ele><time>2026-04-17T12:42:25.897Z</time></trkpt><trkpt lat="43.1548698" lon="12.3167554"><ele>384.0</ele><time>2026-04-17T12:42:26.889Z</time></trkpt><trkpt lat="43.1549928" lon="12.3167277"><ele>381.4</ele><time>2026-04-17T12:42:27.881Z</time></trkpt><trkpt lat="43.1551078" lon="12.3167091"><ele>378.79999999999995</ele><time>2026-04-17T12:42:28.907Z</time></trkpt><trkpt lat="43.1552279" lon="12.3166959"><ele>376.20000000000005</ele><time>2026-04-17T12:42:29.892Z</time></trkpt><trkpt lat="43.155328" lon="12.3166961"><ele>373.6</ele><time>2026-04-17T12:42:30.901Z</time></trkpt><trkpt lat="43.1554267" lon="12.3167166"><ele>371.0</ele><time>2026-04-17T12:42:31.893Z</time></trkpt><trkpt lat="43.1555244" lon="12.3167387"><ele>371.0</ele><time>2026-04-17T12:42:32.913Z</time></trkpt><trkpt lat="43.1556189" lon="12.3167776"><ele>371.0</ele><time>2026-04-17T12:42:33.892Z</time></trkpt><trkpt lat="43.1556951" lon="12.3168317"><ele>371.0</ele><time>2026-04-17T12:42:34.89Z</time></trkpt><trkpt lat="43.1557671" lon="12.3168988"><ele>371.0</ele><time>2026-04-17T12:42:35.886Z</time></trkpt><trkpt lat="43.1558424" lon="12.3169785"><ele>371.0</ele><time>2026-04-17T12:42:36.905Z</time></trkpt><trkpt lat="43.1559109" lon="12.3170555"><ele>371.6666666666667</ele><time>2026-04-17T12:42:37.887Z</time></trkpt><trkpt lat="43.1559696" lon="12.3171323"><ele>372.33333333333337</ele><time>2026-04-17T12:42:38.89Z</time></trkpt><trkpt lat="43.1560373" lon="12.3172137"><ele>373.0</ele><time>2026-04-17T12:42:39.9Z</time></trkpt><trkpt lat="43.1560994" lon="12.3172894"><ele>373.6666666666667</ele><time>2026-04-17T12:42:40.904Z</time></trkpt><trkpt lat="43.1561535" lon="12.3173672"><ele>374.3333333333333</ele><time>2026-04-17T12:42:41.902Z</time></trkpt><trkpt lat="43.1562119" lon="12.3174523"><ele>375.0</ele><time>2026-04-17T12:42:42.896Z</time></trkpt><trkpt lat="43.1562647" lon="12.3175439"><ele>375.0</ele><time>2026-04-17T12:42:43.906Z</time></trkpt><trkpt lat="43.1563043" lon="12.31764"><ele>375.0</ele><time>2026-04-17T12:42:44.916Z</time></trkpt><trkpt lat="43.1563486" lon="12.3177278"><ele>375.0</ele><time>2026-04-17T12:42:45.889Z</time></trkpt><trkpt lat="43.1564067" lon="12.317809"><ele>375.0</ele><time>2026-04-17T12:42:46.901Z</time></trkpt><trkpt lat="43.1564708" lon="12.3178974"><ele>375.0</ele><time>2026-04-17T12:42:47.899Z</time></trkpt><trkpt lat="43.1565421" lon="12.317978"><ele>375.0</ele><time>2026-04-17T12:42:48.885Z</time></trkpt><trkpt lat="43.1565979" lon="12.3180676"><ele>371.8333333333333</ele><time>2026-04-17T12:42:49.894Z</time></trkpt><trkpt lat="43.1566529" lon="12.318149"><ele>368.6666666666667</ele><time>2026-04-17T12:42:50.894Z</time></trkpt><trkpt lat="43.1567039" lon="12.3182307"><ele>365.5</ele><time>2026-04-17T12:42:51.897Z</time></trkpt><trkpt lat="43.1567486" lon="12.3183162"><ele>362.33333333333337</ele><time>2026-04-17T12:42:52.886Z</time></trkpt><trkpt lat="43.1567857" lon="12.318408"><ele>359.1666666666667</ele><time>2026-04-17T12:42:53.895Z</time></trkpt><trkpt lat="43.1568265" lon="12.3185095"><ele>356.0</ele><time>2026-04-17T12:42:54.897Z</time></trkpt><trkpt lat="43.1568569" lon="12.3186295"><ele>356.0</ele><time>2026-04-17T12:42:55.894Z</time></trkpt><trkpt lat="43.1568655" lon="12.3187587"><ele>356.0</ele><time>2026-04-17T12:42:56.888Z</time></trkpt><trkpt lat="43.1568796" lon="12.3188807"><ele>356.0</ele><time>2026-04-17T12:42:57.893Z</time></trkpt><trkpt lat="43.1568956" lon="12.3190042"><ele>356.0</ele><time>2026-04-17T12:42:58.889Z</time></trkpt><trkpt lat="43.1569039" lon="12.3191182"><ele>356.0</ele><time>2026-04-17T12:42:59.905Z</time></trkpt><trkpt lat="43.156918" lon="12.3192299"><ele>356.0</ele><time>2026-04-17T12:43:00.878Z</time></trkpt><trkpt lat="43.1569335" lon="12.3193368"><ele>356.2857142857143</ele><time>2026-04-17T12:43:01.893Z</time></trkpt><trkpt lat="43.1569404" lon="12.3194427"><ele>356.57142857142856</ele><time>2026-04-17T12:43:02.89Z</time></trkpt><trkpt lat="43.1569519" lon="12.3195405"><ele>356.8571428571429</ele><time>2026-04-17T12:43:03.902Z</time></trkpt><trkpt lat="43.156954" lon="12.3196349"><ele>357.1428571428571</ele><time>2026-04-17T12:43:04.912Z</time></trkpt><trkpt lat="43.1569598" lon="12.3197323"><ele>357.42857142857144</ele><time>2026-04-17T12:43:05.852Z</time></trkpt><trkpt lat="43.1569643" lon="12.3198236"><ele>357.7142857142857</ele><time>2026-04-17T12:43:06.899Z</time></trkpt><trkpt lat="43.1569781" lon="12.3199112"><ele>358.0</ele><time>2026-04-17T12:43:07.893Z</time></trkpt><trkpt lat="43.1570023" lon="12.3200499"><ele>356.79999999999995</ele><time>2026-04-17T12:43:09.834Z</time></trkpt><trkpt lat="43.1570298" lon="12.320195"><ele>355.6</ele><time>2026-04-17T12:43:11.835Z</time></trkpt><trkpt lat="43.1570446" lon="12.320321"><ele>354.4</ele><time>2026-04-17T12:43:13.885Z</time></trkpt><trkpt lat="43.1570901" lon="12.3204071"><ele>353.20000000000005</ele><time>2026-04-17T12:43:16.892Z</time></trkpt><trkpt lat="43.1571716" lon="12.3203046"><ele>352.0</ele><time>2026-04-17T12:43:19.839Z</time></trkpt><trkpt lat="43.1572319" lon="12.3202381"><ele>352.0</ele><time>2026-04-17T12:43:20.893Z</time></trkpt><trkpt lat="43.1572797" lon="12.3201649"><ele>352.0</ele><time>2026-04-17T12:43:21.904Z</time></trkpt><trkpt lat="43.1573341" lon="12.3201057"><ele>352.0</ele><time>2026-04-17T12:43:22.912Z</time></trkpt><trkpt lat="43.1574146" lon="12.3199794"><ele>352.0</ele><time>2026-04-17T12:43:24.861Z</time></trkpt><trkpt lat="43.1574813" lon="12.3198737"><ele>352.0</ele><time>2026-04-17T12:43:26.893Z</time></trkpt><trkpt lat="43.1575738" lon="12.3198682"><ele>346.8</ele><time>2026-04-17T12:43:28.907Z</time></trkpt><trkpt lat="43.1576322" lon="12.3199801"><ele>341.6</ele><time>2026-04-17T12:43:30.852Z</time></trkpt><trkpt lat="43.1576707" lon="12.3201361"><ele>336.40000000000003</ele><time>2026-04-17T12:43:32.901Z</time></trkpt><trkpt lat="43.1576661" lon="12.3202308"><ele>331.20000000000005</ele><time>2026-04-17T12:43:33.896Z</time></trkpt><trkpt lat="43.1576368" lon="12.3203279"><ele>326.0</ele><time>2026-04-17T12:43:34.888Z</time></trkpt><trkpt lat="43.1575906" lon="12.3204245"><ele>326.0</ele><time>2026-04-17T12:43:35.908Z</time></trkpt><trkpt lat="43.1575456" lon="12.3205094"><ele>326.0</ele><time>2026-04-17T12:43:36.911Z</time></trkpt><trkpt lat="43.1575083" lon="12.320599"><ele>326.0</ele><time>2026-04-17T12:43:37.912Z</time></trkpt><trkpt lat="43.157482" lon="12.3206954"><ele>326.0</ele><time>2026-04-17T12:43:38.913Z</time></trkpt><trkpt lat="43.1574704" lon="12.3207953"><ele>326.0</ele><time>2026-04-17T12:43:39.891Z</time></trkpt><trkpt lat="43.1574914" lon="12.3208853"><ele>326.0</ele><time>2026-04-17T12:43:40.858Z</time></trkpt><trkpt lat="43.1575112" lon="12.3209755"><ele>326.0</ele><time>2026-04-17T12:43:41.884Z</time></trkpt><trkpt lat="43.1575648" lon="12.3210356"><ele>325.6666666666667</ele><time>2026-04-17T12:43:42.888Z</time></trkpt><trkpt lat="43.1576379" lon="12.3210413"><ele>325.33333333333337</ele><time>2026-04-17T12:43:43.906Z</time></trkpt><trkpt lat="43.1577109" lon="12.3210618"><ele>325.0</ele><time>2026-04-17T12:43:44.898Z</time></trkpt><trkpt lat="43.1577964" lon="12.3210611"><ele>324.6666666666667</ele><time>2026-04-17T12:43:45.897Z</time></trkpt><trkpt lat="43.1578806" lon="12.3210709"><ele>324.3333333333333</ele><time>2026-04-17T12:43:46.907Z</time></trkpt><trkpt lat="43.1579645" lon="12.3210687"><ele>324.0</ele><time>2026-04-17T12:43:47.9Z</time></trkpt><trkpt lat="43.1580407" lon="12.3210748"><ele>324.0</ele><time>2026-04-17T12:43:48.908Z</time></trkpt><trkpt lat="43.1581439" lon="12.32108"><ele>324.0</ele><time>2026-04-17T12:43:49.912Z</time></trkpt><trkpt lat="43.1582381" lon="12.3211103"><ele>324.0</ele><time>2026-04-17T12:43:50.892Z</time></trkpt><trkpt lat="43.1583278" lon="12.3211516"><ele>324.0</ele><time>2026-04-17T12:43:51.897Z</time></trkpt><trkpt lat="43.1583963" lon="12.3212238"><ele>324.0</ele><time>2026-04-17T12:43:52.896Z</time></trkpt><trkpt lat="43.1584711" lon="12.3213053"><ele>323.4</ele><time>2026-04-17T12:43:53.868Z</time></trkpt><trkpt lat="43.1585266" lon="12.3214049"><ele>322.79999999999995</ele><time>2026-04-17T12:43:54.903Z</time></trkpt><trkpt lat="43.1585938" lon="12.3215064"><ele>322.20000000000005</ele><time>2026-04-17T12:43:55.899Z</time></trkpt><trkpt lat="43.1586544" lon="12.3216136"><ele>321.6</ele><time>2026-04-17T12:43:56.893Z</time></trkpt><trkpt lat="43.1587066" lon="12.3217011"><ele>321.0</ele><time>2026-04-17T12:43:57.896Z</time></trkpt><trkpt lat="43.1587564" lon="12.3217939"><ele>321.0</ele><time>2026-04-17T12:43:58.908Z</time></trkpt><trkpt lat="43.1587983" lon="12.3218856"><ele>321.0</ele><time>2026-04-17T12:43:59.9Z</time></trkpt><trkpt lat="43.1588219" lon="12.3219955"><ele>321.0</ele><time>2026-04-17T12:44:00.898Z</time></trkpt><trkpt lat="43.1588435" lon="12.3221157"><ele>321.0</ele><time>2026-04-17T12:44:01.885Z</time></trkpt><trkpt lat="43.1588661" lon="12.3222445"><ele>321.0</ele><time>2026-04-17T12:44:02.866Z</time></trkpt><trkpt lat="43.1588915" lon="12.3223744"><ele>321.0</ele><time>2026-04-17T12:44:03.882Z</time></trkpt><trkpt lat="43.1589031" lon="12.3225055"><ele>322.20000000000005</ele><time>2026-04-17T12:44:04.909Z</time></trkpt><trkpt lat="43.1589255" lon="12.3226398"><ele>323.40000000000003</ele><time>2026-04-17T12:44:05.898Z</time></trkpt><trkpt lat="43.1589597" lon="12.322769"><ele>324.6</ele><time>2026-04-17T12:44:06.883Z</time></trkpt><trkpt lat="43.1589904" lon="12.3228978"><ele>325.8</ele><time>2026-04-17T12:44:07.896Z</time></trkpt><trkpt lat="43.1590021" lon="12.3230176"><ele>327.0</ele><time>2026-04-17T12:44:08.886Z</time></trkpt><trkpt lat="43.1590152" lon="12.3231363"><ele>324.6666666666667</ele><time>2026-04-17T12:44:09.896Z</time></trkpt><trkpt lat="43.1590004" lon="12.3232433"><ele>322.3333333333333</ele><time>2026-04-17T12:44:10.883Z</time></trkpt><trkpt lat="43.1589783" lon="12.3233548"><ele>320.0</ele><time>2026-04-17T12:44:11.899Z</time></trkpt><trkpt lat="43.1589327" lon="12.3234599"><ele>317.66666666666663</ele><time>2026-04-17T12:44:12.92Z</time></trkpt><trkpt lat="43.1588853" lon="12.3235582"><ele>315.3333333333333</ele><time>2026-04-17T12:44:13.89Z</time></trkpt><trkpt lat="43.1588342" lon="12.3236526"><ele>313.0</ele><time>2026-04-17T12:44:14.89Z</time></trkpt><trkpt lat="43.1587865" lon="12.3237437"><ele>313.0</ele><time>2026-04-17T12:44:15.901Z</time></trkpt><trkpt lat="43.1587422" lon="12.3238531"><ele>313.0</ele><time>2026-04-17T12:44:16.905Z</time></trkpt><trkpt lat="43.1587242" lon="12.3239691"><ele>313.0</ele><time>2026-04-17T12:44:17.882Z</time></trkpt><trkpt lat="43.1587491" lon="12.3240829"><ele>313.0</ele><time>2026-04-17T12:44:18.888Z</time></trkpt><trkpt lat="43.1587928" lon="12.3241804"><ele>313.0</ele><time>2026-04-17T12:44:19.836Z</time></trkpt><trkpt lat="43.1588374" lon="12.3242838"><ele>313.0</ele><time>2026-04-17T12:44:20.895Z</time></trkpt><trkpt lat="43.1588958" lon="12.3243817"><ele>307.8333333333333</ele><time>2026-04-17T12:44:21.88Z</time></trkpt><trkpt lat="43.1589554" lon="12.3244778"><ele>302.66666666666663</ele><time>2026-04-17T12:44:22.896Z</time></trkpt><trkpt lat="43.1590102" lon="12.3245811"><ele>297.5</ele><time>2026-04-17T12:44:23.902Z</time></trkpt><trkpt lat="43.1590677" lon="12.324685"><ele>292.3333333333333</ele><time>2026-04-17T12:44:24.892Z</time></trkpt><trkpt lat="43.1591201" lon="12.3247803"><ele>287.1666666666667</ele><time>2026-04-17T12:44:25.905Z</time></trkpt><trkpt lat="43.1591649" lon="12.3248674"><ele>282.0</ele><time>2026-04-17T12:44:26.856Z</time></trkpt><trkpt lat="43.1592082" lon="12.3249491"><ele>280.6666666666667</ele><time>2026-04-17T12:44:27.914Z</time></trkpt><trkpt lat="43.1592877" lon="12.3250506"><ele>279.3333333333333</ele><time>2026-04-17T12:44:29.911Z</time></trkpt><trkpt lat="43.1593488" lon="12.3250942"><ele>278.0</ele><time>2026-04-17T12:44:31.908Z</time></trkpt><trkpt lat="43.1594117" lon="12.3250518"><ele>276.66666666666663</ele><time>2026-04-17T12:44:38.891Z</time></trkpt><trkpt lat="43.1594512" lon="12.3249756"><ele>275.3333333333333</ele><time>2026-04-17T12:44:39.893Z</time></trkpt><trkpt lat="43.1594809" lon="12.3248497"><ele>274.0</ele><time>2026-04-17T12:44:40.834Z</time></trkpt><trkpt lat="43.1594913" lon="12.3246777"><ele>274.0</ele><time>2026-04-17T12:44:41.851Z</time></trkpt><trkpt lat="43.1595007" lon="12.3244733"><ele>274.0</ele><time>2026-04-17T12:44:42.882Z</time></trkpt><trkpt lat="43.1595337" lon="12.3242748"><ele>274.0</ele><time>2026-04-17T12:44:43.898Z</time></trkpt><trkpt lat="43.1595375" lon="12.3240756"><ele>274.0</ele><time>2026-04-17T12:44:44.892Z</time></trkpt><trkpt lat="43.1595447" lon="12.3238759"><ele>276.66666666666663</ele><time>2026-04-17T12:44:45.905Z</time></trkpt><trkpt lat="43.1595593" lon="12.3236773"><ele>279.3333333333333</ele><time>2026-04-17T12:44:46.897Z</time></trkpt><trkpt lat="43.1595755" lon="12.3234747"><ele>282.0</ele><time>2026-04-17T12:44:47.897Z</time></trkpt><trkpt lat="43.1595703" lon="12.3232592"><ele>284.6666666666667</ele><time>2026-04-17T12:44:48.877Z</time></trkpt><trkpt lat="43.1595693" lon="12.3230206"><ele>287.33333333333337</ele><time>2026-04-17T12:44:49.898Z</time></trkpt><trkpt lat="43.1595596" lon="12.3227831"><ele>290.0</ele><time>2026-04-17T12:44:50.891Z</time></trkpt><trkpt lat="43.1595469" lon="12.3225425"><ele>290.0</ele><time>2026-04-17T12:44:51.917Z</time></trkpt><trkpt lat="43.1595326" lon="12.3223085"><ele>290.0</ele><time>2026-04-17T12:44:52.908Z</time></trkpt><trkpt lat="43.1595105" lon="12.3220685"><ele>290.0</ele><time>2026-04-17T12:44:53.892Z</time></trkpt><trkpt lat="43.1594919" lon="12.3218247"><ele>287.33333333333337</ele><time>2026-04-17T12:44:54.905Z</time></trkpt><trkpt lat="43.1594639" lon="12.321582"><ele>284.6666666666667</ele><time>2026-04-17T12:44:55.895Z</time></trkpt><trkpt lat="43.1594329" lon="12.3213529"><ele>282.0</ele><time>2026-04-17T12:44:56.897Z</time></trkpt><trkpt lat="43.1594032" lon="12.321118"><ele>278.6666666666667</ele><time>2026-04-17T12:44:57.903Z</time></trkpt><trkpt lat="43.1593665" lon="12.3208875"><ele>275.33333333333337</ele><time>2026-04-17T12:44:58.899Z</time></trkpt><trkpt lat="43.1593363" lon="12.3206577"><ele>272.0</ele><time>2026-04-17T12:44:59.888Z</time></trkpt><trkpt lat="43.1593122" lon="12.320438"><ele>272.25</ele><time>2026-04-17T12:45:00.872Z</time></trkpt><trkpt lat="43.1592972" lon="12.320236"><ele>272.5</ele><time>2026-04-17T12:45:01.913Z</time></trkpt><trkpt lat="43.1593" lon="12.3200271"><ele>272.75</ele><time>2026-04-17T12:45:02.893Z</time></trkpt><trkpt lat="43.1593224" lon="12.3198265"><ele>273.0</ele><time>2026-04-17T12:45:03.892Z</time></trkpt><trkpt lat="43.1593841" lon="12.319622"><ele>273.0</ele><time>2026-04-17T12:45:04.901Z</time></trkpt><trkpt lat="43.1594637" lon="12.3194264"><ele>273.0</ele><time>2026-04-17T12:45:05.911Z</time></trkpt><trkpt lat="43.1595632" lon="12.3192548"><ele>273.0</ele><time>2026-04-17T12:45:06.909Z</time></trkpt><trkpt lat="43.1596817" lon="12.3190921"><ele>273.0</ele><time>2026-04-17T12:45:07.906Z</time></trkpt><trkpt lat="43.1598027" lon="12.3189392"><ele>273.0</ele><time>2026-04-17T12:45:08.903Z</time></trkpt><trkpt lat="43.1599192" lon="12.318797"><ele>273.0</ele><time>2026-04-17T12:45:09.894Z</time></trkpt><trkpt lat="43.1600497" lon="12.3186686"><ele>270.3333333333333</ele><time>2026-04-17T12:45:10.927Z</time></trkpt><trkpt lat="43.1601785" lon="12.3185618"><ele>267.66666666666663</ele><time>2026-04-17T12:45:11.894Z</time></trkpt><trkpt lat="43.1603067" lon="12.3184226"><ele>265.0</ele><time>2026-04-17T12:45:12.9Z</time></trkpt><trkpt lat="43.1604162" lon="12.3182552"><ele>263.66666666666663</ele><time>2026-04-17T12:45:13.902Z</time></trkpt><trkpt lat="43.1604946" lon="12.3180541"><ele>262.3333333333333</ele><time>2026-04-17T12:45:14.897Z</time></trkpt><trkpt lat="43.1605668" lon="12.3178508"><ele>261.0</ele><time>2026-04-17T12:45:15.897Z</time></trkpt><trkpt lat="43.1606483" lon="12.3176587"><ele>261.3333333333333</ele><time>2026-04-17T12:45:16.916Z</time></trkpt><trkpt lat="43.1607449" lon="12.3174629"><ele>261.66666666666663</ele><time>2026-04-17T12:45:17.904Z</time></trkpt><trkpt lat="43.1608517" lon="12.3172581"><ele>262.0</ele><time>2026-04-17T12:45:18.89Z</time></trkpt><trkpt lat="43.1609651" lon="12.3170527"><ele>262.0</ele><time>2026-04-17T12:45:19.884Z</time></trkpt><trkpt lat="43.1610767" lon="12.3168506"><ele>262.0</ele><time>2026-04-17T12:45:20.898Z</time></trkpt><trkpt lat="43.161173" lon="12.3166678"><ele>262.0</ele><time>2026-04-17T12:45:21.913Z</time></trkpt><trkpt lat="43.1612349" lon="12.3164653"><ele>262.0</ele><time>2026-04-17T12:45:22.906Z</time></trkpt><trkpt lat="43.1612676" lon="12.3162536"><ele>262.0</ele><time>2026-04-17T12:45:23.913Z</time></trkpt><trkpt lat="43.1612888" lon="12.3160318"><ele>262.0</ele><time>2026-04-17T12:45:24.856Z</time></trkpt><trkpt lat="43.1613173" lon="12.3158023"><ele>262.0</ele><time>2026-04-17T12:45:25.906Z</time></trkpt><trkpt lat="43.1613403" lon="12.3155711"><ele>262.0</ele><time>2026-04-17T12:45:26.905Z</time></trkpt><trkpt lat="43.1613723" lon="12.3153335"><ele>262.0</ele><time>2026-04-17T12:45:27.894Z</time></trkpt><trkpt lat="43.161401" lon="12.3150977"><ele>262.3333333333333</ele><time>2026-04-17T12:45:28.891Z</time></trkpt><trkpt lat="43.1614425" lon="12.3148749"><ele>262.6666666666667</ele><time>2026-04-17T12:45:29.903Z</time></trkpt><trkpt lat="43.1614855" lon="12.314667"><ele>263.0</ele><time>2026-04-17T12:45:30.902Z</time></trkpt><trkpt lat="43.161521" lon="12.3144454"><ele>263.0</ele><time>2026-04-17T12:45:31.894Z</time></trkpt><trkpt lat="43.1615585" lon="12.3142369"><ele>263.0</ele><time>2026-04-17T12:45:32.901Z</time></trkpt><trkpt lat="43.1615815" lon="12.3140285"><ele>263.0</ele><time>2026-04-17T12:45:33.911Z</time></trkpt><trkpt lat="43.1615956" lon="12.3138146"><ele>263.33333333333337</ele><time>2026-04-17T12:45:34.908Z</time></trkpt><trkpt lat="43.1615866" lon="12.3135987"><ele>263.6666666666667</ele><time>2026-04-17T12:45:35.874Z</time></trkpt><trkpt lat="43.161575" lon="12.3133742"><ele>264.0</ele><time>2026-04-17T12:45:36.886Z</time></trkpt><trkpt lat="43.1615483" lon="12.3131585"><ele>262.0</ele><time>2026-04-17T12:45:37.915Z</time></trkpt><trkpt lat="43.1615024" lon="12.3129438"><ele>260.0</ele><time>2026-04-17T12:45:38.901Z</time></trkpt><trkpt lat="43.1614558" lon="12.3127266"><ele>258.0</ele><time>2026-04-17T12:45:39.902Z</time></trkpt><trkpt lat="43.1614085" lon="12.3125131"><ele>258.0</ele><time>2026-04-17T12:45:40.895Z</time></trkpt><trkpt lat="43.1613559" lon="12.312294"><ele>258.0</ele><time>2026-04-17T12:45:41.906Z</time></trkpt><trkpt lat="43.1613119" lon="12.3120643"><ele>258.0</ele><time>2026-04-17T12:45:42.9Z</time></trkpt><trkpt lat="43.1612629" lon="12.3118487"><ele>257.6666666666667</ele><time>2026-04-17T12:45:43.905Z</time></trkpt><trkpt lat="43.1612148" lon="12.3116369"><ele>257.33333333333337</ele><time>2026-04-17T12:45:44.903Z</time></trkpt><trkpt lat="43.1611633" lon="12.3114379"><ele>257.0</ele><time>2026-04-17T12:45:45.897Z</time></trkpt><trkpt lat="43.1611194" lon="12.3112397"><ele>257.5</ele><time>2026-04-17T12:45:46.908Z</time></trkpt><trkpt lat="43.1610931" lon="12.3110422"><ele>258.0</ele><time>2026-04-17T12:45:47.894Z</time></trkpt><trkpt lat="43.1610848" lon="12.3108422"><ele>258.5</ele><time>2026-04-17T12:45:48.901Z</time></trkpt><trkpt lat="43.1610844" lon="12.3106543"><ele>259.0</ele><time>2026-04-17T12:45:49.882Z</time></trkpt><trkpt lat="43.1610911" lon="12.3104913"><ele>259.0</ele><time>2026-04-17T12:45:50.892Z</time></trkpt><trkpt lat="43.1610978" lon="12.3103578"><ele>259.0</ele><time>2026-04-17T12:45:51.917Z</time></trkpt><trkpt lat="43.1611211" lon="12.3102599"><ele>259.0</ele><time>2026-04-17T12:45:52.906Z</time></trkpt><trkpt lat="43.1612042" lon="12.3101431"><ele>259.0</ele><time>2026-04-17T12:45:54.883Z</time></trkpt><trkpt lat="43.1612684" lon="12.3101219"><ele>259.0</ele><time>2026-04-17T12:45:55.917Z</time></trkpt><trkpt lat="43.1613473" lon="12.3101125"><ele>259.0</ele><time>2026-04-17T12:45:56.896Z</time></trkpt><trkpt lat="43.1614395" lon="12.3101001"><ele>259.5</ele><time>2026-04-17T12:45:57.905Z</time></trkpt><trkpt lat="43.1615378" lon="12.3100794"><ele>260.0</ele><time>2026-04-17T12:45:58.905Z</time></trkpt><trkpt lat="43.1616381" lon="12.3100264"><ele>260.5</ele><time>2026-04-17T12:45:59.92Z</time></trkpt><trkpt lat="43.1617474" lon="12.3099488"><ele>261.0</ele><time>2026-04-17T12:46:00.895Z</time></trkpt><trkpt lat="43.1618501" lon="12.3098496"><ele>260.5</ele><time>2026-04-17T12:46:01.88Z</time></trkpt><trkpt lat="43.1619378" lon="12.3097188"><ele>260.0</ele><time>2026-04-17T12:46:02.893Z</time></trkpt><trkpt lat="43.1620091" lon="12.3095649"><ele>259.5</ele><time>2026-04-17T12:46:03.911Z</time></trkpt><trkpt lat="43.1620429" lon="12.3093772"><ele>259.0</ele><time>2026-04-17T12:46:04.888Z</time></trkpt><trkpt lat="43.1620801" lon="12.3091908"><ele>259.0</ele><time>2026-04-17T12:46:05.916Z</time></trkpt><trkpt lat="43.1621076" lon="12.3089907"><ele>259.0</ele><time>2026-04-17T12:46:06.894Z</time></trkpt><trkpt lat="43.1621459" lon="12.3087882"><ele>259.0</ele><time>2026-04-17T12:46:07.919Z</time></trkpt><trkpt lat="43.1621754" lon="12.3085904"><ele>259.0</ele><time>2026-04-17T12:46:08.872Z</time></trkpt><trkpt lat="43.1622114" lon="12.3083866"><ele>259.25</ele><time>2026-04-17T12:46:09.902Z</time></trkpt><trkpt lat="43.1622435" lon="12.3081853"><ele>259.5</ele><time>2026-04-17T12:46:10.899Z</time></trkpt><trkpt lat="43.1622694" lon="12.3079877"><ele>259.75</ele><time>2026-04-17T12:46:11.894Z</time></trkpt><trkpt lat="43.1622812" lon="12.3077805"><ele>260.0</ele><time>2026-04-17T12:46:12.889Z</time></trkpt><trkpt lat="43.1622863" lon="12.3075833"><ele>259.25</ele><time>2026-04-17T12:46:13.901Z</time></trkpt><trkpt lat="43.1622726" lon="12.307383"><ele>258.5</ele><time>2026-04-17T12:46:14.906Z</time></trkpt><trkpt lat="43.1622481" lon="12.3071793"><ele>257.75</ele><time>2026-04-17T12:46:15.909Z</time></trkpt><trkpt lat="43.1622097" lon="12.3069825"><ele>257.0</ele><time>2026-04-17T12:46:16.854Z</time></trkpt><trkpt lat="43.1621738" lon="12.3067646"><ele>257.0</ele><time>2026-04-17T12:46:17.869Z</time></trkpt><trkpt lat="43.1621374" lon="12.3065467"><ele>257.0</ele><time>2026-04-17T12:46:18.91Z</time></trkpt><trkpt lat="43.1621001" lon="12.3063211"><ele>257.0</ele><time>2026-04-17T12:46:19.886Z</time></trkpt><trkpt lat="43.1620627" lon="12.3060973"><ele>256.6666666666667</ele><time>2026-04-17T12:46:20.899Z</time></trkpt><trkpt lat="43.1620292" lon="12.3058663"><ele>256.3333333333333</ele><time>2026-04-17T12:46:21.902Z</time></trkpt><trkpt lat="43.161995" lon="12.3056386"><ele>256.0</ele><time>2026-04-17T12:46:22.885Z</time></trkpt><trkpt lat="43.1619642" lon="12.3054018"><ele>257.66666666666663</ele><time>2026-04-17T12:46:23.893Z</time></trkpt><trkpt lat="43.1619315" lon="12.3051622"><ele>259.3333333333333</ele><time>2026-04-17T12:46:24.855Z</time></trkpt><trkpt lat="43.1618967" lon="12.3049171"><ele>261.0</ele><time>2026-04-17T12:46:25.887Z</time></trkpt><trkpt lat="43.1618625" lon="12.304661"><ele>263.3333333333333</ele><time>2026-04-17T12:46:26.895Z</time></trkpt><trkpt lat="43.1618227" lon="12.3044137"><ele>265.66666666666663</ele><time>2026-04-17T12:46:27.899Z</time></trkpt><trkpt lat="43.1617889" lon="12.3041736"><ele>268.0</ele><time>2026-04-17T12:46:28.885Z</time></trkpt><trkpt lat="43.1617584" lon="12.3039245"><ele>269.3333333333333</ele><time>2026-04-17T12:46:29.883Z</time></trkpt><trkpt lat="43.1617281" lon="12.3036784"><ele>270.6666666666667</ele><time>2026-04-17T12:46:30.896Z</time></trkpt><trkpt lat="43.161699" lon="12.303436"><ele>272.0</ele><time>2026-04-17T12:46:31.898Z</time></trkpt><trkpt lat="43.1616646" lon="12.3031992"><ele>272.33333333333337</ele><time>2026-04-17T12:46:32.879Z</time></trkpt><trkpt lat="43.1616401" lon="12.3029676"><ele>272.6666666666667</ele><time>2026-04-17T12:46:33.899Z</time></trkpt><trkpt lat="43.1616196" lon="12.3027398"><ele>273.0</ele><time>2026-04-17T12:46:34.878Z</time></trkpt><trkpt lat="43.1616048" lon="12.302511"><ele>273.0</ele><time>2026-04-17T12:46:35.863Z</time></trkpt><trkpt lat="43.1615934" lon="12.3022831"><ele>273.0</ele><time>2026-04-17T12:46:36.891Z</time></trkpt><trkpt lat="43.1615907" lon="12.3020594"><ele>273.0</ele><time>2026-04-17T12:46:37.912Z</time></trkpt><trkpt lat="43.1615936" lon="12.3018371"><ele>272.0</ele><time>2026-04-17T12:46:38.892Z</time></trkpt><trkpt lat="43.1616173" lon="12.3016389"><ele>271.0</ele><time>2026-04-17T12:46:39.892Z</time></trkpt><trkpt lat="43.1616447" lon="12.3014619"><ele>270.0</ele><time>2026-04-17T12:46:40.901Z</time></trkpt><trkpt lat="43.1616722" lon="12.3012946"><ele>269.0</ele><time>2026-04-17T12:46:41.875Z</time></trkpt><trkpt lat="43.1617025" lon="12.301138"><ele>268.0</ele><time>2026-04-17T12:46:42.895Z</time></trkpt><trkpt lat="43.161742" lon="12.300981"><ele>267.0</ele><time>2026-04-17T12:46:43.896Z</time></trkpt><trkpt lat="43.161795" lon="12.3007974"><ele>266.0</ele><time>2026-04-17T12:46:44.891Z</time></trkpt><trkpt lat="43.1618795" lon="12.3006171"><ele>265.0</ele><time>2026-04-17T12:46:45.891Z</time></trkpt><trkpt lat="43.1619944" lon="12.300426"><ele>263.66666666666663</ele><time>2026-04-17T12:46:46.89Z</time></trkpt><trkpt lat="43.1621113" lon="12.3002292"><ele>262.3333333333333</ele><time>2026-04-17T12:46:47.902Z</time></trkpt><trkpt lat="43.162231" lon="12.3000211"><ele>261.0</ele><time>2026-04-17T12:46:48.898Z</time></trkpt><trkpt lat="43.1623484" lon="12.299811"><ele>261.3333333333333</ele><time>2026-04-17T12:46:49.878Z</time></trkpt><trkpt lat="43.1624658" lon="12.2996293"><ele>261.66666666666663</ele><time>2026-04-17T12:46:50.893Z</time></trkpt><trkpt lat="43.1625688" lon="12.2994574"><ele>262.0</ele><time>2026-04-17T12:46:51.908Z</time></trkpt><trkpt lat="43.1626706" lon="12.2992997"><ele>262.0</ele><time>2026-04-17T12:46:52.888Z</time></trkpt><trkpt lat="43.1627677" lon="12.2991515"><ele>262.0</ele><time>2026-04-17T12:46:53.9Z</time></trkpt><trkpt lat="43.1628688" lon="12.299013"><ele>262.0</ele><time>2026-04-17T12:46:54.847Z</time></trkpt><trkpt lat="43.1629708" lon="12.2988908"><ele>262.0</ele><time>2026-04-17T12:46:55.901Z</time></trkpt><trkpt lat="43.1630658" lon="12.2987918"><ele>261.75</ele><time>2026-04-17T12:46:56.904Z</time></trkpt><trkpt lat="43.1631532" lon="12.2987"><ele>261.5</ele><time>2026-04-17T12:46:57.894Z</time></trkpt><trkpt lat="43.1632487" lon="12.2985968"><ele>261.25</ele><time>2026-04-17T12:46:58.895Z</time></trkpt><trkpt lat="43.1633418" lon="12.2984797"><ele>261.0</ele><time>2026-04-17T12:46:59.917Z</time></trkpt><trkpt lat="43.1634475" lon="12.2983462"><ele>260.6666666666667</ele><time>2026-04-17T12:47:00.869Z</time></trkpt><trkpt lat="43.16356" lon="12.2981916"><ele>260.33333333333337</ele><time>2026-04-17T12:47:01.904Z</time></trkpt><trkpt lat="43.1636813" lon="12.2980221"><ele>260.0</ele><time>2026-04-17T12:47:02.913Z</time></trkpt><trkpt lat="43.1638059" lon="12.2978387"><ele>260.0</ele><time>2026-04-17T12:47:03.894Z</time></trkpt><trkpt lat="43.163928" lon="12.2976548"><ele>260.0</ele><time>2026-04-17T12:47:04.907Z</time></trkpt><trkpt lat="43.1640448" lon="12.2974936"><ele>260.0</ele><time>2026-04-17T12:47:05.902Z</time></trkpt><trkpt lat="43.1641582" lon="12.2973447"><ele>260.0</ele><time>2026-04-17T12:47:06.915Z</time></trkpt><trkpt lat="43.1642654" lon="12.2971919"><ele>260.0</ele><time>2026-04-17T12:47:07.89Z</time></trkpt><trkpt lat="43.1643639" lon="12.2970383"><ele>260.0</ele><time>2026-04-17T12:47:08.895Z</time></trkpt><trkpt lat="43.1644593" lon="12.2968757"><ele>260.0</ele><time>2026-04-17T12:47:09.914Z</time></trkpt><trkpt lat="43.1645509" lon="12.2967177"><ele>260.0</ele><time>2026-04-17T12:47:10.894Z</time></trkpt><trkpt lat="43.1646427" lon="12.2965571"><ele>260.0</ele><time>2026-04-17T12:47:11.888Z</time></trkpt><trkpt lat="43.1647283" lon="12.2963999"><ele>260.0</ele><time>2026-04-17T12:47:12.9Z</time></trkpt><trkpt lat="43.1648133" lon="12.2962395"><ele>259.75</ele><time>2026-04-17T12:47:13.909Z</time></trkpt><trkpt lat="43.1648955" lon="12.2960749"><ele>259.5</ele><time>2026-04-17T12:47:14.897Z</time></trkpt><trkpt lat="43.1649738" lon="12.29591"><ele>259.25</ele><time>2026-04-17T12:47:15.895Z</time></trkpt><trkpt lat="43.1650568" lon="12.2957609"><ele>259.0</ele><time>2026-04-17T12:47:16.893Z</time></trkpt><trkpt lat="43.1651275" lon="12.2956164"><ele>258.2</ele><time>2026-04-17T12:47:17.897Z</time></trkpt><trkpt lat="43.1651876" lon="12.2954952"><ele>257.4</ele><time>2026-04-17T12:47:18.899Z</time></trkpt><trkpt lat="43.1652481" lon="12.2953798"><ele>256.6</ele><time>2026-04-17T12:47:19.905Z</time></trkpt><trkpt lat="43.1653048" lon="12.2952719"><ele>255.8</ele><time>2026-04-17T12:47:20.897Z</time></trkpt><trkpt lat="43.1653586" lon="12.2951661"><ele>255.0</ele><time>2026-04-17T12:47:21.911Z</time></trkpt><trkpt lat="43.1654101" lon="12.2950502"><ele>255.0</ele><time>2026-04-17T12:47:22.894Z</time></trkpt><trkpt lat="43.1654609" lon="12.2949249"><ele>255.0</ele><time>2026-04-17T12:47:23.893Z</time></trkpt><trkpt lat="43.1654995" lon="12.2947836"><ele>255.0</ele><time>2026-04-17T12:47:24.903Z</time></trkpt><trkpt lat="43.1655334" lon="12.294658"><ele>255.0</ele><time>2026-04-17T12:47:25.882Z</time></trkpt><trkpt lat="43.1655758" lon="12.2945412"><ele>255.0</ele><time>2026-04-17T12:47:26.897Z</time></trkpt><trkpt lat="43.1656074" lon="12.2944192"><ele>255.0</ele><time>2026-04-17T12:47:27.907Z</time></trkpt><trkpt lat="43.1656367" lon="12.2942885"><ele>255.0</ele><time>2026-04-17T12:47:28.853Z</time></trkpt><trkpt lat="43.1656645" lon="12.2941896"><ele>255.0</ele><time>2026-04-17T12:47:29.893Z</time></trkpt><trkpt lat="43.1656893" lon="12.2941012"><ele>255.0</ele><time>2026-04-17T12:47:30.875Z</time></trkpt><trkpt lat="43.1657398" lon="12.2939789"><ele>255.0</ele><time>2026-04-17T12:47:32.899Z</time></trkpt><trkpt lat="43.1658404" lon="12.2939211"><ele>254.6</ele><time>2026-04-17T12:47:34.886Z</time></trkpt><trkpt lat="43.1659132" lon="12.2939178"><ele>254.2</ele><time>2026-04-17T12:47:35.903Z</time></trkpt><trkpt lat="43.1659989" lon="12.2938929"><ele>253.8</ele><time>2026-04-17T12:47:36.896Z</time></trkpt><trkpt lat="43.1660808" lon="12.2938684"><ele>253.4</ele><time>2026-04-17T12:47:37.914Z</time></trkpt><trkpt lat="43.1661931" lon="12.2938226"><ele>253.0</ele><time>2026-04-17T12:47:39.904Z</time></trkpt><trkpt lat="43.1662895" lon="12.2938349"><ele>253.5</ele><time>2026-04-17T12:47:41.904Z</time></trkpt><trkpt lat="43.1663638" lon="12.2939686"><ele>254.0</ele><time>2026-04-17T12:47:43.841Z</time></trkpt><trkpt lat="43.1663866" lon="12.2940898"><ele>254.5</ele><time>2026-04-17T12:47:44.852Z</time></trkpt><trkpt lat="43.1664078" lon="12.2942645"><ele>255.0</ele><time>2026-04-17T12:47:45.852Z</time></trkpt><trkpt lat="43.1664391" lon="12.2944522"><ele>255.0</ele><time>2026-04-17T12:47:46.849Z</time></trkpt><trkpt lat="43.1664797" lon="12.2946565"><ele>255.0</ele><time>2026-04-17T12:47:47.849Z</time></trkpt><trkpt lat="43.1665113" lon="12.2948446"><ele>255.0</ele><time>2026-04-17T12:47:48.846Z</time></trkpt><trkpt lat="43.1665337" lon="12.2949826"><ele>255.0</ele><time>2026-04-17T12:47:49.859Z</time></trkpt><trkpt lat="43.1665578" lon="12.2950903"><ele>255.4</ele><time>2026-04-17T12:47:50.86Z</time></trkpt><trkpt lat="43.1666098" lon="12.2951813"><ele>255.8</ele><time>2026-04-17T12:47:51.896Z</time></trkpt><trkpt lat="43.166748" lon="12.2952424"><ele>256.2</ele><time>2026-04-17T12:47:53.872Z</time></trkpt><trkpt lat="43.1668276" lon="12.295249"><ele>256.6</ele><time>2026-04-17T12:47:54.858Z</time></trkpt><trkpt lat="43.1668869" lon="12.2952982"><ele>257.0</ele><time>2026-04-17T12:47:55.861Z</time></trkpt><trkpt lat="43.1669292" lon="12.2954164"><ele>257.0</ele><time>2026-04-17T12:47:56.886Z</time></trkpt><trkpt lat="43.166965" lon="12.2955853"><ele>257.0</ele><time>2026-04-17T12:47:57.853Z</time></trkpt><trkpt lat="43.1669802" lon="12.2957808"><ele>257.0</ele><time>2026-04-17T12:47:58.846Z</time></trkpt><trkpt lat="43.1669945" lon="12.2959775"><ele>257.0</ele><time>2026-04-17T12:47:59.852Z</time></trkpt><trkpt lat="43.1670059" lon="12.2961526"><ele>258.6</ele><time>2026-04-17T12:48:00.853Z</time></trkpt><trkpt lat="43.1670085" lon="12.2962979"><ele>260.2</ele><time>2026-04-17T12:48:01.848Z</time></trkpt><trkpt lat="43.1670209" lon="12.2964314"><ele>261.8</ele><time>2026-04-17T12:48:02.878Z</time></trkpt><trkpt lat="43.1670361" lon="12.2965477"><ele>263.4</ele><time>2026-04-17T12:48:03.851Z</time></trkpt><trkpt lat="43.1670603" lon="12.296644"><ele>265.0</ele><time>2026-04-17T12:48:04.879Z</time></trkpt><trkpt lat="43.1671084" lon="12.2967959"><ele>266.6</ele><time>2026-04-17T12:48:06.851Z</time></trkpt><trkpt lat="43.1671457" lon="12.2968756"><ele>268.2</ele><time>2026-04-17T12:48:07.874Z</time></trkpt><trkpt lat="43.1671963" lon="12.2970138"><ele>269.8</ele><time>2026-04-17T12:48:09.848Z</time></trkpt><trkpt lat="43.1671625" lon="12.2971701"><ele>271.4</ele><time>2026-04-17T12:48:11.847Z</time></trkpt><trkpt lat="43.1670895" lon="12.2972527"><ele>273.0</ele><time>2026-04-17T12:48:12.847Z</time></trkpt><trkpt lat="43.1669831" lon="12.297359"><ele>275.75</ele><time>2026-04-17T12:48:13.87Z</time></trkpt><trkpt lat="43.1668783" lon="12.2974644"><ele>278.5</ele><time>2026-04-17T12:48:14.836Z</time></trkpt><trkpt lat="43.1667772" lon="12.2975695"><ele>281.25</ele><time>2026-04-17T12:48:15.844Z</time></trkpt><trkpt lat="43.1666904" lon="12.2976604"><ele>284.0</ele><time>2026-04-17T12:48:16.894Z</time></trkpt><trkpt lat="43.1666144" lon="12.2977249"><ele>284.0</ele><time>2026-04-17T12:48:17.888Z</time></trkpt><trkpt lat="43.166545" lon="12.297789"><ele>284.0</ele><time>2026-04-17T12:48:18.885Z</time></trkpt><trkpt lat="43.1664565" lon="12.297843"><ele>277.0</ele><time>2026-04-17T12:48:20.889Z</time></trkpt><trkpt lat="43.1663553" lon="12.2978868"><ele>277.0</ele><time>2026-04-17T12:48:34.879Z</time></trkpt><trkpt lat="43.1662905" lon="12.2978759"><ele>277.0</ele><time>2026-04-17T12:49:09.856Z</time></trkpt><trkpt lat="43.1662325" lon="12.2978226"><ele>277.0</ele><time>2026-04-17T12:49:17.878Z</time></trkpt></trkseg></trk></gpx>